<?xml version="1.0" encoding="UTF-8" standalone="no" ?>
<gpx xmlns="http://www.topografix.com/GPX/1/1" xmlns:xsi="http://www.w3.org/2001/XMLSchema-instance" xsi:schemaLocation="http://www.topografix.com/GPX/1/1 http://www.topografix.com/GPX/1/1/gpx.xsd" version="1.1" creator="VisuGPX - https://www.visugpx.com">
  <metadata>
    <name>Via Podiensis GR65 Golinhac-Conques</name>
    <desc><![CDATA[Via Podiensis GR65 Golinhac-Conques]]></desc>
  </metadata>
  <trk>
    <name><![CDATA[19-MAI-12 GOLINHAC CONQUES]]></name>
    <trkseg>
      <trkpt lat="44.60473" lon="2.58352">
        <ele>655.28</ele>
        <time>2012-05-19T06:16:21Z</time>
      </trkpt>
      <trkpt lat="44.60475" lon="2.58349">
        <ele>653.35</ele>
        <time>2012-05-19T06:16:37Z</time>
      </trkpt>
      <trkpt lat="44.60474" lon="2.5835">
        <ele>648.07</ele>
        <time>2012-05-19T06:16:56Z</time>
      </trkpt>
      <trkpt lat="44.60474" lon="2.58363">
        <ele>649.03</ele>
        <time>2012-05-19T06:17:09Z</time>
      </trkpt>
      <trkpt lat="44.60476" lon="2.58358">
        <ele>651.43</ele>
        <time>2012-05-19T06:17:24Z</time>
      </trkpt>
      <trkpt lat="44.60476" lon="2.58358">
        <ele>650.95</ele>
        <time>2012-05-19T06:17:44Z</time>
      </trkpt>
      <trkpt lat="44.60478" lon="2.5835">
        <ele>652.39</ele>
        <time>2012-05-19T06:17:55Z</time>
      </trkpt>
      <trkpt lat="44.60473" lon="2.58343">
        <ele>653.83</ele>
        <time>2012-05-19T06:18:01Z</time>
      </trkpt>
      <trkpt lat="44.6047" lon="2.58333">
        <ele>654.8</ele>
        <time>2012-05-19T06:18:08Z</time>
      </trkpt>
      <trkpt lat="44.60473" lon="2.58319">
        <ele>654.8</ele>
        <time>2012-05-19T06:18:17Z</time>
      </trkpt>
      <trkpt lat="44.60476" lon="2.5831">
        <ele>654.31</ele>
        <time>2012-05-19T06:18:23Z</time>
      </trkpt>
      <trkpt lat="44.60476" lon="2.58304">
        <ele>653.83</ele>
        <time>2012-05-19T06:18:27Z</time>
      </trkpt>
      <trkpt lat="44.60476" lon="2.58298">
        <ele>655.28</ele>
        <time>2012-05-19T06:18:32Z</time>
      </trkpt>
      <trkpt lat="44.60482" lon="2.58292">
        <ele>655.76</ele>
        <time>2012-05-19T06:18:38Z</time>
      </trkpt>
      <trkpt lat="44.60482" lon="2.5828">
        <ele>655.76</ele>
        <time>2012-05-19T06:18:54Z</time>
      </trkpt>
      <trkpt lat="44.60484" lon="2.58283">
        <ele>657.68</ele>
        <time>2012-05-19T06:19:05Z</time>
      </trkpt>
      <trkpt lat="44.60484" lon="2.58283">
        <ele>657.68</ele>
        <time>2012-05-19T06:19:36Z</time>
      </trkpt>
      <trkpt lat="44.60483" lon="2.58283">
        <ele>655.28</ele>
        <time>2012-05-19T06:19:52Z</time>
      </trkpt>
      <trkpt lat="44.60482" lon="2.58284">
        <ele>655.76</ele>
        <time>2012-05-19T06:19:54Z</time>
      </trkpt>
      <trkpt lat="44.60467" lon="2.58293">
        <ele>656.72</ele>
        <time>2012-05-19T06:20:11Z</time>
      </trkpt>
      <trkpt lat="44.6046" lon="2.58295">
        <ele>656.24</ele>
        <time>2012-05-19T06:20:21Z</time>
      </trkpt>
      <trkpt lat="44.60456" lon="2.58308">
        <ele>656.72</ele>
        <time>2012-05-19T06:20:29Z</time>
      </trkpt>
      <trkpt lat="44.60448" lon="2.58324">
        <ele>657.2</ele>
        <time>2012-05-19T06:20:41Z</time>
      </trkpt>
      <trkpt lat="44.60444" lon="2.58329">
        <ele>658.16</ele>
        <time>2012-05-19T06:20:46Z</time>
      </trkpt>
      <trkpt lat="44.60434" lon="2.58352">
        <ele>656.72</ele>
        <time>2012-05-19T06:21:02Z</time>
      </trkpt>
      <trkpt lat="44.6043" lon="2.58362">
        <ele>656.72</ele>
        <time>2012-05-19T06:21:09Z</time>
      </trkpt>
      <trkpt lat="44.60427" lon="2.58368">
        <ele>656.72</ele>
        <time>2012-05-19T06:21:13Z</time>
      </trkpt>
      <trkpt lat="44.60413" lon="2.5839">
        <ele>654.8</ele>
        <time>2012-05-19T06:21:30Z</time>
      </trkpt>
      <trkpt lat="44.60408" lon="2.58399">
        <ele>654.31</ele>
        <time>2012-05-19T06:21:37Z</time>
      </trkpt>
      <trkpt lat="44.60401" lon="2.58407">
        <ele>653.83</ele>
        <time>2012-05-19T06:21:44Z</time>
      </trkpt>
      <trkpt lat="44.604" lon="2.58414">
        <ele>653.83</ele>
        <time>2012-05-19T06:21:58Z</time>
      </trkpt>
      <trkpt lat="44.60399" lon="2.58413">
        <ele>653.35</ele>
        <time>2012-05-19T06:22:27Z</time>
      </trkpt>
      <trkpt lat="44.60404" lon="2.58405">
        <ele>652.39</ele>
        <time>2012-05-19T06:22:42Z</time>
      </trkpt>
      <trkpt lat="44.60404" lon="2.58405">
        <ele>652.39</ele>
        <time>2012-05-19T06:22:43Z</time>
      </trkpt>
      <trkpt lat="44.60389" lon="2.58418">
        <ele>650.95</ele>
        <time>2012-05-19T06:22:58Z</time>
      </trkpt>
      <trkpt lat="44.6038" lon="2.58427">
        <ele>651.43</ele>
        <time>2012-05-19T06:23:12Z</time>
      </trkpt>
      <trkpt lat="44.60366" lon="2.58433">
        <ele>651.91</ele>
        <time>2012-05-19T06:23:27Z</time>
      </trkpt>
      <trkpt lat="44.60344" lon="2.58434">
        <ele>652.87</ele>
        <time>2012-05-19T06:23:44Z</time>
      </trkpt>
      <trkpt lat="44.60322" lon="2.58442">
        <ele>653.35</ele>
        <time>2012-05-19T06:24:02Z</time>
      </trkpt>
      <trkpt lat="44.60304" lon="2.58445">
        <ele>653.35</ele>
        <time>2012-05-19T06:24:18Z</time>
      </trkpt>
      <trkpt lat="44.60286" lon="2.58448">
        <ele>652.39</ele>
        <time>2012-05-19T06:24:34Z</time>
      </trkpt>
      <trkpt lat="44.60276" lon="2.58448">
        <ele>651.91</ele>
        <time>2012-05-19T06:24:50Z</time>
      </trkpt>
      <trkpt lat="44.60276" lon="2.58453">
        <ele>651.43</ele>
        <time>2012-05-19T06:25:06Z</time>
      </trkpt>
      <trkpt lat="44.60276" lon="2.58453">
        <ele>651.43</ele>
        <time>2012-05-19T06:25:36Z</time>
      </trkpt>
      <trkpt lat="44.60276" lon="2.58453">
        <ele>651.43</ele>
        <time>2012-05-19T06:26:10Z</time>
      </trkpt>
      <trkpt lat="44.60276" lon="2.58453">
        <ele>651.43</ele>
        <time>2012-05-19T06:26:38Z</time>
      </trkpt>
      <trkpt lat="44.60276" lon="2.58454">
        <ele>651.91</ele>
        <time>2012-05-19T06:26:54Z</time>
      </trkpt>
      <trkpt lat="44.6028" lon="2.58455">
        <ele>652.39</ele>
        <time>2012-05-19T06:26:58Z</time>
      </trkpt>
      <trkpt lat="44.60297" lon="2.58452">
        <ele>652.39</ele>
        <time>2012-05-19T06:27:13Z</time>
      </trkpt>
      <trkpt lat="44.60315" lon="2.58449">
        <ele>652.39</ele>
        <time>2012-05-19T06:27:27Z</time>
      </trkpt>
      <trkpt lat="44.60322" lon="2.58446">
        <ele>652.87</ele>
        <time>2012-05-19T06:27:36Z</time>
      </trkpt>
      <trkpt lat="44.60338" lon="2.58444">
        <ele>651.91</ele>
        <time>2012-05-19T06:27:48Z</time>
      </trkpt>
      <trkpt lat="44.60347" lon="2.58444">
        <ele>651.91</ele>
        <time>2012-05-19T06:28:02Z</time>
      </trkpt>
      <trkpt lat="44.60347" lon="2.58444">
        <ele>651.91</ele>
        <time>2012-05-19T06:28:06Z</time>
      </trkpt>
      <trkpt lat="44.60334" lon="2.58441">
        <ele>652.87</ele>
        <time>2012-05-19T06:28:19Z</time>
      </trkpt>
      <trkpt lat="44.60327" lon="2.58442">
        <ele>652.39</ele>
        <time>2012-05-19T06:28:27Z</time>
      </trkpt>
      <trkpt lat="44.60331" lon="2.58443">
        <ele>651.91</ele>
        <time>2012-05-19T06:28:31Z</time>
      </trkpt>
      <trkpt lat="44.6035" lon="2.58441">
        <ele>652.39</ele>
        <time>2012-05-19T06:28:48Z</time>
      </trkpt>
      <trkpt lat="44.60373" lon="2.58433">
        <ele>650.95</ele>
        <time>2012-05-19T06:29:07Z</time>
      </trkpt>
      <trkpt lat="44.6039" lon="2.58418">
        <ele>650.47</ele>
        <time>2012-05-19T06:29:23Z</time>
      </trkpt>
      <trkpt lat="44.60393" lon="2.58412">
        <ele>650.47</ele>
        <time>2012-05-19T06:29:33Z</time>
      </trkpt>
      <trkpt lat="44.60395" lon="2.58412">
        <ele>650.47</ele>
        <time>2012-05-19T06:29:39Z</time>
      </trkpt>
      <trkpt lat="44.60419" lon="2.58397">
        <ele>647.59</ele>
        <time>2012-05-19T06:29:58Z</time>
      </trkpt>
      <trkpt lat="44.60427" lon="2.58392">
        <ele>647.1</ele>
        <time>2012-05-19T06:30:05Z</time>
      </trkpt>
      <trkpt lat="44.60449" lon="2.58373">
        <ele>646.14</ele>
        <time>2012-05-19T06:30:26Z</time>
      </trkpt>
      <trkpt lat="44.6047" lon="2.58352">
        <ele>646.14</ele>
        <time>2012-05-19T06:30:46Z</time>
      </trkpt>
      <trkpt lat="44.60477" lon="2.58345">
        <ele>646.62</ele>
        <time>2012-05-19T06:30:52Z</time>
      </trkpt>
      <trkpt lat="44.60478" lon="2.58341">
        <ele>646.62</ele>
        <time>2012-05-19T06:30:54Z</time>
      </trkpt>
      <trkpt lat="44.60476" lon="2.58326">
        <ele>647.1</ele>
        <time>2012-05-19T06:31:03Z</time>
      </trkpt>
      <trkpt lat="44.6048" lon="2.58303">
        <ele>648.07</ele>
        <time>2012-05-19T06:31:18Z</time>
      </trkpt>
      <trkpt lat="44.60484" lon="2.58286">
        <ele>649.51</ele>
        <time>2012-05-19T06:31:30Z</time>
      </trkpt>
      <trkpt lat="44.60479" lon="2.58277">
        <ele>651.91</ele>
        <time>2012-05-19T06:31:45Z</time>
      </trkpt>
      <trkpt lat="44.60478" lon="2.58278">
        <ele>652.39</ele>
        <time>2012-05-19T06:31:47Z</time>
      </trkpt>
      <trkpt lat="44.60468" lon="2.58291">
        <ele>654.31</ele>
        <time>2012-05-19T06:32:03Z</time>
      </trkpt>
      <trkpt lat="44.60464" lon="2.58291">
        <ele>655.28</ele>
        <time>2012-05-19T06:32:09Z</time>
      </trkpt>
      <trkpt lat="44.60458" lon="2.58266">
        <ele>656.24</ele>
        <time>2012-05-19T06:32:25Z</time>
      </trkpt>
      <trkpt lat="44.60448" lon="2.58249">
        <ele>656.72</ele>
        <time>2012-05-19T06:32:42Z</time>
      </trkpt>
      <trkpt lat="44.60435" lon="2.58232">
        <ele>658.64</ele>
        <time>2012-05-19T06:32:59Z</time>
      </trkpt>
      <trkpt lat="44.60434" lon="2.58231">
        <ele>659.12</ele>
        <time>2012-05-19T06:33:22Z</time>
      </trkpt>
      <trkpt lat="44.60425" lon="2.58221">
        <ele>662.01</ele>
        <time>2012-05-19T06:33:37Z</time>
      </trkpt>
      <trkpt lat="44.60416" lon="2.58206">
        <ele>664.89</ele>
        <time>2012-05-19T06:33:53Z</time>
      </trkpt>
      <trkpt lat="44.60409" lon="2.58193">
        <ele>666.81</ele>
        <time>2012-05-19T06:34:09Z</time>
      </trkpt>
      <trkpt lat="44.60407" lon="2.58179">
        <ele>670.66</ele>
        <time>2012-05-19T06:34:26Z</time>
      </trkpt>
      <trkpt lat="44.60401" lon="2.58166">
        <ele>671.14</ele>
        <time>2012-05-19T06:34:41Z</time>
      </trkpt>
      <trkpt lat="44.60394" lon="2.58149">
        <ele>671.62</ele>
        <time>2012-05-19T06:34:59Z</time>
      </trkpt>
      <trkpt lat="44.60388" lon="2.58136">
        <ele>673.06</ele>
        <time>2012-05-19T06:35:10Z</time>
      </trkpt>
      <trkpt lat="44.60379" lon="2.58117">
        <ele>674.02</ele>
        <time>2012-05-19T06:35:27Z</time>
      </trkpt>
      <trkpt lat="44.60371" lon="2.58099">
        <ele>675.46</ele>
        <time>2012-05-19T06:35:44Z</time>
      </trkpt>
      <trkpt lat="44.60363" lon="2.58077">
        <ele>676.42</ele>
        <time>2012-05-19T06:36:01Z</time>
      </trkpt>
      <trkpt lat="44.60359" lon="2.58059">
        <ele>677.39</ele>
        <time>2012-05-19T06:36:16Z</time>
      </trkpt>
      <trkpt lat="44.60361" lon="2.58037">
        <ele>678.83</ele>
        <time>2012-05-19T06:36:30Z</time>
      </trkpt>
      <trkpt lat="44.60362" lon="2.5801">
        <ele>679.79</ele>
        <time>2012-05-19T06:36:47Z</time>
      </trkpt>
      <trkpt lat="44.60364" lon="2.57983">
        <ele>679.79</ele>
        <time>2012-05-19T06:37:03Z</time>
      </trkpt>
      <trkpt lat="44.60365" lon="2.57956">
        <ele>679.79</ele>
        <time>2012-05-19T06:37:19Z</time>
      </trkpt>
      <trkpt lat="44.6037" lon="2.57922">
        <ele>679.31</ele>
        <time>2012-05-19T06:37:39Z</time>
      </trkpt>
      <trkpt lat="44.60375" lon="2.57893">
        <ele>678.83</ele>
        <time>2012-05-19T06:37:56Z</time>
      </trkpt>
      <trkpt lat="44.60375" lon="2.57864">
        <ele>678.35</ele>
        <time>2012-05-19T06:38:13Z</time>
      </trkpt>
      <trkpt lat="44.60376" lon="2.57833">
        <ele>679.31</ele>
        <time>2012-05-19T06:38:31Z</time>
      </trkpt>
      <trkpt lat="44.60377" lon="2.57821">
        <ele>678.83</ele>
        <time>2012-05-19T06:38:38Z</time>
      </trkpt>
      <trkpt lat="44.60377" lon="2.57789">
        <ele>679.31</ele>
        <time>2012-05-19T06:38:56Z</time>
      </trkpt>
      <trkpt lat="44.60379" lon="2.57762">
        <ele>678.35</ele>
        <time>2012-05-19T06:39:12Z</time>
      </trkpt>
      <trkpt lat="44.60382" lon="2.57734">
        <ele>678.35</ele>
        <time>2012-05-19T06:39:30Z</time>
      </trkpt>
      <trkpt lat="44.60382" lon="2.57734">
        <ele>678.35</ele>
        <time>2012-05-19T06:40:04Z</time>
      </trkpt>
      <trkpt lat="44.60381" lon="2.57734">
        <ele>678.35</ele>
        <time>2012-05-19T06:40:25Z</time>
      </trkpt>
      <trkpt lat="44.60383" lon="2.57709">
        <ele>678.83</ele>
        <time>2012-05-19T06:40:40Z</time>
      </trkpt>
      <trkpt lat="44.60384" lon="2.57685">
        <ele>677.39</ele>
        <time>2012-05-19T06:40:54Z</time>
      </trkpt>
      <trkpt lat="44.60385" lon="2.57683">
        <ele>677.39</ele>
        <time>2012-05-19T06:40:55Z</time>
      </trkpt>
      <trkpt lat="44.60385" lon="2.57664">
        <ele>677.39</ele>
        <time>2012-05-19T06:41:07Z</time>
      </trkpt>
      <trkpt lat="44.60385" lon="2.57657">
        <ele>677.39</ele>
        <time>2012-05-19T06:41:11Z</time>
      </trkpt>
      <trkpt lat="44.60386" lon="2.57625">
        <ele>676.91</ele>
        <time>2012-05-19T06:41:30Z</time>
      </trkpt>
      <trkpt lat="44.60387" lon="2.57609">
        <ele>676.42</ele>
        <time>2012-05-19T06:41:39Z</time>
      </trkpt>
      <trkpt lat="44.60386" lon="2.57604">
        <ele>676.42</ele>
        <time>2012-05-19T06:41:42Z</time>
      </trkpt>
      <trkpt lat="44.60387" lon="2.57595">
        <ele>675.94</ele>
        <time>2012-05-19T06:41:47Z</time>
      </trkpt>
      <trkpt lat="44.60386" lon="2.57569">
        <ele>676.42</ele>
        <time>2012-05-19T06:42:03Z</time>
      </trkpt>
      <trkpt lat="44.60385" lon="2.5754">
        <ele>674.98</ele>
        <time>2012-05-19T06:42:20Z</time>
      </trkpt>
      <trkpt lat="44.60379" lon="2.5751">
        <ele>675.46</ele>
        <time>2012-05-19T06:42:39Z</time>
      </trkpt>
      <trkpt lat="44.60376" lon="2.57483">
        <ele>676.42</ele>
        <time>2012-05-19T06:42:55Z</time>
      </trkpt>
      <trkpt lat="44.60374" lon="2.57473">
        <ele>676.91</ele>
        <time>2012-05-19T06:43:02Z</time>
      </trkpt>
      <trkpt lat="44.60376" lon="2.57445">
        <ele>677.87</ele>
        <time>2012-05-19T06:43:19Z</time>
      </trkpt>
      <trkpt lat="44.60375" lon="2.57426">
        <ele>677.87</ele>
        <time>2012-05-19T06:43:31Z</time>
      </trkpt>
      <trkpt lat="44.60374" lon="2.57423">
        <ele>677.87</ele>
        <time>2012-05-19T06:43:33Z</time>
      </trkpt>
      <trkpt lat="44.60373" lon="2.57416">
        <ele>677.39</ele>
        <time>2012-05-19T06:43:39Z</time>
      </trkpt>
      <trkpt lat="44.6037" lon="2.57392">
        <ele>674.98</ele>
        <time>2012-05-19T06:43:54Z</time>
      </trkpt>
      <trkpt lat="44.6037" lon="2.57387">
        <ele>674.98</ele>
        <time>2012-05-19T06:43:57Z</time>
      </trkpt>
      <trkpt lat="44.60369" lon="2.57383">
        <ele>674.02</ele>
        <time>2012-05-19T06:44:00Z</time>
      </trkpt>
      <trkpt lat="44.60371" lon="2.57355">
        <ele>672.58</ele>
        <time>2012-05-19T06:44:15Z</time>
      </trkpt>
      <trkpt lat="44.60374" lon="2.57329">
        <ele>672.58</ele>
        <time>2012-05-19T06:44:31Z</time>
      </trkpt>
      <trkpt lat="44.60374" lon="2.573">
        <ele>673.06</ele>
        <time>2012-05-19T06:44:47Z</time>
      </trkpt>
      <trkpt lat="44.60373" lon="2.57297">
        <ele>673.06</ele>
        <time>2012-05-19T06:44:49Z</time>
      </trkpt>
      <trkpt lat="44.60373" lon="2.57266">
        <ele>675.46</ele>
        <time>2012-05-19T06:45:07Z</time>
      </trkpt>
      <trkpt lat="44.60375" lon="2.57253">
        <ele>675.46</ele>
        <time>2012-05-19T06:45:15Z</time>
      </trkpt>
      <trkpt lat="44.60375" lon="2.57231">
        <ele>676.91</ele>
        <time>2012-05-19T06:45:29Z</time>
      </trkpt>
      <trkpt lat="44.60375" lon="2.57222">
        <ele>676.91</ele>
        <time>2012-05-19T06:45:35Z</time>
      </trkpt>
      <trkpt lat="44.60386" lon="2.57193">
        <ele>675.46</ele>
        <time>2012-05-19T06:45:52Z</time>
      </trkpt>
      <trkpt lat="44.60388" lon="2.57188">
        <ele>674.5</ele>
        <time>2012-05-19T06:45:57Z</time>
      </trkpt>
      <trkpt lat="44.60389" lon="2.57182">
        <ele>673.06</ele>
        <time>2012-05-19T06:46:01Z</time>
      </trkpt>
      <trkpt lat="44.60397" lon="2.57166">
        <ele>668.73</ele>
        <time>2012-05-19T06:46:16Z</time>
      </trkpt>
      <trkpt lat="44.60398" lon="2.57163">
        <ele>667.77</ele>
        <time>2012-05-19T06:46:21Z</time>
      </trkpt>
      <trkpt lat="44.60398" lon="2.57157">
        <ele>666.81</ele>
        <time>2012-05-19T06:46:25Z</time>
      </trkpt>
      <trkpt lat="44.60388" lon="2.57133">
        <ele>663.93</ele>
        <time>2012-05-19T06:46:41Z</time>
      </trkpt>
      <trkpt lat="44.60376" lon="2.57113">
        <ele>661.04</ele>
        <time>2012-05-19T06:46:58Z</time>
      </trkpt>
      <trkpt lat="44.60373" lon="2.57109">
        <ele>660.08</ele>
        <time>2012-05-19T06:47:01Z</time>
      </trkpt>
      <trkpt lat="44.60368" lon="2.57105">
        <ele>659.6</ele>
        <time>2012-05-19T06:47:07Z</time>
      </trkpt>
      <trkpt lat="44.60355" lon="2.5709">
        <ele>657.68</ele>
        <time>2012-05-19T06:47:22Z</time>
      </trkpt>
      <trkpt lat="44.60355" lon="2.57089">
        <ele>657.2</ele>
        <time>2012-05-19T06:47:43Z</time>
      </trkpt>
      <trkpt lat="44.60355" lon="2.57089">
        <ele>657.2</ele>
        <time>2012-05-19T06:48:23Z</time>
      </trkpt>
      <trkpt lat="44.60355" lon="2.57089">
        <ele>657.2</ele>
        <time>2012-05-19T06:48:28Z</time>
      </trkpt>
      <trkpt lat="44.60342" lon="2.57074">
        <ele>654.8</ele>
        <time>2012-05-19T06:48:44Z</time>
      </trkpt>
      <trkpt lat="44.60334" lon="2.57064">
        <ele>652.39</ele>
        <time>2012-05-19T06:48:53Z</time>
      </trkpt>
      <trkpt lat="44.60329" lon="2.57036">
        <ele>650.95</ele>
        <time>2012-05-19T06:49:10Z</time>
      </trkpt>
      <trkpt lat="44.60328" lon="2.57004">
        <ele>649.51</ele>
        <time>2012-05-19T06:49:29Z</time>
      </trkpt>
      <trkpt lat="44.6033" lon="2.56976">
        <ele>649.03</ele>
        <time>2012-05-19T06:49:46Z</time>
      </trkpt>
      <trkpt lat="44.60331" lon="2.56971">
        <ele>649.03</ele>
        <time>2012-05-19T06:49:49Z</time>
      </trkpt>
      <trkpt lat="44.60331" lon="2.56965">
        <ele>649.99</ele>
        <time>2012-05-19T06:49:53Z</time>
      </trkpt>
      <trkpt lat="44.60332" lon="2.56951">
        <ele>650.95</ele>
        <time>2012-05-19T06:50:01Z</time>
      </trkpt>
      <trkpt lat="44.60339" lon="2.56933">
        <ele>649.99</ele>
        <time>2012-05-19T06:50:16Z</time>
      </trkpt>
      <trkpt lat="44.60344" lon="2.56915">
        <ele>650.47</ele>
        <time>2012-05-19T06:50:33Z</time>
      </trkpt>
      <trkpt lat="44.60352" lon="2.56886">
        <ele>650.47</ele>
        <time>2012-05-19T06:50:51Z</time>
      </trkpt>
      <trkpt lat="44.60353" lon="2.56881">
        <ele>649.99</ele>
        <time>2012-05-19T06:50:54Z</time>
      </trkpt>
      <trkpt lat="44.60359" lon="2.56858">
        <ele>648.55</ele>
        <time>2012-05-19T06:51:09Z</time>
      </trkpt>
      <trkpt lat="44.60368" lon="2.56829">
        <ele>647.59</ele>
        <time>2012-05-19T06:51:28Z</time>
      </trkpt>
      <trkpt lat="44.60369" lon="2.56822">
        <ele>647.59</ele>
        <time>2012-05-19T06:51:33Z</time>
      </trkpt>
      <trkpt lat="44.6037" lon="2.56812">
        <ele>648.07</ele>
        <time>2012-05-19T06:51:39Z</time>
      </trkpt>
      <trkpt lat="44.60374" lon="2.56779">
        <ele>645.18</ele>
        <time>2012-05-19T06:51:58Z</time>
      </trkpt>
      <trkpt lat="44.60374" lon="2.56747">
        <ele>644.7</ele>
        <time>2012-05-19T06:52:16Z</time>
      </trkpt>
      <trkpt lat="44.60373" lon="2.56713">
        <ele>644.22</ele>
        <time>2012-05-19T06:52:35Z</time>
      </trkpt>
      <trkpt lat="44.6037" lon="2.56684">
        <ele>644.7</ele>
        <time>2012-05-19T06:52:52Z</time>
      </trkpt>
      <trkpt lat="44.6037" lon="2.56676">
        <ele>644.22</ele>
        <time>2012-05-19T06:53:04Z</time>
      </trkpt>
      <trkpt lat="44.60369" lon="2.56668">
        <ele>644.22</ele>
        <time>2012-05-19T06:53:30Z</time>
      </trkpt>
      <trkpt lat="44.60368" lon="2.56636">
        <ele>643.26</ele>
        <time>2012-05-19T06:53:47Z</time>
      </trkpt>
      <trkpt lat="44.60366" lon="2.56604">
        <ele>642.78</ele>
        <time>2012-05-19T06:54:05Z</time>
      </trkpt>
      <trkpt lat="44.60364" lon="2.56575">
        <ele>642.3</ele>
        <time>2012-05-19T06:54:21Z</time>
      </trkpt>
      <trkpt lat="44.60362" lon="2.56546">
        <ele>642.78</ele>
        <time>2012-05-19T06:54:38Z</time>
      </trkpt>
      <trkpt lat="44.60363" lon="2.56527">
        <ele>642.3</ele>
        <time>2012-05-19T06:54:55Z</time>
      </trkpt>
      <trkpt lat="44.60363" lon="2.56527">
        <ele>642.3</ele>
        <time>2012-05-19T06:55:18Z</time>
      </trkpt>
      <trkpt lat="44.60363" lon="2.56527">
        <ele>642.3</ele>
        <time>2012-05-19T06:55:21Z</time>
      </trkpt>
      <trkpt lat="44.60362" lon="2.56519">
        <ele>642.3</ele>
        <time>2012-05-19T06:55:26Z</time>
      </trkpt>
      <trkpt lat="44.60366" lon="2.56489">
        <ele>641.82</ele>
        <time>2012-05-19T06:55:43Z</time>
      </trkpt>
      <trkpt lat="44.60376" lon="2.56455">
        <ele>642.3</ele>
        <time>2012-05-19T06:56:02Z</time>
      </trkpt>
      <trkpt lat="44.60388" lon="2.56422">
        <ele>642.78</ele>
        <time>2012-05-19T06:56:22Z</time>
      </trkpt>
      <trkpt lat="44.60399" lon="2.56394">
        <ele>643.26</ele>
        <time>2012-05-19T06:56:40Z</time>
      </trkpt>
      <trkpt lat="44.60409" lon="2.56365">
        <ele>641.82</ele>
        <time>2012-05-19T06:56:57Z</time>
      </trkpt>
      <trkpt lat="44.60413" lon="2.5633">
        <ele>641.34</ele>
        <time>2012-05-19T06:57:16Z</time>
      </trkpt>
      <trkpt lat="44.60411" lon="2.56299">
        <ele>643.26</ele>
        <time>2012-05-19T06:57:33Z</time>
      </trkpt>
      <trkpt lat="44.60406" lon="2.5627">
        <ele>645.18</ele>
        <time>2012-05-19T06:57:49Z</time>
      </trkpt>
      <trkpt lat="44.60402" lon="2.56256">
        <ele>647.59</ele>
        <time>2012-05-19T06:58:01Z</time>
      </trkpt>
      <trkpt lat="44.604" lon="2.56243">
        <ele>648.07</ele>
        <time>2012-05-19T06:58:08Z</time>
      </trkpt>
      <trkpt lat="44.60398" lon="2.56233">
        <ele>648.55</ele>
        <time>2012-05-19T06:58:14Z</time>
      </trkpt>
      <trkpt lat="44.60397" lon="2.56203">
        <ele>648.55</ele>
        <time>2012-05-19T06:58:30Z</time>
      </trkpt>
      <trkpt lat="44.60398" lon="2.56179">
        <ele>649.51</ele>
        <time>2012-05-19T06:58:43Z</time>
      </trkpt>
      <trkpt lat="44.60398" lon="2.56162">
        <ele>649.99</ele>
        <time>2012-05-19T06:58:53Z</time>
      </trkpt>
      <trkpt lat="44.60397" lon="2.56139">
        <ele>647.59</ele>
        <time>2012-05-19T06:59:07Z</time>
      </trkpt>
      <trkpt lat="44.60402" lon="2.56137">
        <ele>647.1</ele>
        <time>2012-05-19T06:59:12Z</time>
      </trkpt>
      <trkpt lat="44.60403" lon="2.5614">
        <ele>645.66</ele>
        <time>2012-05-19T06:59:25Z</time>
      </trkpt>
      <trkpt lat="44.60402" lon="2.56146">
        <ele>644.7</ele>
        <time>2012-05-19T06:59:41Z</time>
      </trkpt>
      <trkpt lat="44.60394" lon="2.56145">
        <ele>644.22</ele>
        <time>2012-05-19T06:59:55Z</time>
      </trkpt>
      <trkpt lat="44.60394" lon="2.56145">
        <ele>644.22</ele>
        <time>2012-05-19T07:00:27Z</time>
      </trkpt>
      <trkpt lat="44.60393" lon="2.56145">
        <ele>644.7</ele>
        <time>2012-05-19T07:00:51Z</time>
      </trkpt>
      <trkpt lat="44.60393" lon="2.56145">
        <ele>645.18</ele>
        <time>2012-05-19T07:01:20Z</time>
      </trkpt>
      <trkpt lat="44.60393" lon="2.56145">
        <ele>645.18</ele>
        <time>2012-05-19T07:01:54Z</time>
      </trkpt>
      <trkpt lat="44.60393" lon="2.56145">
        <ele>645.18</ele>
        <time>2012-05-19T07:02:29Z</time>
      </trkpt>
      <trkpt lat="44.60393" lon="2.56145">
        <ele>645.18</ele>
        <time>2012-05-19T07:02:54Z</time>
      </trkpt>
      <trkpt lat="44.60393" lon="2.56145">
        <ele>645.66</ele>
        <time>2012-05-19T07:03:24Z</time>
      </trkpt>
      <trkpt lat="44.60393" lon="2.56145">
        <ele>645.66</ele>
        <time>2012-05-19T07:03:50Z</time>
      </trkpt>
      <trkpt lat="44.60393" lon="2.56145">
        <ele>645.66</ele>
        <time>2012-05-19T07:04:05Z</time>
      </trkpt>
      <trkpt lat="44.60393" lon="2.56144">
        <ele>645.66</ele>
        <time>2012-05-19T07:04:19Z</time>
      </trkpt>
      <trkpt lat="44.60393" lon="2.56144">
        <ele>646.14</ele>
        <time>2012-05-19T07:04:38Z</time>
      </trkpt>
      <trkpt lat="44.60402" lon="2.56121">
        <ele>646.62</ele>
        <time>2012-05-19T07:04:54Z</time>
      </trkpt>
      <trkpt lat="44.60409" lon="2.56097">
        <ele>648.07</ele>
        <time>2012-05-19T07:05:10Z</time>
      </trkpt>
      <trkpt lat="44.60412" lon="2.56068">
        <ele>649.03</ele>
        <time>2012-05-19T07:05:27Z</time>
      </trkpt>
      <trkpt lat="44.60413" lon="2.56042">
        <ele>649.51</ele>
        <time>2012-05-19T07:05:42Z</time>
      </trkpt>
      <trkpt lat="44.60413" lon="2.56019">
        <ele>649.99</ele>
        <time>2012-05-19T07:05:56Z</time>
      </trkpt>
      <trkpt lat="44.60413" lon="2.55992">
        <ele>650.95</ele>
        <time>2012-05-19T07:06:12Z</time>
      </trkpt>
      <trkpt lat="44.60413" lon="2.55964">
        <ele>652.87</ele>
        <time>2012-05-19T07:06:29Z</time>
      </trkpt>
      <trkpt lat="44.60414" lon="2.55936">
        <ele>656.24</ele>
        <time>2012-05-19T07:06:45Z</time>
      </trkpt>
      <trkpt lat="44.60416" lon="2.55909">
        <ele>658.16</ele>
        <time>2012-05-19T07:07:01Z</time>
      </trkpt>
      <trkpt lat="44.60416" lon="2.55892">
        <ele>658.64</ele>
        <time>2012-05-19T07:07:16Z</time>
      </trkpt>
      <trkpt lat="44.60416" lon="2.5589">
        <ele>658.64</ele>
        <time>2012-05-19T07:07:17Z</time>
      </trkpt>
      <trkpt lat="44.60427" lon="2.55864">
        <ele>655.28</ele>
        <time>2012-05-19T07:07:34Z</time>
      </trkpt>
      <trkpt lat="44.60441" lon="2.5584">
        <ele>654.31</ele>
        <time>2012-05-19T07:07:53Z</time>
      </trkpt>
      <trkpt lat="44.60452" lon="2.55829">
        <ele>653.83</ele>
        <time>2012-05-19T07:08:05Z</time>
      </trkpt>
      <trkpt lat="44.60461" lon="2.55823">
        <ele>653.83</ele>
        <time>2012-05-19T07:08:14Z</time>
      </trkpt>
      <trkpt lat="44.60464" lon="2.55821">
        <ele>654.31</ele>
        <time>2012-05-19T07:08:17Z</time>
      </trkpt>
      <trkpt lat="44.60485" lon="2.55814">
        <ele>654.8</ele>
        <time>2012-05-19T07:08:35Z</time>
      </trkpt>
      <trkpt lat="44.60509" lon="2.55802">
        <ele>652.87</ele>
        <time>2012-05-19T07:08:56Z</time>
      </trkpt>
      <trkpt lat="44.60523" lon="2.55796">
        <ele>652.87</ele>
        <time>2012-05-19T07:09:08Z</time>
      </trkpt>
      <trkpt lat="44.60529" lon="2.55792">
        <ele>652.39</ele>
        <time>2012-05-19T07:09:24Z</time>
      </trkpt>
      <trkpt lat="44.60529" lon="2.55792">
        <ele>652.39</ele>
        <time>2012-05-19T07:09:54Z</time>
      </trkpt>
      <trkpt lat="44.60529" lon="2.55791">
        <ele>651.91</ele>
        <time>2012-05-19T07:10:11Z</time>
      </trkpt>
      <trkpt lat="44.60545" lon="2.55782">
        <ele>651.43</ele>
        <time>2012-05-19T07:10:25Z</time>
      </trkpt>
      <trkpt lat="44.60561" lon="2.55777">
        <ele>650.95</ele>
        <time>2012-05-19T07:10:39Z</time>
      </trkpt>
      <trkpt lat="44.60581" lon="2.55766">
        <ele>649.51</ele>
        <time>2012-05-19T07:10:56Z</time>
      </trkpt>
      <trkpt lat="44.60581" lon="2.55761">
        <ele>649.51</ele>
        <time>2012-05-19T07:11:01Z</time>
      </trkpt>
      <trkpt lat="44.60582" lon="2.55758">
        <ele>649.51</ele>
        <time>2012-05-19T07:11:18Z</time>
      </trkpt>
      <trkpt lat="44.60575" lon="2.5574">
        <ele>650.47</ele>
        <time>2012-05-19T07:11:31Z</time>
      </trkpt>
      <trkpt lat="44.60572" lon="2.55734">
        <ele>649.99</ele>
        <time>2012-05-19T07:11:35Z</time>
      </trkpt>
      <trkpt lat="44.60572" lon="2.55725">
        <ele>649.51</ele>
        <time>2012-05-19T07:11:41Z</time>
      </trkpt>
      <trkpt lat="44.60577" lon="2.55709">
        <ele>647.59</ele>
        <time>2012-05-19T07:11:51Z</time>
      </trkpt>
      <trkpt lat="44.60584" lon="2.55691">
        <ele>642.78</ele>
        <time>2012-05-19T07:12:03Z</time>
      </trkpt>
      <trkpt lat="44.60582" lon="2.55684">
        <ele>641.34</ele>
        <time>2012-05-19T07:12:08Z</time>
      </trkpt>
      <trkpt lat="44.60559" lon="2.55674">
        <ele>636.05</ele>
        <time>2012-05-19T07:12:26Z</time>
      </trkpt>
      <trkpt lat="44.60549" lon="2.55652">
        <ele>636.05</ele>
        <time>2012-05-19T07:12:41Z</time>
      </trkpt>
      <trkpt lat="44.60542" lon="2.55626">
        <ele>637.01</ele>
        <time>2012-05-19T07:12:56Z</time>
      </trkpt>
      <trkpt lat="44.60537" lon="2.55615">
        <ele>637.01</ele>
        <time>2012-05-19T07:13:03Z</time>
      </trkpt>
      <trkpt lat="44.60533" lon="2.55596">
        <ele>637.97</ele>
        <time>2012-05-19T07:13:16Z</time>
      </trkpt>
      <trkpt lat="44.60527" lon="2.55576">
        <ele>637.97</ele>
        <time>2012-05-19T07:13:32Z</time>
      </trkpt>
      <trkpt lat="44.60526" lon="2.55573">
        <ele>638.45</ele>
        <time>2012-05-19T07:13:35Z</time>
      </trkpt>
      <trkpt lat="44.60524" lon="2.55569">
        <ele>638.93</ele>
        <time>2012-05-19T07:13:38Z</time>
      </trkpt>
      <trkpt lat="44.60518" lon="2.55543">
        <ele>643.26</ele>
        <time>2012-05-19T07:13:56Z</time>
      </trkpt>
      <trkpt lat="44.60514" lon="2.55521">
        <ele>646.14</ele>
        <time>2012-05-19T07:14:10Z</time>
      </trkpt>
      <trkpt lat="44.60508" lon="2.55496">
        <ele>649.03</ele>
        <time>2012-05-19T07:14:26Z</time>
      </trkpt>
      <trkpt lat="44.60503" lon="2.55471">
        <ele>643.74</ele>
        <time>2012-05-19T07:14:42Z</time>
      </trkpt>
      <trkpt lat="44.605" lon="2.55447">
        <ele>637.49</ele>
        <time>2012-05-19T07:14:58Z</time>
      </trkpt>
      <trkpt lat="44.6049" lon="2.55426">
        <ele>630.28</ele>
        <time>2012-05-19T07:15:13Z</time>
      </trkpt>
      <trkpt lat="44.60484" lon="2.55407">
        <ele>627.4</ele>
        <time>2012-05-19T07:15:28Z</time>
      </trkpt>
      <trkpt lat="44.60479" lon="2.55385">
        <ele>625.96</ele>
        <time>2012-05-19T07:15:46Z</time>
      </trkpt>
      <trkpt lat="44.60477" lon="2.55381">
        <ele>624.51</ele>
        <time>2012-05-19T07:15:53Z</time>
      </trkpt>
      <trkpt lat="44.60475" lon="2.55366">
        <ele>621.15</ele>
        <time>2012-05-19T07:16:06Z</time>
      </trkpt>
      <trkpt lat="44.60473" lon="2.55354">
        <ele>618.26</ele>
        <time>2012-05-19T07:16:19Z</time>
      </trkpt>
      <trkpt lat="44.6047" lon="2.55343">
        <ele>617.78</ele>
        <time>2012-05-19T07:16:28Z</time>
      </trkpt>
      <trkpt lat="44.6046" lon="2.55323">
        <ele>617.3</ele>
        <time>2012-05-19T07:16:43Z</time>
      </trkpt>
      <trkpt lat="44.60449" lon="2.55307">
        <ele>613.46</ele>
        <time>2012-05-19T07:16:57Z</time>
      </trkpt>
      <trkpt lat="44.60435" lon="2.55295">
        <ele>612.5</ele>
        <time>2012-05-19T07:17:11Z</time>
      </trkpt>
      <trkpt lat="44.60421" lon="2.55285">
        <ele>612.5</ele>
        <time>2012-05-19T07:17:25Z</time>
      </trkpt>
      <trkpt lat="44.60412" lon="2.5528">
        <ele>611.06</ele>
        <time>2012-05-19T07:17:37Z</time>
      </trkpt>
      <trkpt lat="44.60408" lon="2.55262">
        <ele>609.61</ele>
        <time>2012-05-19T07:17:52Z</time>
      </trkpt>
      <trkpt lat="44.60408" lon="2.55256">
        <ele>609.61</ele>
        <time>2012-05-19T07:17:56Z</time>
      </trkpt>
      <trkpt lat="44.60413" lon="2.5523">
        <ele>612.02</ele>
        <time>2012-05-19T07:18:13Z</time>
      </trkpt>
      <trkpt lat="44.60415" lon="2.55226">
        <ele>611.54</ele>
        <time>2012-05-19T07:18:15Z</time>
      </trkpt>
      <trkpt lat="44.60418" lon="2.55219">
        <ele>610.57</ele>
        <time>2012-05-19T07:18:20Z</time>
      </trkpt>
      <trkpt lat="44.60426" lon="2.55209">
        <ele>609.13</ele>
        <time>2012-05-19T07:18:34Z</time>
      </trkpt>
      <trkpt lat="44.60432" lon="2.552">
        <ele>608.17</ele>
        <time>2012-05-19T07:18:43Z</time>
      </trkpt>
      <trkpt lat="44.60437" lon="2.55185">
        <ele>608.17</ele>
        <time>2012-05-19T07:18:55Z</time>
      </trkpt>
      <trkpt lat="44.60444" lon="2.55163">
        <ele>612.02</ele>
        <time>2012-05-19T07:19:11Z</time>
      </trkpt>
      <trkpt lat="44.60443" lon="2.55143">
        <ele>617.3</ele>
        <time>2012-05-19T07:19:26Z</time>
      </trkpt>
      <trkpt lat="44.60444" lon="2.55115">
        <ele>621.63</ele>
        <time>2012-05-19T07:19:44Z</time>
      </trkpt>
      <trkpt lat="44.60446" lon="2.55092">
        <ele>624.99</ele>
        <time>2012-05-19T07:20:00Z</time>
      </trkpt>
      <trkpt lat="44.60445" lon="2.55063">
        <ele>626.92</ele>
        <time>2012-05-19T07:20:15Z</time>
      </trkpt>
      <trkpt lat="44.60446" lon="2.55047">
        <ele>626.44</ele>
        <time>2012-05-19T07:20:23Z</time>
      </trkpt>
      <trkpt lat="44.60438" lon="2.5503">
        <ele>629.8</ele>
        <time>2012-05-19T07:20:38Z</time>
      </trkpt>
      <trkpt lat="44.60434" lon="2.5501">
        <ele>627.88</ele>
        <time>2012-05-19T07:20:51Z</time>
      </trkpt>
      <trkpt lat="44.60425" lon="2.55">
        <ele>624.03</ele>
        <time>2012-05-19T07:21:00Z</time>
      </trkpt>
      <trkpt lat="44.60408" lon="2.54987">
        <ele>618.26</ele>
        <time>2012-05-19T07:21:15Z</time>
      </trkpt>
      <trkpt lat="44.60391" lon="2.54976">
        <ele>613.94</ele>
        <time>2012-05-19T07:21:29Z</time>
      </trkpt>
      <trkpt lat="44.6037" lon="2.54969">
        <ele>609.13</ele>
        <time>2012-05-19T07:21:46Z</time>
      </trkpt>
      <trkpt lat="44.60361" lon="2.54965">
        <ele>608.17</ele>
        <time>2012-05-19T07:21:55Z</time>
      </trkpt>
      <trkpt lat="44.60345" lon="2.54954">
        <ele>609.13</ele>
        <time>2012-05-19T07:22:09Z</time>
      </trkpt>
      <trkpt lat="44.60342" lon="2.5495">
        <ele>610.57</ele>
        <time>2012-05-19T07:22:13Z</time>
      </trkpt>
      <trkpt lat="44.60338" lon="2.54944">
        <ele>612.02</ele>
        <time>2012-05-19T07:22:18Z</time>
      </trkpt>
      <trkpt lat="44.60336" lon="2.54941">
        <ele>612.5</ele>
        <time>2012-05-19T07:22:20Z</time>
      </trkpt>
      <trkpt lat="44.6033" lon="2.54919">
        <ele>617.3</ele>
        <time>2012-05-19T07:22:33Z</time>
      </trkpt>
      <trkpt lat="44.60325" lon="2.54892">
        <ele>618.26</ele>
        <time>2012-05-19T07:22:50Z</time>
      </trkpt>
      <trkpt lat="44.60324" lon="2.54867">
        <ele>615.86</ele>
        <time>2012-05-19T07:23:06Z</time>
      </trkpt>
      <trkpt lat="44.6032" lon="2.54839">
        <ele>613.46</ele>
        <time>2012-05-19T07:23:21Z</time>
      </trkpt>
      <trkpt lat="44.60312" lon="2.54817">
        <ele>612.02</ele>
        <time>2012-05-19T07:23:36Z</time>
      </trkpt>
      <trkpt lat="44.60307" lon="2.54797">
        <ele>610.57</ele>
        <time>2012-05-19T07:23:49Z</time>
      </trkpt>
      <trkpt lat="44.60299" lon="2.54767">
        <ele>609.61</ele>
        <time>2012-05-19T07:24:08Z</time>
      </trkpt>
      <trkpt lat="44.60291" lon="2.5474">
        <ele>607.21</ele>
        <time>2012-05-19T07:24:25Z</time>
      </trkpt>
      <trkpt lat="44.60281" lon="2.54716">
        <ele>608.65</ele>
        <time>2012-05-19T07:24:42Z</time>
      </trkpt>
      <trkpt lat="44.60281" lon="2.54707">
        <ele>608.65</ele>
        <time>2012-05-19T07:24:47Z</time>
      </trkpt>
      <trkpt lat="44.60283" lon="2.54692">
        <ele>607.21</ele>
        <time>2012-05-19T07:24:56Z</time>
      </trkpt>
      <trkpt lat="44.60275" lon="2.54671">
        <ele>604.81</ele>
        <time>2012-05-19T07:25:10Z</time>
      </trkpt>
      <trkpt lat="44.60263" lon="2.54654">
        <ele>603.85</ele>
        <time>2012-05-19T07:25:24Z</time>
      </trkpt>
      <trkpt lat="44.60262" lon="2.54651">
        <ele>603.85</ele>
        <time>2012-05-19T07:25:26Z</time>
      </trkpt>
      <trkpt lat="44.60251" lon="2.54631">
        <ele>603.36</ele>
        <time>2012-05-19T07:25:42Z</time>
      </trkpt>
      <trkpt lat="44.60236" lon="2.54611">
        <ele>600.96</ele>
        <time>2012-05-19T07:25:57Z</time>
      </trkpt>
      <trkpt lat="44.60217" lon="2.54597">
        <ele>598.08</ele>
        <time>2012-05-19T07:26:13Z</time>
      </trkpt>
      <trkpt lat="44.60197" lon="2.54595">
        <ele>599.52</ele>
        <time>2012-05-19T07:26:29Z</time>
      </trkpt>
      <trkpt lat="44.60178" lon="2.54604">
        <ele>600.48</ele>
        <time>2012-05-19T07:26:46Z</time>
      </trkpt>
      <trkpt lat="44.6016" lon="2.54605">
        <ele>599.04</ele>
        <time>2012-05-19T07:27:05Z</time>
      </trkpt>
      <trkpt lat="44.60146" lon="2.54593">
        <ele>600</ele>
        <time>2012-05-19T07:27:23Z</time>
      </trkpt>
      <trkpt lat="44.60133" lon="2.54582">
        <ele>601.44</ele>
        <time>2012-05-19T07:27:39Z</time>
      </trkpt>
      <trkpt lat="44.60117" lon="2.5457">
        <ele>603.85</ele>
        <time>2012-05-19T07:27:57Z</time>
      </trkpt>
      <trkpt lat="44.60102" lon="2.54556">
        <ele>605.29</ele>
        <time>2012-05-19T07:28:12Z</time>
      </trkpt>
      <trkpt lat="44.60102" lon="2.54532">
        <ele>603.85</ele>
        <time>2012-05-19T07:28:28Z</time>
      </trkpt>
      <trkpt lat="44.60105" lon="2.54509">
        <ele>605.29</ele>
        <time>2012-05-19T07:28:42Z</time>
      </trkpt>
      <trkpt lat="44.60106" lon="2.54482">
        <ele>605.29</ele>
        <time>2012-05-19T07:28:59Z</time>
      </trkpt>
      <trkpt lat="44.60107" lon="2.54457">
        <ele>606.25</ele>
        <time>2012-05-19T07:29:15Z</time>
      </trkpt>
      <trkpt lat="44.60108" lon="2.54442">
        <ele>606.25</ele>
        <time>2012-05-19T07:29:25Z</time>
      </trkpt>
      <trkpt lat="44.60109" lon="2.54423">
        <ele>608.65</ele>
        <time>2012-05-19T07:29:39Z</time>
      </trkpt>
      <trkpt lat="44.60111" lon="2.54403">
        <ele>609.61</ele>
        <time>2012-05-19T07:29:54Z</time>
      </trkpt>
      <trkpt lat="44.60111" lon="2.54384">
        <ele>611.54</ele>
        <time>2012-05-19T07:30:08Z</time>
      </trkpt>
      <trkpt lat="44.60111" lon="2.54361">
        <ele>615.38</ele>
        <time>2012-05-19T07:30:25Z</time>
      </trkpt>
      <trkpt lat="44.60112" lon="2.5434">
        <ele>617.3</ele>
        <time>2012-05-19T07:30:41Z</time>
      </trkpt>
      <trkpt lat="44.60111" lon="2.54322">
        <ele>619.23</ele>
        <time>2012-05-19T07:30:53Z</time>
      </trkpt>
      <trkpt lat="44.6011" lon="2.54298">
        <ele>621.63</ele>
        <time>2012-05-19T07:31:09Z</time>
      </trkpt>
      <trkpt lat="44.60108" lon="2.54273">
        <ele>624.03</ele>
        <time>2012-05-19T07:31:25Z</time>
      </trkpt>
      <trkpt lat="44.60104" lon="2.54248">
        <ele>625.47</ele>
        <time>2012-05-19T07:31:41Z</time>
      </trkpt>
      <trkpt lat="44.601" lon="2.54223">
        <ele>625.96</ele>
        <time>2012-05-19T07:31:58Z</time>
      </trkpt>
      <trkpt lat="44.60095" lon="2.54201">
        <ele>626.92</ele>
        <time>2012-05-19T07:32:12Z</time>
      </trkpt>
      <trkpt lat="44.6009" lon="2.54173">
        <ele>626.92</ele>
        <time>2012-05-19T07:32:29Z</time>
      </trkpt>
      <trkpt lat="44.60084" lon="2.54145">
        <ele>626.92</ele>
        <time>2012-05-19T07:32:47Z</time>
      </trkpt>
      <trkpt lat="44.60084" lon="2.54144">
        <ele>626.92</ele>
        <time>2012-05-19T07:32:48Z</time>
      </trkpt>
      <trkpt lat="44.60083" lon="2.5414">
        <ele>626.92</ele>
        <time>2012-05-19T07:32:51Z</time>
      </trkpt>
      <trkpt lat="44.60081" lon="2.54118">
        <ele>628.84</ele>
        <time>2012-05-19T07:33:07Z</time>
      </trkpt>
      <trkpt lat="44.60079" lon="2.54093">
        <ele>629.32</ele>
        <time>2012-05-19T07:33:23Z</time>
      </trkpt>
      <trkpt lat="44.60079" lon="2.5408">
        <ele>629.32</ele>
        <time>2012-05-19T07:33:34Z</time>
      </trkpt>
      <trkpt lat="44.6008" lon="2.5406">
        <ele>631.24</ele>
        <time>2012-05-19T07:33:48Z</time>
      </trkpt>
      <trkpt lat="44.6008" lon="2.54056">
        <ele>631.72</ele>
        <time>2012-05-19T07:33:51Z</time>
      </trkpt>
      <trkpt lat="44.60077" lon="2.54033">
        <ele>633.65</ele>
        <time>2012-05-19T07:34:08Z</time>
      </trkpt>
      <trkpt lat="44.60074" lon="2.54015">
        <ele>635.09</ele>
        <time>2012-05-19T07:34:20Z</time>
      </trkpt>
      <trkpt lat="44.60074" lon="2.5401">
        <ele>635.09</ele>
        <time>2012-05-19T07:34:23Z</time>
      </trkpt>
      <trkpt lat="44.60067" lon="2.53985">
        <ele>634.13</ele>
        <time>2012-05-19T07:34:40Z</time>
      </trkpt>
      <trkpt lat="44.60058" lon="2.53965">
        <ele>638.45</ele>
        <time>2012-05-19T07:34:54Z</time>
      </trkpt>
      <trkpt lat="44.60046" lon="2.5394">
        <ele>638.93</ele>
        <time>2012-05-19T07:35:12Z</time>
      </trkpt>
      <trkpt lat="44.60035" lon="2.53919">
        <ele>638.45</ele>
        <time>2012-05-19T07:35:29Z</time>
      </trkpt>
      <trkpt lat="44.60023" lon="2.53899">
        <ele>640.38</ele>
        <time>2012-05-19T07:35:45Z</time>
      </trkpt>
      <trkpt lat="44.60012" lon="2.53877">
        <ele>640.86</ele>
        <time>2012-05-19T07:36:02Z</time>
      </trkpt>
      <trkpt lat="44.60003" lon="2.53853">
        <ele>642.3</ele>
        <time>2012-05-19T07:36:20Z</time>
      </trkpt>
      <trkpt lat="44.59994" lon="2.53832">
        <ele>642.78</ele>
        <time>2012-05-19T07:36:35Z</time>
      </trkpt>
      <trkpt lat="44.59985" lon="2.53808">
        <ele>642.3</ele>
        <time>2012-05-19T07:36:51Z</time>
      </trkpt>
      <trkpt lat="44.59977" lon="2.53789">
        <ele>642.78</ele>
        <time>2012-05-19T07:37:05Z</time>
      </trkpt>
      <trkpt lat="44.59968" lon="2.53767">
        <ele>644.7</ele>
        <time>2012-05-19T07:37:22Z</time>
      </trkpt>
      <trkpt lat="44.5996" lon="2.53745">
        <ele>646.62</ele>
        <time>2012-05-19T07:37:38Z</time>
      </trkpt>
      <trkpt lat="44.5996" lon="2.53724">
        <ele>647.59</ele>
        <time>2012-05-19T07:37:53Z</time>
      </trkpt>
      <trkpt lat="44.59962" lon="2.5372">
        <ele>647.59</ele>
        <time>2012-05-19T07:37:56Z</time>
      </trkpt>
      <trkpt lat="44.59977" lon="2.537">
        <ele>646.14</ele>
        <time>2012-05-19T07:38:14Z</time>
      </trkpt>
      <trkpt lat="44.59991" lon="2.53681">
        <ele>646.14</ele>
        <time>2012-05-19T07:38:30Z</time>
      </trkpt>
      <trkpt lat="44.60006" lon="2.53661">
        <ele>646.14</ele>
        <time>2012-05-19T07:38:47Z</time>
      </trkpt>
      <trkpt lat="44.60021" lon="2.53637">
        <ele>645.66</ele>
        <time>2012-05-19T07:39:06Z</time>
      </trkpt>
      <trkpt lat="44.60035" lon="2.53619">
        <ele>645.18</ele>
        <time>2012-05-19T07:39:23Z</time>
      </trkpt>
      <trkpt lat="44.60037" lon="2.53618">
        <ele>645.18</ele>
        <time>2012-05-19T07:39:36Z</time>
      </trkpt>
      <trkpt lat="44.60037" lon="2.53619">
        <ele>644.7</ele>
        <time>2012-05-19T07:40:16Z</time>
      </trkpt>
      <trkpt lat="44.60037" lon="2.53618">
        <ele>644.7</ele>
        <time>2012-05-19T07:40:54Z</time>
      </trkpt>
      <trkpt lat="44.60037" lon="2.53618">
        <ele>644.7</ele>
        <time>2012-05-19T07:41:34Z</time>
      </trkpt>
      <trkpt lat="44.60037" lon="2.53619">
        <ele>644.7</ele>
        <time>2012-05-19T07:42:08Z</time>
      </trkpt>
      <trkpt lat="44.60037" lon="2.53619">
        <ele>644.7</ele>
        <time>2012-05-19T07:42:41Z</time>
      </trkpt>
      <trkpt lat="44.60037" lon="2.53618">
        <ele>645.18</ele>
        <time>2012-05-19T07:43:08Z</time>
      </trkpt>
      <trkpt lat="44.60037" lon="2.53618">
        <ele>645.18</ele>
        <time>2012-05-19T07:43:40Z</time>
      </trkpt>
      <trkpt lat="44.60037" lon="2.53618">
        <ele>645.18</ele>
        <time>2012-05-19T07:44:12Z</time>
      </trkpt>
      <trkpt lat="44.60037" lon="2.53618">
        <ele>645.18</ele>
        <time>2012-05-19T07:44:34Z</time>
      </trkpt>
      <trkpt lat="44.60037" lon="2.53619">
        <ele>645.18</ele>
        <time>2012-05-19T07:44:54Z</time>
      </trkpt>
      <trkpt lat="44.60037" lon="2.53619">
        <ele>645.18</ele>
        <time>2012-05-19T07:45:13Z</time>
      </trkpt>
      <trkpt lat="44.60037" lon="2.53618">
        <ele>645.18</ele>
        <time>2012-05-19T07:45:44Z</time>
      </trkpt>
      <trkpt lat="44.60037" lon="2.53618">
        <ele>645.18</ele>
        <time>2012-05-19T07:46:05Z</time>
      </trkpt>
      <trkpt lat="44.60037" lon="2.53619">
        <ele>645.18</ele>
        <time>2012-05-19T07:46:25Z</time>
      </trkpt>
      <trkpt lat="44.60037" lon="2.53619">
        <ele>645.18</ele>
        <time>2012-05-19T07:46:48Z</time>
      </trkpt>
      <trkpt lat="44.60032" lon="2.53612">
        <ele>645.18</ele>
        <time>2012-05-19T07:47:02Z</time>
      </trkpt>
      <trkpt lat="44.60031" lon="2.53611">
        <ele>645.18</ele>
        <time>2012-05-19T07:47:17Z</time>
      </trkpt>
      <trkpt lat="44.60018" lon="2.53596">
        <ele>645.66</ele>
        <time>2012-05-19T07:47:32Z</time>
      </trkpt>
      <trkpt lat="44.60027" lon="2.53608">
        <ele>645.66</ele>
        <time>2012-05-19T07:47:43Z</time>
      </trkpt>
      <trkpt lat="44.60037" lon="2.53619">
        <ele>646.14</ele>
        <time>2012-05-19T07:47:55Z</time>
      </trkpt>
      <trkpt lat="44.60025" lon="2.53605">
        <ele>647.1</ele>
        <time>2012-05-19T07:48:10Z</time>
      </trkpt>
      <trkpt lat="44.60011" lon="2.53583">
        <ele>645.18</ele>
        <time>2012-05-19T07:48:27Z</time>
      </trkpt>
      <trkpt lat="44.6" lon="2.53561">
        <ele>643.26</ele>
        <time>2012-05-19T07:48:45Z</time>
      </trkpt>
      <trkpt lat="44.6" lon="2.5356">
        <ele>643.26</ele>
        <time>2012-05-19T07:48:46Z</time>
      </trkpt>
      <trkpt lat="44.60002" lon="2.53545">
        <ele>641.82</ele>
        <time>2012-05-19T07:48:59Z</time>
      </trkpt>
      <trkpt lat="44.60014" lon="2.53524">
        <ele>638.45</ele>
        <time>2012-05-19T07:49:16Z</time>
      </trkpt>
      <trkpt lat="44.60027" lon="2.53501">
        <ele>634.61</ele>
        <time>2012-05-19T07:49:33Z</time>
      </trkpt>
      <trkpt lat="44.60032" lon="2.53486">
        <ele>633.65</ele>
        <time>2012-05-19T07:49:48Z</time>
      </trkpt>
      <trkpt lat="44.60032" lon="2.53482">
        <ele>633.65</ele>
        <time>2012-05-19T07:50:06Z</time>
      </trkpt>
      <trkpt lat="44.60037" lon="2.53456">
        <ele>632.2</ele>
        <time>2012-05-19T07:50:22Z</time>
      </trkpt>
      <trkpt lat="44.60043" lon="2.53428">
        <ele>629.32</ele>
        <time>2012-05-19T07:50:39Z</time>
      </trkpt>
      <trkpt lat="44.60047" lon="2.53404">
        <ele>628.36</ele>
        <time>2012-05-19T07:50:55Z</time>
      </trkpt>
      <trkpt lat="44.6005" lon="2.53384">
        <ele>626.44</ele>
        <time>2012-05-19T07:51:06Z</time>
      </trkpt>
      <trkpt lat="44.60051" lon="2.53369">
        <ele>624.99</ele>
        <time>2012-05-19T07:51:20Z</time>
      </trkpt>
      <trkpt lat="44.60052" lon="2.53345">
        <ele>622.11</ele>
        <time>2012-05-19T07:51:36Z</time>
      </trkpt>
      <trkpt lat="44.60051" lon="2.53333">
        <ele>621.15</ele>
        <time>2012-05-19T07:51:45Z</time>
      </trkpt>
      <trkpt lat="44.60055" lon="2.53309">
        <ele>619.23</ele>
        <time>2012-05-19T07:52:00Z</time>
      </trkpt>
      <trkpt lat="44.60052" lon="2.53294">
        <ele>619.23</ele>
        <time>2012-05-19T07:52:10Z</time>
      </trkpt>
      <trkpt lat="44.60041" lon="2.53289">
        <ele>617.3</ele>
        <time>2012-05-19T07:52:20Z</time>
      </trkpt>
      <trkpt lat="44.6003" lon="2.53305">
        <ele>615.38</ele>
        <time>2012-05-19T07:52:36Z</time>
      </trkpt>
      <trkpt lat="44.60016" lon="2.53323">
        <ele>614.42</ele>
        <time>2012-05-19T07:52:53Z</time>
      </trkpt>
      <trkpt lat="44.60004" lon="2.53337">
        <ele>613.46</ele>
        <time>2012-05-19T07:53:07Z</time>
      </trkpt>
      <trkpt lat="44.59991" lon="2.53357">
        <ele>612.98</ele>
        <time>2012-05-19T07:53:25Z</time>
      </trkpt>
      <trkpt lat="44.59974" lon="2.53371">
        <ele>612.5</ele>
        <time>2012-05-19T07:53:41Z</time>
      </trkpt>
      <trkpt lat="44.59957" lon="2.53381">
        <ele>611.06</ele>
        <time>2012-05-19T07:53:58Z</time>
      </trkpt>
      <trkpt lat="44.59947" lon="2.53387">
        <ele>609.13</ele>
        <time>2012-05-19T07:54:07Z</time>
      </trkpt>
      <trkpt lat="44.59941" lon="2.53386">
        <ele>607.21</ele>
        <time>2012-05-19T07:54:13Z</time>
      </trkpt>
      <trkpt lat="44.59939" lon="2.53382">
        <ele>605.77</ele>
        <time>2012-05-19T07:54:22Z</time>
      </trkpt>
      <trkpt lat="44.59949" lon="2.53365">
        <ele>601.44</ele>
        <time>2012-05-19T07:54:36Z</time>
      </trkpt>
      <trkpt lat="44.59952" lon="2.5336">
        <ele>600.96</ele>
        <time>2012-05-19T07:54:39Z</time>
      </trkpt>
      <trkpt lat="44.59962" lon="2.53344">
        <ele>599.04</ele>
        <time>2012-05-19T07:54:52Z</time>
      </trkpt>
      <trkpt lat="44.59963" lon="2.5334">
        <ele>598.56</ele>
        <time>2012-05-19T07:54:55Z</time>
      </trkpt>
      <trkpt lat="44.59971" lon="2.53316">
        <ele>595.67</ele>
        <time>2012-05-19T07:55:12Z</time>
      </trkpt>
      <trkpt lat="44.59978" lon="2.53287">
        <ele>593.27</ele>
        <time>2012-05-19T07:55:31Z</time>
      </trkpt>
      <trkpt lat="44.59982" lon="2.53258">
        <ele>591.83</ele>
        <time>2012-05-19T07:55:48Z</time>
      </trkpt>
      <trkpt lat="44.59983" lon="2.53253">
        <ele>591.83</ele>
        <time>2012-05-19T07:55:51Z</time>
      </trkpt>
      <trkpt lat="44.59987" lon="2.53217">
        <ele>589.43</ele>
        <time>2012-05-19T07:56:12Z</time>
      </trkpt>
      <trkpt lat="44.59991" lon="2.53188">
        <ele>588.46</ele>
        <time>2012-05-19T07:56:28Z</time>
      </trkpt>
      <trkpt lat="44.59994" lon="2.53162">
        <ele>583.18</ele>
        <time>2012-05-19T07:56:44Z</time>
      </trkpt>
      <trkpt lat="44.59997" lon="2.53128">
        <ele>582.7</ele>
        <time>2012-05-19T07:57:03Z</time>
      </trkpt>
      <trkpt lat="44.6" lon="2.53102">
        <ele>583.66</ele>
        <time>2012-05-19T07:57:19Z</time>
      </trkpt>
      <trkpt lat="44.60005" lon="2.53078">
        <ele>581.25</ele>
        <time>2012-05-19T07:57:33Z</time>
      </trkpt>
      <trkpt lat="44.60012" lon="2.53054">
        <ele>575.01</ele>
        <time>2012-05-19T07:57:48Z</time>
      </trkpt>
      <trkpt lat="44.60016" lon="2.53038">
        <ele>571.64</ele>
        <time>2012-05-19T07:57:58Z</time>
      </trkpt>
      <trkpt lat="44.60022" lon="2.53024">
        <ele>569.24</ele>
        <time>2012-05-19T07:58:08Z</time>
      </trkpt>
      <trkpt lat="44.60036" lon="2.52994">
        <ele>567.8</ele>
        <time>2012-05-19T07:58:28Z</time>
      </trkpt>
      <trkpt lat="44.60047" lon="2.52981">
        <ele>566.83</ele>
        <time>2012-05-19T07:58:40Z</time>
      </trkpt>
      <trkpt lat="44.60068" lon="2.52959">
        <ele>561.55</ele>
        <time>2012-05-19T07:59:00Z</time>
      </trkpt>
      <trkpt lat="44.60084" lon="2.5294">
        <ele>561.07</ele>
        <time>2012-05-19T07:59:18Z</time>
      </trkpt>
      <trkpt lat="44.60101" lon="2.52925">
        <ele>558.66</ele>
        <time>2012-05-19T07:59:34Z</time>
      </trkpt>
      <trkpt lat="44.60109" lon="2.52916">
        <ele>557.7</ele>
        <time>2012-05-19T07:59:42Z</time>
      </trkpt>
      <trkpt lat="44.60112" lon="2.52911">
        <ele>557.7</ele>
        <time>2012-05-19T07:59:46Z</time>
      </trkpt>
      <trkpt lat="44.60129" lon="2.52891">
        <ele>552.9</ele>
        <time>2012-05-19T08:00:04Z</time>
      </trkpt>
      <trkpt lat="44.60134" lon="2.52885">
        <ele>551.45</ele>
        <time>2012-05-19T08:00:09Z</time>
      </trkpt>
      <trkpt lat="44.60149" lon="2.5287">
        <ele>549.05</ele>
        <time>2012-05-19T08:00:25Z</time>
      </trkpt>
      <trkpt lat="44.60154" lon="2.52868">
        <ele>548.57</ele>
        <time>2012-05-19T08:00:29Z</time>
      </trkpt>
      <trkpt lat="44.60169" lon="2.52859">
        <ele>547.13</ele>
        <time>2012-05-19T08:00:43Z</time>
      </trkpt>
      <trkpt lat="44.60182" lon="2.52854">
        <ele>546.17</ele>
        <time>2012-05-19T08:00:55Z</time>
      </trkpt>
      <trkpt lat="44.60196" lon="2.52846">
        <ele>547.13</ele>
        <time>2012-05-19T08:01:09Z</time>
      </trkpt>
      <trkpt lat="44.60213" lon="2.52835">
        <ele>546.17</ele>
        <time>2012-05-19T08:01:24Z</time>
      </trkpt>
      <trkpt lat="44.60215" lon="2.52832">
        <ele>545.69</ele>
        <time>2012-05-19T08:01:26Z</time>
      </trkpt>
      <trkpt lat="44.60215" lon="2.52826">
        <ele>545.2</ele>
        <time>2012-05-19T08:01:30Z</time>
      </trkpt>
      <trkpt lat="44.60212" lon="2.52822">
        <ele>545.2</ele>
        <time>2012-05-19T08:01:33Z</time>
      </trkpt>
      <trkpt lat="44.60191" lon="2.52813">
        <ele>542.32</ele>
        <time>2012-05-19T08:01:51Z</time>
      </trkpt>
      <trkpt lat="44.60181" lon="2.52809">
        <ele>538.96</ele>
        <time>2012-05-19T08:02:01Z</time>
      </trkpt>
      <trkpt lat="44.60158" lon="2.52799">
        <ele>537.51</ele>
        <time>2012-05-19T08:02:20Z</time>
      </trkpt>
      <trkpt lat="44.60135" lon="2.52794">
        <ele>537.51</ele>
        <time>2012-05-19T08:02:39Z</time>
      </trkpt>
      <trkpt lat="44.60113" lon="2.52791">
        <ele>532.71</ele>
        <time>2012-05-19T08:02:56Z</time>
      </trkpt>
      <trkpt lat="44.60091" lon="2.528">
        <ele>529.34</ele>
        <time>2012-05-19T08:03:14Z</time>
      </trkpt>
      <trkpt lat="44.60087" lon="2.52803">
        <ele>529.34</ele>
        <time>2012-05-19T08:03:18Z</time>
      </trkpt>
      <trkpt lat="44.60072" lon="2.52814">
        <ele>528.38</ele>
        <time>2012-05-19T08:03:32Z</time>
      </trkpt>
      <trkpt lat="44.60056" lon="2.52823">
        <ele>526.94</ele>
        <time>2012-05-19T08:03:48Z</time>
      </trkpt>
      <trkpt lat="44.60055" lon="2.52824">
        <ele>526.94</ele>
        <time>2012-05-19T08:03:49Z</time>
      </trkpt>
      <trkpt lat="44.60034" lon="2.52838">
        <ele>525.5</ele>
        <time>2012-05-19T08:04:07Z</time>
      </trkpt>
      <trkpt lat="44.60014" lon="2.52836">
        <ele>523.09</ele>
        <time>2012-05-19T08:04:23Z</time>
      </trkpt>
      <trkpt lat="44.59997" lon="2.52821">
        <ele>518.77</ele>
        <time>2012-05-19T08:04:40Z</time>
      </trkpt>
      <trkpt lat="44.59979" lon="2.52809">
        <ele>517.33</ele>
        <time>2012-05-19T08:04:56Z</time>
      </trkpt>
      <trkpt lat="44.59978" lon="2.52796">
        <ele>514.44</ele>
        <time>2012-05-19T08:05:10Z</time>
      </trkpt>
      <trkpt lat="44.59986" lon="2.5279">
        <ele>512.52</ele>
        <time>2012-05-19T08:05:17Z</time>
      </trkpt>
      <trkpt lat="44.60003" lon="2.52779">
        <ele>508.67</ele>
        <time>2012-05-19T08:05:34Z</time>
      </trkpt>
      <trkpt lat="44.60027" lon="2.52775">
        <ele>506.27</ele>
        <time>2012-05-19T08:05:53Z</time>
      </trkpt>
      <trkpt lat="44.60046" lon="2.52759">
        <ele>505.31</ele>
        <time>2012-05-19T08:06:08Z</time>
      </trkpt>
      <trkpt lat="44.60059" lon="2.52739">
        <ele>502.91</ele>
        <time>2012-05-19T08:06:24Z</time>
      </trkpt>
      <trkpt lat="44.60068" lon="2.52727">
        <ele>500.5</ele>
        <time>2012-05-19T08:06:33Z</time>
      </trkpt>
      <trkpt lat="44.60083" lon="2.52703">
        <ele>497.14</ele>
        <time>2012-05-19T08:06:51Z</time>
      </trkpt>
      <trkpt lat="44.60098" lon="2.52686">
        <ele>497.14</ele>
        <time>2012-05-19T08:07:06Z</time>
      </trkpt>
      <trkpt lat="44.60107" lon="2.52679">
        <ele>494.26</ele>
        <time>2012-05-19T08:07:23Z</time>
      </trkpt>
      <trkpt lat="44.60107" lon="2.52679">
        <ele>494.26</ele>
        <time>2012-05-19T08:07:51Z</time>
      </trkpt>
      <trkpt lat="44.60107" lon="2.52682">
        <ele>493.77</ele>
        <time>2012-05-19T08:08:16Z</time>
      </trkpt>
      <trkpt lat="44.6011" lon="2.52682">
        <ele>493.29</ele>
        <time>2012-05-19T08:08:35Z</time>
      </trkpt>
      <trkpt lat="44.60117" lon="2.52687">
        <ele>495.22</ele>
        <time>2012-05-19T08:08:49Z</time>
      </trkpt>
      <trkpt lat="44.60113" lon="2.52681">
        <ele>495.7</ele>
        <time>2012-05-19T08:09:03Z</time>
      </trkpt>
      <trkpt lat="44.60106" lon="2.52676">
        <ele>497.14</ele>
        <time>2012-05-19T08:09:13Z</time>
      </trkpt>
      <trkpt lat="44.60107" lon="2.52672">
        <ele>498.58</ele>
        <time>2012-05-19T08:09:17Z</time>
      </trkpt>
      <trkpt lat="44.60113" lon="2.5267">
        <ele>499.06</ele>
        <time>2012-05-19T08:09:22Z</time>
      </trkpt>
      <trkpt lat="44.60128" lon="2.52676">
        <ele>501.95</ele>
        <time>2012-05-19T08:09:36Z</time>
      </trkpt>
      <trkpt lat="44.60148" lon="2.52672">
        <ele>501.95</ele>
        <time>2012-05-19T08:09:51Z</time>
      </trkpt>
      <trkpt lat="44.60166" lon="2.52655">
        <ele>497.14</ele>
        <time>2012-05-19T08:10:07Z</time>
      </trkpt>
      <trkpt lat="44.60177" lon="2.52631">
        <ele>494.26</ele>
        <time>2012-05-19T08:10:24Z</time>
      </trkpt>
      <trkpt lat="44.60189" lon="2.52611">
        <ele>492.33</ele>
        <time>2012-05-19T08:10:38Z</time>
      </trkpt>
      <trkpt lat="44.60198" lon="2.52585">
        <ele>490.41</ele>
        <time>2012-05-19T08:10:53Z</time>
      </trkpt>
      <trkpt lat="44.6021" lon="2.52563">
        <ele>488.97</ele>
        <time>2012-05-19T08:11:10Z</time>
      </trkpt>
      <trkpt lat="44.60219" lon="2.52553">
        <ele>487.53</ele>
        <time>2012-05-19T08:11:20Z</time>
      </trkpt>
      <trkpt lat="44.60234" lon="2.52545">
        <ele>485.12</ele>
        <time>2012-05-19T08:11:35Z</time>
      </trkpt>
      <trkpt lat="44.60251" lon="2.52531">
        <ele>482.72</ele>
        <time>2012-05-19T08:11:52Z</time>
      </trkpt>
      <trkpt lat="44.60268" lon="2.5252">
        <ele>483.68</ele>
        <time>2012-05-19T08:12:07Z</time>
      </trkpt>
      <trkpt lat="44.60287" lon="2.52506">
        <ele>485.12</ele>
        <time>2012-05-19T08:12:24Z</time>
      </trkpt>
      <trkpt lat="44.60302" lon="2.52487">
        <ele>486.08</ele>
        <time>2012-05-19T08:12:39Z</time>
      </trkpt>
      <trkpt lat="44.6032" lon="2.52478">
        <ele>485.6</ele>
        <time>2012-05-19T08:12:55Z</time>
      </trkpt>
      <trkpt lat="44.60326" lon="2.52473">
        <ele>485.6</ele>
        <time>2012-05-19T08:13:00Z</time>
      </trkpt>
      <trkpt lat="44.60332" lon="2.52472">
        <ele>486.08</ele>
        <time>2012-05-19T08:13:05Z</time>
      </trkpt>
      <trkpt lat="44.60357" lon="2.52463">
        <ele>483.68</ele>
        <time>2012-05-19T08:13:24Z</time>
      </trkpt>
      <trkpt lat="44.60373" lon="2.52454">
        <ele>479.84</ele>
        <time>2012-05-19T08:13:38Z</time>
      </trkpt>
      <trkpt lat="44.6039" lon="2.52435">
        <ele>474.55</ele>
        <time>2012-05-19T08:13:55Z</time>
      </trkpt>
      <trkpt lat="44.60402" lon="2.52411">
        <ele>472.14</ele>
        <time>2012-05-19T08:14:12Z</time>
      </trkpt>
      <trkpt lat="44.60408" lon="2.52402">
        <ele>474.07</ele>
        <time>2012-05-19T08:14:20Z</time>
      </trkpt>
      <trkpt lat="44.60425" lon="2.52385">
        <ele>474.07</ele>
        <time>2012-05-19T08:14:38Z</time>
      </trkpt>
      <trkpt lat="44.60427" lon="2.52383">
        <ele>474.55</ele>
        <time>2012-05-19T08:14:40Z</time>
      </trkpt>
      <trkpt lat="44.60431" lon="2.52347">
        <ele>477.91</ele>
        <time>2012-05-19T08:14:56Z</time>
      </trkpt>
      <trkpt lat="44.60428" lon="2.52343">
        <ele>477.91</ele>
        <time>2012-05-19T08:15:00Z</time>
      </trkpt>
      <trkpt lat="44.60413" lon="2.52315">
        <ele>479.35</ele>
        <time>2012-05-19T08:15:19Z</time>
      </trkpt>
      <trkpt lat="44.604" lon="2.52284">
        <ele>478.87</ele>
        <time>2012-05-19T08:15:36Z</time>
      </trkpt>
      <trkpt lat="44.60388" lon="2.52257">
        <ele>477.43</ele>
        <time>2012-05-19T08:15:52Z</time>
      </trkpt>
      <trkpt lat="44.60381" lon="2.52239">
        <ele>477.43</ele>
        <time>2012-05-19T08:16:05Z</time>
      </trkpt>
      <trkpt lat="44.60376" lon="2.52211">
        <ele>479.35</ele>
        <time>2012-05-19T08:16:23Z</time>
      </trkpt>
      <trkpt lat="44.60376" lon="2.52208">
        <ele>479.84</ele>
        <time>2012-05-19T08:16:25Z</time>
      </trkpt>
      <trkpt lat="44.60372" lon="2.52203">
        <ele>480.32</ele>
        <time>2012-05-19T08:16:29Z</time>
      </trkpt>
      <trkpt lat="44.6037" lon="2.52199">
        <ele>480.8</ele>
        <time>2012-05-19T08:16:32Z</time>
      </trkpt>
      <trkpt lat="44.60367" lon="2.52192">
        <ele>480.32</ele>
        <time>2012-05-19T08:16:36Z</time>
      </trkpt>
      <trkpt lat="44.60361" lon="2.52182">
        <ele>480.32</ele>
        <time>2012-05-19T08:16:44Z</time>
      </trkpt>
      <trkpt lat="44.60356" lon="2.52175">
        <ele>481.28</ele>
        <time>2012-05-19T08:16:50Z</time>
      </trkpt>
      <trkpt lat="44.6035" lon="2.52168">
        <ele>482.24</ele>
        <time>2012-05-19T08:16:56Z</time>
      </trkpt>
      <trkpt lat="44.60347" lon="2.52141">
        <ele>481.76</ele>
        <time>2012-05-19T08:17:11Z</time>
      </trkpt>
      <trkpt lat="44.60348" lon="2.52136">
        <ele>481.76</ele>
        <time>2012-05-19T08:17:14Z</time>
      </trkpt>
      <trkpt lat="44.6035" lon="2.5213">
        <ele>481.28</ele>
        <time>2012-05-19T08:17:18Z</time>
      </trkpt>
      <trkpt lat="44.60364" lon="2.52106">
        <ele>477.43</ele>
        <time>2012-05-19T08:17:37Z</time>
      </trkpt>
      <trkpt lat="44.60371" lon="2.52098">
        <ele>477.43</ele>
        <time>2012-05-19T08:17:44Z</time>
      </trkpt>
      <trkpt lat="44.6038" lon="2.52088">
        <ele>477.43</ele>
        <time>2012-05-19T08:18:00Z</time>
      </trkpt>
      <trkpt lat="44.60398" lon="2.52073">
        <ele>477.91</ele>
        <time>2012-05-19T08:18:16Z</time>
      </trkpt>
      <trkpt lat="44.60413" lon="2.52062">
        <ele>476.95</ele>
        <time>2012-05-19T08:18:30Z</time>
      </trkpt>
      <trkpt lat="44.60417" lon="2.52058">
        <ele>475.99</ele>
        <time>2012-05-19T08:18:35Z</time>
      </trkpt>
      <trkpt lat="44.60421" lon="2.52053">
        <ele>475.51</ele>
        <time>2012-05-19T08:18:39Z</time>
      </trkpt>
      <trkpt lat="44.60435" lon="2.52035">
        <ele>472.14</ele>
        <time>2012-05-19T08:18:54Z</time>
      </trkpt>
      <trkpt lat="44.60454" lon="2.52015">
        <ele>469.26</ele>
        <time>2012-05-19T08:19:12Z</time>
      </trkpt>
      <trkpt lat="44.60467" lon="2.51998">
        <ele>468.78</ele>
        <time>2012-05-19T08:19:26Z</time>
      </trkpt>
      <trkpt lat="44.60484" lon="2.51973">
        <ele>466.38</ele>
        <time>2012-05-19T08:19:44Z</time>
      </trkpt>
      <trkpt lat="44.60502" lon="2.51952">
        <ele>463.01</ele>
        <time>2012-05-19T08:20:03Z</time>
      </trkpt>
      <trkpt lat="44.60521" lon="2.5195">
        <ele>461.09</ele>
        <time>2012-05-19T08:20:18Z</time>
      </trkpt>
      <trkpt lat="44.60537" lon="2.51944">
        <ele>463.01</ele>
        <time>2012-05-19T08:20:31Z</time>
      </trkpt>
      <trkpt lat="44.60546" lon="2.51936">
        <ele>463.49</ele>
        <time>2012-05-19T08:20:40Z</time>
      </trkpt>
      <trkpt lat="44.60553" lon="2.51926">
        <ele>463.01</ele>
        <time>2012-05-19T08:20:48Z</time>
      </trkpt>
      <trkpt lat="44.6057" lon="2.51905">
        <ele>463.01</ele>
        <time>2012-05-19T08:21:06Z</time>
      </trkpt>
      <trkpt lat="44.60587" lon="2.5189">
        <ele>461.57</ele>
        <time>2012-05-19T08:21:22Z</time>
      </trkpt>
      <trkpt lat="44.60599" lon="2.51869">
        <ele>461.57</ele>
        <time>2012-05-19T08:21:37Z</time>
      </trkpt>
      <trkpt lat="44.60592" lon="2.5186">
        <ele>461.57</ele>
        <time>2012-05-19T08:21:44Z</time>
      </trkpt>
      <trkpt lat="44.60577" lon="2.51847">
        <ele>460.13</ele>
        <time>2012-05-19T08:21:58Z</time>
      </trkpt>
      <trkpt lat="44.60558" lon="2.51839">
        <ele>458.21</ele>
        <time>2012-05-19T08:22:14Z</time>
      </trkpt>
      <trkpt lat="44.60547" lon="2.51827">
        <ele>458.21</ele>
        <time>2012-05-19T08:22:25Z</time>
      </trkpt>
      <trkpt lat="44.60546" lon="2.51815">
        <ele>458.69</ele>
        <time>2012-05-19T08:22:31Z</time>
      </trkpt>
      <trkpt lat="44.60556" lon="2.51785">
        <ele>458.21</ele>
        <time>2012-05-19T08:22:48Z</time>
      </trkpt>
      <trkpt lat="44.60566" lon="2.51771">
        <ele>455.8</ele>
        <time>2012-05-19T08:23:02Z</time>
      </trkpt>
      <trkpt lat="44.60583" lon="2.51753">
        <ele>454.36</ele>
        <time>2012-05-19T08:23:18Z</time>
      </trkpt>
      <trkpt lat="44.60598" lon="2.51735">
        <ele>452.44</ele>
        <time>2012-05-19T08:23:33Z</time>
      </trkpt>
      <trkpt lat="44.60613" lon="2.51715">
        <ele>451</ele>
        <time>2012-05-19T08:23:49Z</time>
      </trkpt>
      <trkpt lat="44.60633" lon="2.5169">
        <ele>449.55</ele>
        <time>2012-05-19T08:24:09Z</time>
      </trkpt>
      <trkpt lat="44.60637" lon="2.51679">
        <ele>448.11</ele>
        <time>2012-05-19T08:24:16Z</time>
      </trkpt>
      <trkpt lat="44.6063" lon="2.51656">
        <ele>442.82</ele>
        <time>2012-05-19T08:24:31Z</time>
      </trkpt>
      <trkpt lat="44.60627" lon="2.51633">
        <ele>441.86</ele>
        <time>2012-05-19T08:24:46Z</time>
      </trkpt>
      <trkpt lat="44.60635" lon="2.5163">
        <ele>442.34</ele>
        <time>2012-05-19T08:25:05Z</time>
      </trkpt>
      <trkpt lat="44.60641" lon="2.51626">
        <ele>442.82</ele>
        <time>2012-05-19T08:25:11Z</time>
      </trkpt>
      <trkpt lat="44.60656" lon="2.51615">
        <ele>445.23</ele>
        <time>2012-05-19T08:25:28Z</time>
      </trkpt>
      <trkpt lat="44.60667" lon="2.51613">
        <ele>447.15</ele>
        <time>2012-05-19T08:25:42Z</time>
      </trkpt>
      <trkpt lat="44.60682" lon="2.51597">
        <ele>449.07</ele>
        <time>2012-05-19T08:25:56Z</time>
      </trkpt>
      <trkpt lat="44.60694" lon="2.5159">
        <ele>450.52</ele>
        <time>2012-05-19T08:26:10Z</time>
      </trkpt>
      <trkpt lat="44.60709" lon="2.51583">
        <ele>452.92</ele>
        <time>2012-05-19T08:26:26Z</time>
      </trkpt>
      <trkpt lat="44.60725" lon="2.51574">
        <ele>453.4</ele>
        <time>2012-05-19T08:26:39Z</time>
      </trkpt>
      <trkpt lat="44.60741" lon="2.51569">
        <ele>454.36</ele>
        <time>2012-05-19T08:26:54Z</time>
      </trkpt>
      <trkpt lat="44.60755" lon="2.5157">
        <ele>460.61</ele>
        <time>2012-05-19T08:27:10Z</time>
      </trkpt>
      <trkpt lat="44.60772" lon="2.51575">
        <ele>468.78</ele>
        <time>2012-05-19T08:27:26Z</time>
      </trkpt>
      <trkpt lat="44.60785" lon="2.51592">
        <ele>471.66</ele>
        <time>2012-05-19T08:27:42Z</time>
      </trkpt>
      <trkpt lat="44.60796" lon="2.51602">
        <ele>472.14</ele>
        <time>2012-05-19T08:27:52Z</time>
      </trkpt>
      <trkpt lat="44.60813" lon="2.51613">
        <ele>471.66</ele>
        <time>2012-05-19T08:28:05Z</time>
      </trkpt>
      <trkpt lat="44.60829" lon="2.5162">
        <ele>473.11</ele>
        <time>2012-05-19T08:28:20Z</time>
      </trkpt>
      <trkpt lat="44.60845" lon="2.51619">
        <ele>476.47</ele>
        <time>2012-05-19T08:28:34Z</time>
      </trkpt>
      <trkpt lat="44.60864" lon="2.51619">
        <ele>472.14</ele>
        <time>2012-05-19T08:28:48Z</time>
      </trkpt>
      <trkpt lat="44.60877" lon="2.51627">
        <ele>464.45</ele>
        <time>2012-05-19T08:28:57Z</time>
      </trkpt>
      <trkpt lat="44.60894" lon="2.51647">
        <ele>459.17</ele>
        <time>2012-05-19T08:29:14Z</time>
      </trkpt>
      <trkpt lat="44.60898" lon="2.51647">
        <ele>457.72</ele>
        <time>2012-05-19T08:29:18Z</time>
      </trkpt>
      <trkpt lat="44.60918" lon="2.51638">
        <ele>453.88</ele>
        <time>2012-05-19T08:29:32Z</time>
      </trkpt>
      <trkpt lat="44.60927" lon="2.51616">
        <ele>454.84</ele>
        <time>2012-05-19T08:29:46Z</time>
      </trkpt>
      <trkpt lat="44.60927" lon="2.51601">
        <ele>455.32</ele>
        <time>2012-05-19T08:29:55Z</time>
      </trkpt>
      <trkpt lat="44.60927" lon="2.51592">
        <ele>455.32</ele>
        <time>2012-05-19T08:30:00Z</time>
      </trkpt>
      <trkpt lat="44.60927" lon="2.51577">
        <ele>454.36</ele>
        <time>2012-05-19T08:30:13Z</time>
      </trkpt>
      <trkpt lat="44.60928" lon="2.51576">
        <ele>453.88</ele>
        <time>2012-05-19T08:30:16Z</time>
      </trkpt>
      <trkpt lat="44.6093" lon="2.51573">
        <ele>453.88</ele>
        <time>2012-05-19T08:30:21Z</time>
      </trkpt>
      <trkpt lat="44.60939" lon="2.51571">
        <ele>453.4</ele>
        <time>2012-05-19T08:30:31Z</time>
      </trkpt>
      <trkpt lat="44.60955" lon="2.51566">
        <ele>455.32</ele>
        <time>2012-05-19T08:30:46Z</time>
      </trkpt>
      <trkpt lat="44.60957" lon="2.51565">
        <ele>455.32</ele>
        <time>2012-05-19T08:30:48Z</time>
      </trkpt>
      <trkpt lat="44.60964" lon="2.5156">
        <ele>456.28</ele>
        <time>2012-05-19T08:30:54Z</time>
      </trkpt>
      <trkpt lat="44.60977" lon="2.51552">
        <ele>453.88</ele>
        <time>2012-05-19T08:31:10Z</time>
      </trkpt>
      <trkpt lat="44.60996" lon="2.5154">
        <ele>452.44</ele>
        <time>2012-05-19T08:31:25Z</time>
      </trkpt>
      <trkpt lat="44.61013" lon="2.5153">
        <ele>450.03</ele>
        <time>2012-05-19T08:31:40Z</time>
      </trkpt>
      <trkpt lat="44.61033" lon="2.51519">
        <ele>448.11</ele>
        <time>2012-05-19T08:31:58Z</time>
      </trkpt>
      <trkpt lat="44.61035" lon="2.51516">
        <ele>447.15</ele>
        <time>2012-05-19T08:32:02Z</time>
      </trkpt>
      <trkpt lat="44.61039" lon="2.51505">
        <ele>445.23</ele>
        <time>2012-05-19T08:32:10Z</time>
      </trkpt>
      <trkpt lat="44.61039" lon="2.51481">
        <ele>444.27</ele>
        <time>2012-05-19T08:32:24Z</time>
      </trkpt>
      <trkpt lat="44.61039" lon="2.5148">
        <ele>444.27</ele>
        <time>2012-05-19T08:32:25Z</time>
      </trkpt>
      <trkpt lat="44.61041" lon="2.51458">
        <ele>442.34</ele>
        <time>2012-05-19T08:32:39Z</time>
      </trkpt>
      <trkpt lat="44.61041" lon="2.51451">
        <ele>441.38</ele>
        <time>2012-05-19T08:32:44Z</time>
      </trkpt>
      <trkpt lat="44.61045" lon="2.51438">
        <ele>438.98</ele>
        <time>2012-05-19T08:32:52Z</time>
      </trkpt>
      <trkpt lat="44.61055" lon="2.51417">
        <ele>433.21</ele>
        <time>2012-05-19T08:33:08Z</time>
      </trkpt>
      <trkpt lat="44.61059" lon="2.51402">
        <ele>431.77</ele>
        <time>2012-05-19T08:33:18Z</time>
      </trkpt>
      <trkpt lat="44.61057" lon="2.51397">
        <ele>430.81</ele>
        <time>2012-05-19T08:33:21Z</time>
      </trkpt>
      <trkpt lat="44.61059" lon="2.51385">
        <ele>428.4</ele>
        <time>2012-05-19T08:33:30Z</time>
      </trkpt>
      <trkpt lat="44.61064" lon="2.51375">
        <ele>424.56</ele>
        <time>2012-05-19T08:33:44Z</time>
      </trkpt>
      <trkpt lat="44.61068" lon="2.51371">
        <ele>422.16</ele>
        <time>2012-05-19T08:34:00Z</time>
      </trkpt>
      <trkpt lat="44.61076" lon="2.51365">
        <ele>420.71</ele>
        <time>2012-05-19T08:34:17Z</time>
      </trkpt>
      <trkpt lat="44.6108" lon="2.51363">
        <ele>420.23</ele>
        <time>2012-05-19T08:34:21Z</time>
      </trkpt>
      <trkpt lat="44.611" lon="2.51355">
        <ele>416.39</ele>
        <time>2012-05-19T08:34:38Z</time>
      </trkpt>
      <trkpt lat="44.61104" lon="2.51354">
        <ele>415.43</ele>
        <time>2012-05-19T08:34:42Z</time>
      </trkpt>
      <trkpt lat="44.61103" lon="2.51354">
        <ele>414.95</ele>
        <time>2012-05-19T08:34:47Z</time>
      </trkpt>
      <trkpt lat="44.61117" lon="2.5135">
        <ele>413.98</ele>
        <time>2012-05-19T08:35:01Z</time>
      </trkpt>
      <trkpt lat="44.61122" lon="2.51358">
        <ele>413.5</ele>
        <time>2012-05-19T08:35:09Z</time>
      </trkpt>
      <trkpt lat="44.61123" lon="2.51368">
        <ele>412.06</ele>
        <time>2012-05-19T08:35:25Z</time>
      </trkpt>
      <trkpt lat="44.61123" lon="2.51371">
        <ele>411.58</ele>
        <time>2012-05-19T08:35:27Z</time>
      </trkpt>
      <trkpt lat="44.61133" lon="2.51395">
        <ele>409.18</ele>
        <time>2012-05-19T08:35:43Z</time>
      </trkpt>
      <trkpt lat="44.61137" lon="2.51413">
        <ele>410.62</ele>
        <time>2012-05-19T08:35:57Z</time>
      </trkpt>
      <trkpt lat="44.61145" lon="2.51427">
        <ele>410.14</ele>
        <time>2012-05-19T08:36:11Z</time>
      </trkpt>
      <trkpt lat="44.61145" lon="2.51427">
        <ele>410.14</ele>
        <time>2012-05-19T08:36:26Z</time>
      </trkpt>
      <trkpt lat="44.61159" lon="2.51437">
        <ele>407.26</ele>
        <time>2012-05-19T08:36:42Z</time>
      </trkpt>
      <trkpt lat="44.6117" lon="2.51442">
        <ele>406.29</ele>
        <time>2012-05-19T08:36:55Z</time>
      </trkpt>
      <trkpt lat="44.61177" lon="2.51452">
        <ele>404.37</ele>
        <time>2012-05-19T08:37:03Z</time>
      </trkpt>
      <trkpt lat="44.6119" lon="2.51461">
        <ele>401.49</ele>
        <time>2012-05-19T08:37:17Z</time>
      </trkpt>
      <trkpt lat="44.61198" lon="2.51469">
        <ele>400.53</ele>
        <time>2012-05-19T08:37:33Z</time>
      </trkpt>
      <trkpt lat="44.61204" lon="2.51484">
        <ele>399.57</ele>
        <time>2012-05-19T08:37:41Z</time>
      </trkpt>
      <trkpt lat="44.61206" lon="2.515">
        <ele>399.08</ele>
        <time>2012-05-19T08:37:56Z</time>
      </trkpt>
      <trkpt lat="44.61205" lon="2.51505">
        <ele>399.08</ele>
        <time>2012-05-19T08:38:13Z</time>
      </trkpt>
      <trkpt lat="44.61205" lon="2.51513">
        <ele>399.57</ele>
        <time>2012-05-19T08:38:18Z</time>
      </trkpt>
      <trkpt lat="44.61206" lon="2.5153">
        <ele>401.01</ele>
        <time>2012-05-19T08:38:32Z</time>
      </trkpt>
      <trkpt lat="44.61211" lon="2.51538">
        <ele>400.53</ele>
        <time>2012-05-19T08:38:47Z</time>
      </trkpt>
      <trkpt lat="44.61221" lon="2.51533">
        <ele>400.53</ele>
        <time>2012-05-19T08:39:06Z</time>
      </trkpt>
      <trkpt lat="44.61225" lon="2.51534">
        <ele>400.53</ele>
        <time>2012-05-19T08:39:09Z</time>
      </trkpt>
      <trkpt lat="44.6123" lon="2.51527">
        <ele>398.6</ele>
        <time>2012-05-19T08:39:22Z</time>
      </trkpt>
      <trkpt lat="44.61232" lon="2.5151">
        <ele>395.72</ele>
        <time>2012-05-19T08:39:37Z</time>
      </trkpt>
      <trkpt lat="44.61232" lon="2.51485">
        <ele>391.87</ele>
        <time>2012-05-19T08:39:53Z</time>
      </trkpt>
      <trkpt lat="44.61233" lon="2.51463">
        <ele>391.39</ele>
        <time>2012-05-19T08:40:07Z</time>
      </trkpt>
      <trkpt lat="44.61238" lon="2.5144">
        <ele>390.91</ele>
        <time>2012-05-19T08:40:20Z</time>
      </trkpt>
      <trkpt lat="44.61231" lon="2.51415">
        <ele>390.91</ele>
        <time>2012-05-19T08:40:34Z</time>
      </trkpt>
      <trkpt lat="44.61223" lon="2.51394">
        <ele>390.43</ele>
        <time>2012-05-19T08:40:49Z</time>
      </trkpt>
      <trkpt lat="44.6123" lon="2.51374">
        <ele>390.43</ele>
        <time>2012-05-19T08:41:06Z</time>
      </trkpt>
      <trkpt lat="44.61236" lon="2.51367">
        <ele>390.91</ele>
        <time>2012-05-19T08:41:20Z</time>
      </trkpt>
      <trkpt lat="44.61243" lon="2.51348">
        <ele>391.87</ele>
        <time>2012-05-19T08:41:37Z</time>
      </trkpt>
      <trkpt lat="44.61251" lon="2.51333">
        <ele>392.84</ele>
        <time>2012-05-19T08:41:53Z</time>
      </trkpt>
      <trkpt lat="44.6125" lon="2.51332">
        <ele>392.84</ele>
        <time>2012-05-19T08:42:07Z</time>
      </trkpt>
      <trkpt lat="44.6125" lon="2.51332">
        <ele>392.84</ele>
        <time>2012-05-19T08:42:32Z</time>
      </trkpt>
      <trkpt lat="44.6125" lon="2.51332">
        <ele>392.84</ele>
        <time>2012-05-19T08:42:52Z</time>
      </trkpt>
      <trkpt lat="44.61254" lon="2.51329">
        <ele>393.8</ele>
        <time>2012-05-19T08:43:05Z</time>
      </trkpt>
      <trkpt lat="44.61265" lon="2.51309">
        <ele>394.28</ele>
        <time>2012-05-19T08:43:21Z</time>
      </trkpt>
      <trkpt lat="44.61265" lon="2.51308">
        <ele>394.28</ele>
        <time>2012-05-19T08:43:22Z</time>
      </trkpt>
      <trkpt lat="44.61256" lon="2.51287">
        <ele>393.32</ele>
        <time>2012-05-19T08:43:36Z</time>
      </trkpt>
      <trkpt lat="44.6125" lon="2.51264">
        <ele>391.87</ele>
        <time>2012-05-19T08:43:51Z</time>
      </trkpt>
      <trkpt lat="44.61246" lon="2.51241">
        <ele>392.36</ele>
        <time>2012-05-19T08:44:05Z</time>
      </trkpt>
      <trkpt lat="44.61244" lon="2.51229">
        <ele>393.8</ele>
        <time>2012-05-19T08:44:21Z</time>
      </trkpt>
      <trkpt lat="44.61242" lon="2.51216">
        <ele>393.8</ele>
        <time>2012-05-19T08:44:40Z</time>
      </trkpt>
      <trkpt lat="44.61241" lon="2.51188">
        <ele>392.84</ele>
        <time>2012-05-19T08:44:58Z</time>
      </trkpt>
      <trkpt lat="44.61243" lon="2.51174">
        <ele>390.43</ele>
        <time>2012-05-19T08:45:14Z</time>
      </trkpt>
      <trkpt lat="44.61243" lon="2.51172">
        <ele>389.95</ele>
        <time>2012-05-19T08:45:27Z</time>
      </trkpt>
      <trkpt lat="44.61243" lon="2.51172">
        <ele>389.95</ele>
        <time>2012-05-19T08:45:48Z</time>
      </trkpt>
      <trkpt lat="44.61248" lon="2.51157">
        <ele>388.51</ele>
        <time>2012-05-19T08:46:06Z</time>
      </trkpt>
      <trkpt lat="44.61254" lon="2.51135">
        <ele>389.95</ele>
        <time>2012-05-19T08:46:23Z</time>
      </trkpt>
      <trkpt lat="44.6126" lon="2.51121">
        <ele>389.47</ele>
        <time>2012-05-19T08:46:35Z</time>
      </trkpt>
      <trkpt lat="44.61266" lon="2.51102">
        <ele>392.84</ele>
        <time>2012-05-19T08:46:48Z</time>
      </trkpt>
      <trkpt lat="44.61274" lon="2.51082">
        <ele>394.76</ele>
        <time>2012-05-19T08:47:03Z</time>
      </trkpt>
      <trkpt lat="44.61282" lon="2.51072">
        <ele>393.8</ele>
        <time>2012-05-19T08:47:14Z</time>
      </trkpt>
      <trkpt lat="44.61275" lon="2.51057">
        <ele>395.72</ele>
        <time>2012-05-19T08:47:27Z</time>
      </trkpt>
      <trkpt lat="44.6127" lon="2.51051">
        <ele>394.76</ele>
        <time>2012-05-19T08:47:34Z</time>
      </trkpt>
      <trkpt lat="44.61263" lon="2.51046">
        <ele>393.32</ele>
        <time>2012-05-19T08:47:42Z</time>
      </trkpt>
      <trkpt lat="44.61261" lon="2.5104">
        <ele>392.84</ele>
        <time>2012-05-19T08:47:47Z</time>
      </trkpt>
      <trkpt lat="44.61255" lon="2.51014">
        <ele>392.84</ele>
        <time>2012-05-19T08:48:05Z</time>
      </trkpt>
      <trkpt lat="44.61251" lon="2.51013">
        <ele>393.32</ele>
        <time>2012-05-19T08:48:16Z</time>
      </trkpt>
      <trkpt lat="44.6125" lon="2.51006">
        <ele>394.76</ele>
        <time>2012-05-19T08:48:26Z</time>
      </trkpt>
      <trkpt lat="44.61247" lon="2.50998">
        <ele>395.24</ele>
        <time>2012-05-19T08:48:32Z</time>
      </trkpt>
      <trkpt lat="44.6125" lon="2.5099">
        <ele>395.24</ele>
        <time>2012-05-19T08:48:37Z</time>
      </trkpt>
      <trkpt lat="44.61251" lon="2.50985">
        <ele>394.76</ele>
        <time>2012-05-19T08:48:40Z</time>
      </trkpt>
      <trkpt lat="44.6125" lon="2.50982">
        <ele>394.28</ele>
        <time>2012-05-19T08:48:42Z</time>
      </trkpt>
      <trkpt lat="44.61241" lon="2.50957">
        <ele>391.39</ele>
        <time>2012-05-19T08:49:00Z</time>
      </trkpt>
      <trkpt lat="44.61238" lon="2.50946">
        <ele>391.39</ele>
        <time>2012-05-19T08:49:08Z</time>
      </trkpt>
      <trkpt lat="44.61238" lon="2.50943">
        <ele>390.91</ele>
        <time>2012-05-19T08:49:10Z</time>
      </trkpt>
      <trkpt lat="44.61238" lon="2.50939">
        <ele>390.91</ele>
        <time>2012-05-19T08:49:13Z</time>
      </trkpt>
      <trkpt lat="44.61236" lon="2.50938">
        <ele>390.43</ele>
        <time>2012-05-19T08:49:15Z</time>
      </trkpt>
      <trkpt lat="44.61229" lon="2.50938">
        <ele>389.47</ele>
        <time>2012-05-19T08:49:30Z</time>
      </trkpt>
      <trkpt lat="44.61229" lon="2.50939">
        <ele>389.95</ele>
        <time>2012-05-19T08:49:50Z</time>
      </trkpt>
      <trkpt lat="44.61229" lon="2.50938">
        <ele>389.95</ele>
        <time>2012-05-19T08:50:09Z</time>
      </trkpt>
      <trkpt lat="44.61227" lon="2.50938">
        <ele>390.43</ele>
        <time>2012-05-19T08:50:33Z</time>
      </trkpt>
      <trkpt lat="44.61222" lon="2.50931">
        <ele>390.91</ele>
        <time>2012-05-19T08:50:44Z</time>
      </trkpt>
      <trkpt lat="44.61215" lon="2.50926">
        <ele>391.87</ele>
        <time>2012-05-19T08:50:53Z</time>
      </trkpt>
      <trkpt lat="44.61209" lon="2.50919">
        <ele>390.91</ele>
        <time>2012-05-19T08:51:00Z</time>
      </trkpt>
      <trkpt lat="44.61198" lon="2.50918">
        <ele>389.47</ele>
        <time>2012-05-19T08:51:16Z</time>
      </trkpt>
      <trkpt lat="44.61192" lon="2.50922">
        <ele>388.99</ele>
        <time>2012-05-19T08:51:23Z</time>
      </trkpt>
      <trkpt lat="44.61191" lon="2.50924">
        <ele>388.99</ele>
        <time>2012-05-19T08:51:25Z</time>
      </trkpt>
      <trkpt lat="44.61185" lon="2.50926">
        <ele>389.47</ele>
        <time>2012-05-19T08:51:35Z</time>
      </trkpt>
      <trkpt lat="44.61181" lon="2.50929">
        <ele>389.95</ele>
        <time>2012-05-19T08:51:40Z</time>
      </trkpt>
      <trkpt lat="44.6118" lon="2.50956">
        <ele>390.43</ele>
        <time>2012-05-19T08:51:57Z</time>
      </trkpt>
      <trkpt lat="44.61186" lon="2.50981">
        <ele>388.99</ele>
        <time>2012-05-19T08:52:14Z</time>
      </trkpt>
      <trkpt lat="44.61192" lon="2.50994">
        <ele>388.03</ele>
        <time>2012-05-19T08:52:24Z</time>
      </trkpt>
      <trkpt lat="44.6119" lon="2.51009">
        <ele>387.55</ele>
        <time>2012-05-19T08:52:36Z</time>
      </trkpt>
      <trkpt lat="44.6119" lon="2.5101">
        <ele>387.07</ele>
        <time>2012-05-19T08:52:50Z</time>
      </trkpt>
      <trkpt lat="44.61189" lon="2.51011">
        <ele>387.07</ele>
        <time>2012-05-19T08:53:13Z</time>
      </trkpt>
      <trkpt lat="44.61193" lon="2.51015">
        <ele>386.59</ele>
        <time>2012-05-19T08:53:29Z</time>
      </trkpt>
      <trkpt lat="44.61194" lon="2.51017">
        <ele>386.11</ele>
        <time>2012-05-19T08:53:31Z</time>
      </trkpt>
      <trkpt lat="44.61197" lon="2.51019">
        <ele>386.11</ele>
        <time>2012-05-19T08:53:48Z</time>
      </trkpt>
      <trkpt lat="44.61195" lon="2.51018">
        <ele>385.63</ele>
        <time>2012-05-19T08:53:54Z</time>
      </trkpt>
      <trkpt lat="44.61186" lon="2.51013">
        <ele>386.11</ele>
        <time>2012-05-19T08:54:13Z</time>
      </trkpt>
      <trkpt lat="44.61176" lon="2.51006">
        <ele>384.18</ele>
        <time>2012-05-19T08:54:25Z</time>
      </trkpt>
      <trkpt lat="44.61172" lon="2.51002">
        <ele>383.7</ele>
        <time>2012-05-19T08:54:38Z</time>
      </trkpt>
      <trkpt lat="44.61172" lon="2.51002">
        <ele>383.22</ele>
        <time>2012-05-19T08:54:58Z</time>
      </trkpt>
      <trkpt lat="44.61172" lon="2.51002">
        <ele>383.22</ele>
        <time>2012-05-19T08:55:26Z</time>
      </trkpt>
      <trkpt lat="44.61172" lon="2.51002">
        <ele>383.22</ele>
        <time>2012-05-19T08:55:45Z</time>
      </trkpt>
      <trkpt lat="44.61172" lon="2.51002">
        <ele>383.22</ele>
        <time>2012-05-19T08:56:11Z</time>
      </trkpt>
      <trkpt lat="44.61173" lon="2.51002">
        <ele>383.22</ele>
        <time>2012-05-19T08:56:27Z</time>
      </trkpt>
      <trkpt lat="44.61172" lon="2.50996">
        <ele>383.22</ele>
        <time>2012-05-19T08:56:45Z</time>
      </trkpt>
      <trkpt lat="44.61168" lon="2.50992">
        <ele>382.26</ele>
        <time>2012-05-19T08:56:53Z</time>
      </trkpt>
      <trkpt lat="44.61163" lon="2.50981">
        <ele>380.82</ele>
        <time>2012-05-19T08:57:06Z</time>
      </trkpt>
      <trkpt lat="44.61161" lon="2.50979">
        <ele>381.3</ele>
        <time>2012-05-19T08:57:22Z</time>
      </trkpt>
      <trkpt lat="44.61161" lon="2.50979">
        <ele>380.82</ele>
        <time>2012-05-19T08:57:37Z</time>
      </trkpt>
      <trkpt lat="44.61159" lon="2.5098">
        <ele>380.82</ele>
        <time>2012-05-19T08:57:59Z</time>
      </trkpt>
      <trkpt lat="44.61159" lon="2.5098">
        <ele>380.82</ele>
        <time>2012-05-19T08:58:26Z</time>
      </trkpt>
      <trkpt lat="44.61159" lon="2.5098">
        <ele>380.82</ele>
        <time>2012-05-19T08:58:57Z</time>
      </trkpt>
      <trkpt lat="44.61158" lon="2.50981">
        <ele>380.82</ele>
        <time>2012-05-19T08:59:31Z</time>
      </trkpt>
      <trkpt lat="44.61158" lon="2.50981">
        <ele>380.82</ele>
        <time>2012-05-19T08:59:57Z</time>
      </trkpt>
      <trkpt lat="44.61159" lon="2.5098">
        <ele>380.34</ele>
        <time>2012-05-19T09:00:13Z</time>
      </trkpt>
      <trkpt lat="44.61159" lon="2.50978">
        <ele>380.34</ele>
        <time>2012-05-19T09:00:33Z</time>
      </trkpt>
      <trkpt lat="44.61159" lon="2.50978">
        <ele>380.34</ele>
        <time>2012-05-19T09:00:52Z</time>
      </trkpt>
      <trkpt lat="44.61159" lon="2.50978">
        <ele>379.86</ele>
        <time>2012-05-19T09:01:16Z</time>
      </trkpt>
      <trkpt lat="44.61159" lon="2.50978">
        <ele>379.86</ele>
        <time>2012-05-19T09:01:38Z</time>
      </trkpt>
      <trkpt lat="44.6116" lon="2.50978">
        <ele>379.86</ele>
        <time>2012-05-19T09:02:01Z</time>
      </trkpt>
      <trkpt lat="44.61159" lon="2.50978">
        <ele>379.86</ele>
        <time>2012-05-19T09:02:24Z</time>
      </trkpt>
      <trkpt lat="44.61159" lon="2.50979">
        <ele>379.86</ele>
        <time>2012-05-19T09:02:48Z</time>
      </trkpt>
      <trkpt lat="44.61159" lon="2.50979">
        <ele>379.86</ele>
        <time>2012-05-19T09:03:11Z</time>
      </trkpt>
      <trkpt lat="44.61158" lon="2.50981">
        <ele>380.34</ele>
        <time>2012-05-19T09:03:37Z</time>
      </trkpt>
      <trkpt lat="44.61158" lon="2.50981">
        <ele>380.34</ele>
        <time>2012-05-19T09:03:57Z</time>
      </trkpt>
      <trkpt lat="44.61157" lon="2.50983">
        <ele>381.3</ele>
        <time>2012-05-19T09:04:12Z</time>
      </trkpt>
      <trkpt lat="44.61157" lon="2.50983">
        <ele>381.3</ele>
        <time>2012-05-19T09:04:34Z</time>
      </trkpt>
      <trkpt lat="44.61157" lon="2.50982">
        <ele>380.82</ele>
        <time>2012-05-19T09:05:01Z</time>
      </trkpt>
      <trkpt lat="44.61155" lon="2.50975">
        <ele>380.34</ele>
        <time>2012-05-19T09:05:18Z</time>
      </trkpt>
      <trkpt lat="44.61155" lon="2.50974">
        <ele>380.34</ele>
        <time>2012-05-19T09:05:19Z</time>
      </trkpt>
      <trkpt lat="44.61144" lon="2.50956">
        <ele>378.42</ele>
        <time>2012-05-19T09:05:35Z</time>
      </trkpt>
      <trkpt lat="44.61144" lon="2.50956">
        <ele>378.42</ele>
        <time>2012-05-19T09:06:01Z</time>
      </trkpt>
      <trkpt lat="44.61141" lon="2.50954">
        <ele>378.9</ele>
        <time>2012-05-19T09:06:20Z</time>
      </trkpt>
      <trkpt lat="44.61141" lon="2.50954">
        <ele>379.38</ele>
        <time>2012-05-19T09:06:38Z</time>
      </trkpt>
      <trkpt lat="44.61141" lon="2.50951">
        <ele>379.38</ele>
        <time>2012-05-19T09:06:45Z</time>
      </trkpt>
      <trkpt lat="44.61131" lon="2.5094">
        <ele>377.45</ele>
        <time>2012-05-19T09:06:58Z</time>
      </trkpt>
      <trkpt lat="44.61126" lon="2.50936">
        <ele>376.97</ele>
        <time>2012-05-19T09:07:02Z</time>
      </trkpt>
      <trkpt lat="44.61122" lon="2.50935">
        <ele>376.01</ele>
        <time>2012-05-19T09:07:06Z</time>
      </trkpt>
      <trkpt lat="44.61108" lon="2.5092">
        <ele>373.13</ele>
        <time>2012-05-19T09:07:22Z</time>
      </trkpt>
      <trkpt lat="44.61092" lon="2.50908">
        <ele>370.24</ele>
        <time>2012-05-19T09:07:38Z</time>
      </trkpt>
      <trkpt lat="44.61078" lon="2.50892">
        <ele>369.76</ele>
        <time>2012-05-19T09:07:56Z</time>
      </trkpt>
      <trkpt lat="44.61062" lon="2.5087">
        <ele>368.8</ele>
        <time>2012-05-19T09:08:16Z</time>
      </trkpt>
      <trkpt lat="44.61061" lon="2.50869">
        <ele>368.8</ele>
        <time>2012-05-19T09:08:17Z</time>
      </trkpt>
      <trkpt lat="44.61046" lon="2.50851">
        <ele>365.92</ele>
        <time>2012-05-19T09:08:36Z</time>
      </trkpt>
      <trkpt lat="44.61044" lon="2.50849">
        <ele>365.44</ele>
        <time>2012-05-19T09:08:38Z</time>
      </trkpt>
      <trkpt lat="44.61024" lon="2.5084">
        <ele>362.55</ele>
        <time>2012-05-19T09:08:58Z</time>
      </trkpt>
      <trkpt lat="44.61005" lon="2.50835">
        <ele>361.11</ele>
        <time>2012-05-19T09:09:17Z</time>
      </trkpt>
      <trkpt lat="44.61001" lon="2.50834">
        <ele>360.63</ele>
        <time>2012-05-19T09:09:31Z</time>
      </trkpt>
      <trkpt lat="44.60997" lon="2.50831">
        <ele>359.67</ele>
        <time>2012-05-19T09:09:55Z</time>
      </trkpt>
      <trkpt lat="44.60995" lon="2.5083">
        <ele>359.19</ele>
        <time>2012-05-19T09:10:15Z</time>
      </trkpt>
      <trkpt lat="44.60995" lon="2.50829">
        <ele>359.19</ele>
        <time>2012-05-19T09:10:52Z</time>
      </trkpt>
      <trkpt lat="44.60998" lon="2.5083">
        <ele>359.19</ele>
        <time>2012-05-19T09:11:14Z</time>
      </trkpt>
      <trkpt lat="44.60998" lon="2.5083">
        <ele>359.19</ele>
        <time>2012-05-19T09:11:34Z</time>
      </trkpt>
      <trkpt lat="44.60998" lon="2.5083">
        <ele>359.19</ele>
        <time>2012-05-19T09:12:13Z</time>
      </trkpt>
      <trkpt lat="44.60998" lon="2.5083">
        <ele>359.19</ele>
        <time>2012-05-19T09:12:47Z</time>
      </trkpt>
      <trkpt lat="44.60998" lon="2.5083">
        <ele>358.71</ele>
        <time>2012-05-19T09:13:22Z</time>
      </trkpt>
      <trkpt lat="44.60992" lon="2.50828">
        <ele>360.15</ele>
        <time>2012-05-19T09:13:40Z</time>
      </trkpt>
      <trkpt lat="44.60984" lon="2.50835">
        <ele>360.15</ele>
        <time>2012-05-19T09:13:54Z</time>
      </trkpt>
      <trkpt lat="44.60978" lon="2.50844">
        <ele>363.52</ele>
        <time>2012-05-19T09:14:07Z</time>
      </trkpt>
      <trkpt lat="44.60974" lon="2.50854">
        <ele>364</ele>
        <time>2012-05-19T09:14:17Z</time>
      </trkpt>
      <trkpt lat="44.60969" lon="2.50866">
        <ele>364.48</ele>
        <time>2012-05-19T09:14:33Z</time>
      </trkpt>
      <trkpt lat="44.60962" lon="2.50874">
        <ele>367.36</ele>
        <time>2012-05-19T09:14:49Z</time>
      </trkpt>
      <trkpt lat="44.6096" lon="2.50887">
        <ele>369.76</ele>
        <time>2012-05-19T09:15:06Z</time>
      </trkpt>
      <trkpt lat="44.60953" lon="2.50903">
        <ele>369.28</ele>
        <time>2012-05-19T09:15:21Z</time>
      </trkpt>
      <trkpt lat="44.6095" lon="2.50912">
        <ele>370.73</ele>
        <time>2012-05-19T09:15:38Z</time>
      </trkpt>
      <trkpt lat="44.60944" lon="2.50928">
        <ele>371.21</ele>
        <time>2012-05-19T09:15:54Z</time>
      </trkpt>
      <trkpt lat="44.60939" lon="2.50939">
        <ele>372.17</ele>
        <time>2012-05-19T09:16:10Z</time>
      </trkpt>
      <trkpt lat="44.60935" lon="2.50948">
        <ele>374.09</ele>
        <time>2012-05-19T09:16:27Z</time>
      </trkpt>
      <trkpt lat="44.60931" lon="2.50957">
        <ele>374.09</ele>
        <time>2012-05-19T09:16:35Z</time>
      </trkpt>
      <trkpt lat="44.60917" lon="2.50956">
        <ele>376.97</ele>
        <time>2012-05-19T09:16:51Z</time>
      </trkpt>
      <trkpt lat="44.60912" lon="2.5095">
        <ele>377.45</ele>
        <time>2012-05-19T09:17:04Z</time>
      </trkpt>
      <trkpt lat="44.60912" lon="2.5095">
        <ele>377.45</ele>
        <time>2012-05-19T09:17:08Z</time>
      </trkpt>
      <trkpt lat="44.60911" lon="2.50943">
        <ele>377.94</ele>
        <time>2012-05-19T09:17:14Z</time>
      </trkpt>
      <trkpt lat="44.60915" lon="2.50924">
        <ele>377.94</ele>
        <time>2012-05-19T09:17:29Z</time>
      </trkpt>
      <trkpt lat="44.60909" lon="2.50906">
        <ele>378.9</ele>
        <time>2012-05-19T09:17:44Z</time>
      </trkpt>
      <trkpt lat="44.60908" lon="2.50882">
        <ele>379.86</ele>
        <time>2012-05-19T09:18:03Z</time>
      </trkpt>
      <trkpt lat="44.60899" lon="2.50857">
        <ele>381.3</ele>
        <time>2012-05-19T09:18:20Z</time>
      </trkpt>
      <trkpt lat="44.60892" lon="2.50837">
        <ele>382.26</ele>
        <time>2012-05-19T09:18:35Z</time>
      </trkpt>
      <trkpt lat="44.60888" lon="2.50826">
        <ele>383.22</ele>
        <time>2012-05-19T09:18:43Z</time>
      </trkpt>
      <trkpt lat="44.60881" lon="2.50804">
        <ele>387.07</ele>
        <time>2012-05-19T09:18:59Z</time>
      </trkpt>
      <trkpt lat="44.60874" lon="2.50781">
        <ele>389.47</ele>
        <time>2012-05-19T09:19:17Z</time>
      </trkpt>
      <trkpt lat="44.60871" lon="2.50765">
        <ele>390.43</ele>
        <time>2012-05-19T09:19:29Z</time>
      </trkpt>
      <trkpt lat="44.60872" lon="2.50762">
        <ele>390.43</ele>
        <time>2012-05-19T09:19:31Z</time>
      </trkpt>
      <trkpt lat="44.60873" lon="2.50737">
        <ele>391.87</ele>
        <time>2012-05-19T09:19:49Z</time>
      </trkpt>
      <trkpt lat="44.60874" lon="2.50718">
        <ele>396.68</ele>
        <time>2012-05-19T09:20:05Z</time>
      </trkpt>
      <trkpt lat="44.60872" lon="2.50704">
        <ele>398.6</ele>
        <time>2012-05-19T09:20:20Z</time>
      </trkpt>
      <trkpt lat="44.60869" lon="2.50695">
        <ele>399.08</ele>
        <time>2012-05-19T09:20:32Z</time>
      </trkpt>
      <trkpt lat="44.60869" lon="2.50695">
        <ele>399.08</ele>
        <time>2012-05-19T09:20:33Z</time>
      </trkpt>
      <trkpt lat="44.60879" lon="2.50684">
        <ele>399.57</ele>
        <time>2012-05-19T09:20:45Z</time>
      </trkpt>
      <trkpt lat="44.6088" lon="2.50677">
        <ele>399.08</ele>
        <time>2012-05-19T09:20:49Z</time>
      </trkpt>
      <trkpt lat="44.60874" lon="2.5065">
        <ele>399.57</ele>
        <time>2012-05-19T09:21:07Z</time>
      </trkpt>
      <trkpt lat="44.60873" lon="2.50648">
        <ele>399.08</ele>
        <time>2012-05-19T09:21:23Z</time>
      </trkpt>
      <trkpt lat="44.60871" lon="2.50632">
        <ele>397.64</ele>
        <time>2012-05-19T09:21:38Z</time>
      </trkpt>
      <trkpt lat="44.60871" lon="2.50631">
        <ele>397.64</ele>
        <time>2012-05-19T09:21:59Z</time>
      </trkpt>
      <trkpt lat="44.60867" lon="2.50612">
        <ele>398.12</ele>
        <time>2012-05-19T09:22:12Z</time>
      </trkpt>
      <trkpt lat="44.6086" lon="2.50588">
        <ele>400.05</ele>
        <time>2012-05-19T09:22:29Z</time>
      </trkpt>
      <trkpt lat="44.60853" lon="2.50564">
        <ele>402.93</ele>
        <time>2012-05-19T09:22:46Z</time>
      </trkpt>
      <trkpt lat="44.60849" lon="2.50542">
        <ele>403.89</ele>
        <time>2012-05-19T09:23:00Z</time>
      </trkpt>
      <trkpt lat="44.60844" lon="2.5052">
        <ele>403.41</ele>
        <time>2012-05-19T09:23:15Z</time>
      </trkpt>
      <trkpt lat="44.6084" lon="2.50507">
        <ele>404.85</ele>
        <time>2012-05-19T09:23:26Z</time>
      </trkpt>
      <trkpt lat="44.60836" lon="2.50479">
        <ele>405.33</ele>
        <time>2012-05-19T09:23:45Z</time>
      </trkpt>
      <trkpt lat="44.6083" lon="2.50456">
        <ele>405.81</ele>
        <time>2012-05-19T09:24:02Z</time>
      </trkpt>
      <trkpt lat="44.60822" lon="2.50439">
        <ele>406.77</ele>
        <time>2012-05-19T09:24:15Z</time>
      </trkpt>
      <trkpt lat="44.60807" lon="2.50423">
        <ele>409.18</ele>
        <time>2012-05-19T09:24:31Z</time>
      </trkpt>
      <trkpt lat="44.60789" lon="2.50408">
        <ele>412.54</ele>
        <time>2012-05-19T09:24:50Z</time>
      </trkpt>
      <trkpt lat="44.60776" lon="2.50395">
        <ele>413.02</ele>
        <time>2012-05-19T09:25:05Z</time>
      </trkpt>
      <trkpt lat="44.60761" lon="2.50379">
        <ele>413.02</ele>
        <time>2012-05-19T09:25:22Z</time>
      </trkpt>
      <trkpt lat="44.60756" lon="2.50374">
        <ele>413.02</ele>
        <time>2012-05-19T09:25:28Z</time>
      </trkpt>
      <trkpt lat="44.60747" lon="2.50364">
        <ele>412.54</ele>
        <time>2012-05-19T09:25:38Z</time>
      </trkpt>
      <trkpt lat="44.60744" lon="2.50363">
        <ele>413.02</ele>
        <time>2012-05-19T09:25:41Z</time>
      </trkpt>
      <trkpt lat="44.6074" lon="2.5036">
        <ele>412.54</ele>
        <time>2012-05-19T09:25:45Z</time>
      </trkpt>
      <trkpt lat="44.60735" lon="2.50358">
        <ele>413.5</ele>
        <time>2012-05-19T09:25:50Z</time>
      </trkpt>
      <trkpt lat="44.60731" lon="2.50355">
        <ele>413.98</ele>
        <time>2012-05-19T09:25:54Z</time>
      </trkpt>
      <trkpt lat="44.60713" lon="2.50349">
        <ele>414.47</ele>
        <time>2012-05-19T09:26:10Z</time>
      </trkpt>
      <trkpt lat="44.607" lon="2.50344">
        <ele>413.5</ele>
        <time>2012-05-19T09:26:23Z</time>
      </trkpt>
      <trkpt lat="44.60697" lon="2.50342">
        <ele>413.02</ele>
        <time>2012-05-19T09:26:26Z</time>
      </trkpt>
      <trkpt lat="44.60698" lon="2.50328">
        <ele>411.1</ele>
        <time>2012-05-19T09:26:39Z</time>
      </trkpt>
      <trkpt lat="44.60698" lon="2.50327">
        <ele>411.58</ele>
        <time>2012-05-19T09:27:06Z</time>
      </trkpt>
      <trkpt lat="44.60694" lon="2.50313">
        <ele>410.14</ele>
        <time>2012-05-19T09:27:20Z</time>
      </trkpt>
      <trkpt lat="44.60694" lon="2.50302">
        <ele>409.66</ele>
        <time>2012-05-19T09:27:28Z</time>
      </trkpt>
      <trkpt lat="44.60698" lon="2.50289">
        <ele>409.66</ele>
        <time>2012-05-19T09:27:38Z</time>
      </trkpt>
      <trkpt lat="44.60698" lon="2.50267">
        <ele>407.74</ele>
        <time>2012-05-19T09:27:53Z</time>
      </trkpt>
      <trkpt lat="44.60693" lon="2.50259">
        <ele>407.26</ele>
        <time>2012-05-19T09:28:01Z</time>
      </trkpt>
      <trkpt lat="44.60682" lon="2.50251">
        <ele>407.74</ele>
        <time>2012-05-19T09:28:12Z</time>
      </trkpt>
      <trkpt lat="44.60674" lon="2.50248">
        <ele>407.74</ele>
        <time>2012-05-19T09:28:20Z</time>
      </trkpt>
      <trkpt lat="44.60661" lon="2.5024">
        <ele>406.29</ele>
        <time>2012-05-19T09:28:35Z</time>
      </trkpt>
      <trkpt lat="44.60657" lon="2.50236">
        <ele>405.81</ele>
        <time>2012-05-19T09:28:53Z</time>
      </trkpt>
      <trkpt lat="44.60656" lon="2.50235">
        <ele>405.81</ele>
        <time>2012-05-19T09:28:54Z</time>
      </trkpt>
      <trkpt lat="44.60651" lon="2.50229">
        <ele>409.18</ele>
        <time>2012-05-19T09:29:10Z</time>
      </trkpt>
      <trkpt lat="44.60645" lon="2.50231">
        <ele>409.18</ele>
        <time>2012-05-19T09:29:16Z</time>
      </trkpt>
      <trkpt lat="44.60638" lon="2.50235">
        <ele>410.62</ele>
        <time>2012-05-19T09:29:24Z</time>
      </trkpt>
      <trkpt lat="44.60637" lon="2.50213">
        <ele>409.66</ele>
        <time>2012-05-19T09:29:40Z</time>
      </trkpt>
      <trkpt lat="44.60636" lon="2.50209">
        <ele>408.7</ele>
        <time>2012-05-19T09:29:43Z</time>
      </trkpt>
      <trkpt lat="44.60628" lon="2.50188">
        <ele>409.18</ele>
        <time>2012-05-19T09:29:58Z</time>
      </trkpt>
      <trkpt lat="44.60629" lon="2.50163">
        <ele>409.18</ele>
        <time>2012-05-19T09:30:14Z</time>
      </trkpt>
      <trkpt lat="44.60629" lon="2.50146">
        <ele>410.62</ele>
        <time>2012-05-19T09:30:30Z</time>
      </trkpt>
      <trkpt lat="44.6063" lon="2.50142">
        <ele>410.62</ele>
        <time>2012-05-19T09:30:37Z</time>
      </trkpt>
      <trkpt lat="44.60631" lon="2.50139">
        <ele>411.1</ele>
        <time>2012-05-19T09:30:39Z</time>
      </trkpt>
      <trkpt lat="44.60631" lon="2.50112">
        <ele>412.06</ele>
        <time>2012-05-19T09:30:56Z</time>
      </trkpt>
      <trkpt lat="44.60628" lon="2.50095">
        <ele>411.58</ele>
        <time>2012-05-19T09:31:09Z</time>
      </trkpt>
      <trkpt lat="44.60626" lon="2.50085">
        <ele>411.58</ele>
        <time>2012-05-19T09:31:21Z</time>
      </trkpt>
      <trkpt lat="44.60616" lon="2.50063">
        <ele>412.54</ele>
        <time>2012-05-19T09:31:37Z</time>
      </trkpt>
      <trkpt lat="44.60605" lon="2.50049">
        <ele>413.5</ele>
        <time>2012-05-19T09:31:52Z</time>
      </trkpt>
      <trkpt lat="44.60587" lon="2.50036">
        <ele>413.5</ele>
        <time>2012-05-19T09:32:09Z</time>
      </trkpt>
      <trkpt lat="44.60572" lon="2.50027">
        <ele>414.47</ele>
        <time>2012-05-19T09:32:24Z</time>
      </trkpt>
      <trkpt lat="44.60554" lon="2.50019">
        <ele>413.02</ele>
        <time>2012-05-19T09:32:40Z</time>
      </trkpt>
      <trkpt lat="44.6054" lon="2.50009">
        <ele>413.02</ele>
        <time>2012-05-19T09:32:55Z</time>
      </trkpt>
      <trkpt lat="44.60538" lon="2.50008">
        <ele>413.02</ele>
        <time>2012-05-19T09:32:57Z</time>
      </trkpt>
      <trkpt lat="44.60523" lon="2.49999">
        <ele>413.02</ele>
        <time>2012-05-19T09:33:12Z</time>
      </trkpt>
      <trkpt lat="44.60507" lon="2.49983">
        <ele>413.5</ele>
        <time>2012-05-19T09:33:28Z</time>
      </trkpt>
      <trkpt lat="44.60495" lon="2.49967">
        <ele>412.54</ele>
        <time>2012-05-19T09:33:43Z</time>
      </trkpt>
      <trkpt lat="44.60486" lon="2.49949">
        <ele>410.62</ele>
        <time>2012-05-19T09:33:58Z</time>
      </trkpt>
      <trkpt lat="44.60483" lon="2.49938">
        <ele>410.62</ele>
        <time>2012-05-19T09:34:05Z</time>
      </trkpt>
      <trkpt lat="44.60487" lon="2.49911">
        <ele>409.66</ele>
        <time>2012-05-19T09:34:20Z</time>
      </trkpt>
      <trkpt lat="44.60489" lon="2.49902">
        <ele>408.22</ele>
        <time>2012-05-19T09:34:26Z</time>
      </trkpt>
      <trkpt lat="44.60488" lon="2.49896">
        <ele>408.22</ele>
        <time>2012-05-19T09:34:30Z</time>
      </trkpt>
      <trkpt lat="44.60488" lon="2.49881">
        <ele>409.66</ele>
        <time>2012-05-19T09:34:39Z</time>
      </trkpt>
      <trkpt lat="44.60488" lon="2.4986">
        <ele>410.62</ele>
        <time>2012-05-19T09:34:53Z</time>
      </trkpt>
      <trkpt lat="44.60486" lon="2.49837">
        <ele>411.1</ele>
        <time>2012-05-19T09:35:07Z</time>
      </trkpt>
      <trkpt lat="44.60487" lon="2.49813">
        <ele>413.02</ele>
        <time>2012-05-19T09:35:22Z</time>
      </trkpt>
      <trkpt lat="44.60489" lon="2.49792">
        <ele>414.47</ele>
        <time>2012-05-19T09:35:35Z</time>
      </trkpt>
      <trkpt lat="44.60489" lon="2.49782">
        <ele>414.95</ele>
        <time>2012-05-19T09:35:41Z</time>
      </trkpt>
      <trkpt lat="44.6049" lon="2.49771">
        <ele>414.47</ele>
        <time>2012-05-19T09:35:48Z</time>
      </trkpt>
      <trkpt lat="44.60493" lon="2.49747">
        <ele>413.98</ele>
        <time>2012-05-19T09:36:03Z</time>
      </trkpt>
      <trkpt lat="44.60497" lon="2.49725">
        <ele>415.43</ele>
        <time>2012-05-19T09:36:18Z</time>
      </trkpt>
      <trkpt lat="44.60505" lon="2.49702">
        <ele>414.47</ele>
        <time>2012-05-19T09:36:34Z</time>
      </trkpt>
      <trkpt lat="44.60512" lon="2.49675">
        <ele>413.5</ele>
        <time>2012-05-19T09:36:51Z</time>
      </trkpt>
      <trkpt lat="44.60519" lon="2.49651">
        <ele>414.95</ele>
        <time>2012-05-19T09:37:07Z</time>
      </trkpt>
      <trkpt lat="44.60521" lon="2.49643">
        <ele>413.5</ele>
        <time>2012-05-19T09:37:24Z</time>
      </trkpt>
      <trkpt lat="44.60522" lon="2.49635">
        <ele>413.02</ele>
        <time>2012-05-19T09:37:37Z</time>
      </trkpt>
      <trkpt lat="44.6052" lon="2.49631">
        <ele>413.5</ele>
        <time>2012-05-19T09:37:40Z</time>
      </trkpt>
      <trkpt lat="44.60523" lon="2.49624">
        <ele>413.98</ele>
        <time>2012-05-19T09:37:45Z</time>
      </trkpt>
      <trkpt lat="44.60525" lon="2.49608">
        <ele>413.98</ele>
        <time>2012-05-19T09:37:55Z</time>
      </trkpt>
      <trkpt lat="44.60524" lon="2.49603">
        <ele>413.02</ele>
        <time>2012-05-19T09:38:01Z</time>
      </trkpt>
      <trkpt lat="44.60525" lon="2.496">
        <ele>413.02</ele>
        <time>2012-05-19T09:38:09Z</time>
      </trkpt>
      <trkpt lat="44.60514" lon="2.49587">
        <ele>411.58</ele>
        <time>2012-05-19T09:38:25Z</time>
      </trkpt>
      <trkpt lat="44.60515" lon="2.4957">
        <ele>411.58</ele>
        <time>2012-05-19T09:38:39Z</time>
      </trkpt>
      <trkpt lat="44.60516" lon="2.49565">
        <ele>413.02</ele>
        <time>2012-05-19T09:38:43Z</time>
      </trkpt>
      <trkpt lat="44.60513" lon="2.49551">
        <ele>418.31</ele>
        <time>2012-05-19T09:38:57Z</time>
      </trkpt>
      <trkpt lat="44.60514" lon="2.49542">
        <ele>421.68</ele>
        <time>2012-05-19T09:39:11Z</time>
      </trkpt>
      <trkpt lat="44.6051" lon="2.4953">
        <ele>425.52</ele>
        <time>2012-05-19T09:39:24Z</time>
      </trkpt>
      <trkpt lat="44.60511" lon="2.49524">
        <ele>427.44</ele>
        <time>2012-05-19T09:39:36Z</time>
      </trkpt>
      <trkpt lat="44.6051" lon="2.49523">
        <ele>426.96</ele>
        <time>2012-05-19T09:39:51Z</time>
      </trkpt>
      <trkpt lat="44.60507" lon="2.49499">
        <ele>429.85</ele>
        <time>2012-05-19T09:40:05Z</time>
      </trkpt>
      <trkpt lat="44.6051" lon="2.4948">
        <ele>430.81</ele>
        <time>2012-05-19T09:40:19Z</time>
      </trkpt>
      <trkpt lat="44.60509" lon="2.49466">
        <ele>431.77</ele>
        <time>2012-05-19T09:40:34Z</time>
      </trkpt>
      <trkpt lat="44.60499" lon="2.49451">
        <ele>433.69</ele>
        <time>2012-05-19T09:40:51Z</time>
      </trkpt>
      <trkpt lat="44.60497" lon="2.49435">
        <ele>432.73</ele>
        <time>2012-05-19T09:41:06Z</time>
      </trkpt>
      <trkpt lat="44.60497" lon="2.49424">
        <ele>432.73</ele>
        <time>2012-05-19T09:41:22Z</time>
      </trkpt>
      <trkpt lat="44.60501" lon="2.49409">
        <ele>435.61</ele>
        <time>2012-05-19T09:41:37Z</time>
      </trkpt>
      <trkpt lat="44.60501" lon="2.49392">
        <ele>439.46</ele>
        <time>2012-05-19T09:41:54Z</time>
      </trkpt>
      <trkpt lat="44.60499" lon="2.49374">
        <ele>442.34</ele>
        <time>2012-05-19T09:42:11Z</time>
      </trkpt>
      <trkpt lat="44.60497" lon="2.49356">
        <ele>442.82</ele>
        <time>2012-05-19T09:42:30Z</time>
      </trkpt>
      <trkpt lat="44.60496" lon="2.4934">
        <ele>445.23</ele>
        <time>2012-05-19T09:42:45Z</time>
      </trkpt>
      <trkpt lat="44.60491" lon="2.49322">
        <ele>448.11</ele>
        <time>2012-05-19T09:43:03Z</time>
      </trkpt>
      <trkpt lat="44.6048" lon="2.49304">
        <ele>449.55</ele>
        <time>2012-05-19T09:43:19Z</time>
      </trkpt>
      <trkpt lat="44.60474" lon="2.49291">
        <ele>452.44</ele>
        <time>2012-05-19T09:43:34Z</time>
      </trkpt>
      <trkpt lat="44.60468" lon="2.49281">
        <ele>453.88</ele>
        <time>2012-05-19T09:43:45Z</time>
      </trkpt>
      <trkpt lat="44.60459" lon="2.49257">
        <ele>454.36</ele>
        <time>2012-05-19T09:44:05Z</time>
      </trkpt>
      <trkpt lat="44.60454" lon="2.49236">
        <ele>456.76</ele>
        <time>2012-05-19T09:44:22Z</time>
      </trkpt>
      <trkpt lat="44.60458" lon="2.49225">
        <ele>459.17</ele>
        <time>2012-05-19T09:44:32Z</time>
      </trkpt>
      <trkpt lat="44.60457" lon="2.4921">
        <ele>462.05</ele>
        <time>2012-05-19T09:44:46Z</time>
      </trkpt>
      <trkpt lat="44.60444" lon="2.49202">
        <ele>465.42</ele>
        <time>2012-05-19T09:45:03Z</time>
      </trkpt>
      <trkpt lat="44.60436" lon="2.49196">
        <ele>466.86</ele>
        <time>2012-05-19T09:45:14Z</time>
      </trkpt>
      <trkpt lat="44.60424" lon="2.49184">
        <ele>468.3</ele>
        <time>2012-05-19T09:45:30Z</time>
      </trkpt>
      <trkpt lat="44.60421" lon="2.49169">
        <ele>470.7</ele>
        <time>2012-05-19T09:45:45Z</time>
      </trkpt>
      <trkpt lat="44.60416" lon="2.49152">
        <ele>473.59</ele>
        <time>2012-05-19T09:46:02Z</time>
      </trkpt>
      <trkpt lat="44.60416" lon="2.49136">
        <ele>476.47</ele>
        <time>2012-05-19T09:46:20Z</time>
      </trkpt>
      <trkpt lat="44.60416" lon="2.49136">
        <ele>476.47</ele>
        <time>2012-05-19T09:46:43Z</time>
      </trkpt>
      <trkpt lat="44.60419" lon="2.49127">
        <ele>476.95</ele>
        <time>2012-05-19T09:47:01Z</time>
      </trkpt>
      <trkpt lat="44.60421" lon="2.49122">
        <ele>476.95</ele>
        <time>2012-05-19T09:47:05Z</time>
      </trkpt>
      <trkpt lat="44.60426" lon="2.49107">
        <ele>478.87</ele>
        <time>2012-05-19T09:47:19Z</time>
      </trkpt>
      <trkpt lat="44.60432" lon="2.49086">
        <ele>482.24</ele>
        <time>2012-05-19T09:47:36Z</time>
      </trkpt>
      <trkpt lat="44.60434" lon="2.49081">
        <ele>482.72</ele>
        <time>2012-05-19T09:47:41Z</time>
      </trkpt>
      <trkpt lat="44.60446" lon="2.49062">
        <ele>485.6</ele>
        <time>2012-05-19T09:47:59Z</time>
      </trkpt>
      <trkpt lat="44.60447" lon="2.49058">
        <ele>486.08</ele>
        <time>2012-05-19T09:48:02Z</time>
      </trkpt>
      <trkpt lat="44.60454" lon="2.49037">
        <ele>487.53</ele>
        <time>2012-05-19T09:48:19Z</time>
      </trkpt>
      <trkpt lat="44.6046" lon="2.49015">
        <ele>488.49</ele>
        <time>2012-05-19T09:48:36Z</time>
      </trkpt>
      <trkpt lat="44.60466" lon="2.48994">
        <ele>489.93</ele>
        <time>2012-05-19T09:48:53Z</time>
      </trkpt>
      <trkpt lat="44.60471" lon="2.48977">
        <ele>492.33</ele>
        <time>2012-05-19T09:49:08Z</time>
      </trkpt>
      <trkpt lat="44.60477" lon="2.4896">
        <ele>494.26</ele>
        <time>2012-05-19T09:49:25Z</time>
      </trkpt>
      <trkpt lat="44.60482" lon="2.48946">
        <ele>495.7</ele>
        <time>2012-05-19T09:49:41Z</time>
      </trkpt>
      <trkpt lat="44.60488" lon="2.48928">
        <ele>498.58</ele>
        <time>2012-05-19T09:49:56Z</time>
      </trkpt>
      <trkpt lat="44.6049" lon="2.48922">
        <ele>499.06</ele>
        <time>2012-05-19T09:50:10Z</time>
      </trkpt>
      <trkpt lat="44.60493" lon="2.48913">
        <ele>498.58</ele>
        <time>2012-05-19T09:50:32Z</time>
      </trkpt>
      <trkpt lat="44.60499" lon="2.48892">
        <ele>500.5</ele>
        <time>2012-05-19T09:50:49Z</time>
      </trkpt>
      <trkpt lat="44.605" lon="2.48892">
        <ele>500.98</ele>
        <time>2012-05-19T09:51:01Z</time>
      </trkpt>
      <trkpt lat="44.60503" lon="2.48879">
        <ele>502.91</ele>
        <time>2012-05-19T09:51:20Z</time>
      </trkpt>
      <trkpt lat="44.60512" lon="2.48857">
        <ele>502.91</ele>
        <time>2012-05-19T09:51:37Z</time>
      </trkpt>
      <trkpt lat="44.60519" lon="2.48841">
        <ele>502.43</ele>
        <time>2012-05-19T09:51:51Z</time>
      </trkpt>
      <trkpt lat="44.60519" lon="2.48833">
        <ele>501.95</ele>
        <time>2012-05-19T09:51:56Z</time>
      </trkpt>
      <trkpt lat="44.60517" lon="2.48827">
        <ele>501.46</ele>
        <time>2012-05-19T09:52:01Z</time>
      </trkpt>
      <trkpt lat="44.60519" lon="2.48817">
        <ele>500.98</ele>
        <time>2012-05-19T09:52:08Z</time>
      </trkpt>
      <trkpt lat="44.60516" lon="2.48809">
        <ele>500.98</ele>
        <time>2012-05-19T09:52:19Z</time>
      </trkpt>
      <trkpt lat="44.60518" lon="2.48809">
        <ele>500.5</ele>
        <time>2012-05-19T09:52:21Z</time>
      </trkpt>
      <trkpt lat="44.60521" lon="2.48794">
        <ele>500.5</ele>
        <time>2012-05-19T09:52:35Z</time>
      </trkpt>
      <trkpt lat="44.60521" lon="2.48794">
        <ele>500.5</ele>
        <time>2012-05-19T09:52:52Z</time>
      </trkpt>
      <trkpt lat="44.60525" lon="2.48772">
        <ele>502.43</ele>
        <time>2012-05-19T09:53:07Z</time>
      </trkpt>
      <trkpt lat="44.60527" lon="2.48747">
        <ele>502.91</ele>
        <time>2012-05-19T09:53:23Z</time>
      </trkpt>
      <trkpt lat="44.60528" lon="2.48734">
        <ele>503.39</ele>
        <time>2012-05-19T09:53:32Z</time>
      </trkpt>
      <trkpt lat="44.60524" lon="2.48712">
        <ele>504.83</ele>
        <time>2012-05-19T09:53:49Z</time>
      </trkpt>
      <trkpt lat="44.60514" lon="2.48692">
        <ele>504.83</ele>
        <time>2012-05-19T09:54:05Z</time>
      </trkpt>
      <trkpt lat="44.60514" lon="2.4869">
        <ele>504.35</ele>
        <time>2012-05-19T09:54:07Z</time>
      </trkpt>
      <trkpt lat="44.60504" lon="2.48674">
        <ele>504.83</ele>
        <time>2012-05-19T09:54:22Z</time>
      </trkpt>
      <trkpt lat="44.60498" lon="2.48663">
        <ele>503.87</ele>
        <time>2012-05-19T09:54:35Z</time>
      </trkpt>
      <trkpt lat="44.60495" lon="2.48645">
        <ele>503.87</ele>
        <time>2012-05-19T09:54:50Z</time>
      </trkpt>
      <trkpt lat="44.60498" lon="2.48641">
        <ele>505.31</ele>
        <time>2012-05-19T09:54:55Z</time>
      </trkpt>
      <trkpt lat="44.60508" lon="2.48623">
        <ele>508.67</ele>
        <time>2012-05-19T09:55:12Z</time>
      </trkpt>
      <trkpt lat="44.60515" lon="2.48599">
        <ele>509.64</ele>
        <time>2012-05-19T09:55:29Z</time>
      </trkpt>
      <trkpt lat="44.60518" lon="2.48588">
        <ele>510.12</ele>
        <time>2012-05-19T09:55:37Z</time>
      </trkpt>
      <trkpt lat="44.60526" lon="2.48571">
        <ele>509.64</ele>
        <time>2012-05-19T09:55:53Z</time>
      </trkpt>
      <trkpt lat="44.6053" lon="2.4857">
        <ele>510.6</ele>
        <time>2012-05-19T09:56:13Z</time>
      </trkpt>
      <trkpt lat="44.6053" lon="2.4857">
        <ele>510.6</ele>
        <time>2012-05-19T09:56:44Z</time>
      </trkpt>
      <trkpt lat="44.6053" lon="2.4857">
        <ele>510.6</ele>
        <time>2012-05-19T09:57:19Z</time>
      </trkpt>
      <trkpt lat="44.60537" lon="2.48577">
        <ele>509.64</ele>
        <time>2012-05-19T09:57:53Z</time>
      </trkpt>
      <trkpt lat="44.60537" lon="2.48578">
        <ele>509.64</ele>
        <time>2012-05-19T09:57:54Z</time>
      </trkpt>
      <trkpt lat="44.60537" lon="2.48583">
        <ele>510.12</ele>
        <time>2012-05-19T09:58:09Z</time>
      </trkpt>
      <trkpt lat="44.60534" lon="2.48584">
        <ele>510.6</ele>
        <time>2012-05-19T09:58:30Z</time>
      </trkpt>
      <trkpt lat="44.60534" lon="2.48584">
        <ele>510.6</ele>
        <time>2012-05-19T09:58:54Z</time>
      </trkpt>
      <trkpt lat="44.60534" lon="2.48584">
        <ele>510.6</ele>
        <time>2012-05-19T09:59:23Z</time>
      </trkpt>
      <trkpt lat="44.60535" lon="2.48584">
        <ele>510.6</ele>
        <time>2012-05-19T09:59:48Z</time>
      </trkpt>
      <trkpt lat="44.60539" lon="2.48591">
        <ele>511.56</ele>
        <time>2012-05-19T09:59:56Z</time>
      </trkpt>
      <trkpt lat="44.60544" lon="2.48597">
        <ele>513.96</ele>
        <time>2012-05-19T10:00:04Z</time>
      </trkpt>
      <trkpt lat="44.60542" lon="2.48593">
        <ele>514.92</ele>
        <time>2012-05-19T10:00:15Z</time>
      </trkpt>
      <trkpt lat="44.60541" lon="2.48583">
        <ele>514.92</ele>
        <time>2012-05-19T10:00:23Z</time>
      </trkpt>
      <trkpt lat="44.6054" lon="2.48574">
        <ele>513.96</ele>
        <time>2012-05-19T10:00:41Z</time>
      </trkpt>
      <trkpt lat="44.60538" lon="2.48573">
        <ele>513</ele>
        <time>2012-05-19T10:00:43Z</time>
      </trkpt>
      <trkpt lat="44.60531" lon="2.48565">
        <ele>510.12</ele>
        <time>2012-05-19T10:00:52Z</time>
      </trkpt>
      <trkpt lat="44.60533" lon="2.48552">
        <ele>509.16</ele>
        <time>2012-05-19T10:01:00Z</time>
      </trkpt>
      <trkpt lat="44.60535" lon="2.48543">
        <ele>508.67</ele>
        <time>2012-05-19T10:01:06Z</time>
      </trkpt>
      <trkpt lat="44.60539" lon="2.4853">
        <ele>508.67</ele>
        <time>2012-05-19T10:01:17Z</time>
      </trkpt>
      <trkpt lat="44.60543" lon="2.48534">
        <ele>507.23</ele>
        <time>2012-05-19T10:01:24Z</time>
      </trkpt>
      <trkpt lat="44.60545" lon="2.48536">
        <ele>505.79</ele>
        <time>2012-05-19T10:01:27Z</time>
      </trkpt>
      <trkpt lat="44.6056" lon="2.48548">
        <ele>504.35</ele>
        <time>2012-05-19T10:01:43Z</time>
      </trkpt>
      <trkpt lat="44.60563" lon="2.4855">
        <ele>503.87</ele>
        <time>2012-05-19T10:01:46Z</time>
      </trkpt>
      <trkpt lat="44.60572" lon="2.48548">
        <ele>502.91</ele>
        <time>2012-05-19T10:02:00Z</time>
      </trkpt>
      <trkpt lat="44.60571" lon="2.48548">
        <ele>502.91</ele>
        <time>2012-05-19T10:02:01Z</time>
      </trkpt>
      <trkpt lat="44.60557" lon="2.48536">
        <ele>502.43</ele>
        <time>2012-05-19T10:02:17Z</time>
      </trkpt>
      <trkpt lat="44.60542" lon="2.48516">
        <ele>498.1</ele>
        <time>2012-05-19T10:02:35Z</time>
      </trkpt>
      <trkpt lat="44.60538" lon="2.48513">
        <ele>499.06</ele>
        <time>2012-05-19T10:02:39Z</time>
      </trkpt>
      <trkpt lat="44.60533" lon="2.48513">
        <ele>501.95</ele>
        <time>2012-05-19T10:02:47Z</time>
      </trkpt>
      <trkpt lat="44.60525" lon="2.48494">
        <ele>504.83</ele>
        <time>2012-05-19T10:03:02Z</time>
      </trkpt>
      <trkpt lat="44.60517" lon="2.48481">
        <ele>505.31</ele>
        <time>2012-05-19T10:03:14Z</time>
      </trkpt>
      <trkpt lat="44.60509" lon="2.48468">
        <ele>506.75</ele>
        <time>2012-05-19T10:03:29Z</time>
      </trkpt>
      <trkpt lat="44.60509" lon="2.48467">
        <ele>506.75</ele>
        <time>2012-05-19T10:03:52Z</time>
      </trkpt>
      <trkpt lat="44.6051" lon="2.48464">
        <ele>508.19</ele>
        <time>2012-05-19T10:03:55Z</time>
      </trkpt>
      <trkpt lat="44.60502" lon="2.48445">
        <ele>514.92</ele>
        <time>2012-05-19T10:04:12Z</time>
      </trkpt>
      <trkpt lat="44.60499" lon="2.48433">
        <ele>510.6</ele>
        <time>2012-05-19T10:04:20Z</time>
      </trkpt>
      <trkpt lat="44.60481" lon="2.48413">
        <ele>503.39</ele>
        <time>2012-05-19T10:04:39Z</time>
      </trkpt>
      <trkpt lat="44.60466" lon="2.48398">
        <ele>498.58</ele>
        <time>2012-05-19T10:04:56Z</time>
      </trkpt>
      <trkpt lat="44.60455" lon="2.48381">
        <ele>500.5</ele>
        <time>2012-05-19T10:05:11Z</time>
      </trkpt>
      <trkpt lat="44.60451" lon="2.48362">
        <ele>500.98</ele>
        <time>2012-05-19T10:05:25Z</time>
      </trkpt>
      <trkpt lat="44.60448" lon="2.48355">
        <ele>500.02</ele>
        <time>2012-05-19T10:05:31Z</time>
      </trkpt>
      <trkpt lat="44.60449" lon="2.48354">
        <ele>500.5</ele>
        <time>2012-05-19T10:05:33Z</time>
      </trkpt>
      <trkpt lat="44.60448" lon="2.48337">
        <ele>503.39</ele>
        <time>2012-05-19T10:05:46Z</time>
      </trkpt>
      <trkpt lat="44.60453" lon="2.48318">
        <ele>506.75</ele>
        <time>2012-05-19T10:06:00Z</time>
      </trkpt>
      <trkpt lat="44.60456" lon="2.48305">
        <ele>509.16</ele>
        <time>2012-05-19T10:06:13Z</time>
      </trkpt>
      <trkpt lat="44.60456" lon="2.48285">
        <ele>510.12</ele>
        <time>2012-05-19T10:06:27Z</time>
      </trkpt>
      <trkpt lat="44.6046" lon="2.48271">
        <ele>511.08</ele>
        <time>2012-05-19T10:06:40Z</time>
      </trkpt>
      <trkpt lat="44.6046" lon="2.48268">
        <ele>513</ele>
        <time>2012-05-19T10:06:54Z</time>
      </trkpt>
      <trkpt lat="44.60464" lon="2.48261">
        <ele>513.96</ele>
        <time>2012-05-19T10:07:07Z</time>
      </trkpt>
      <trkpt lat="44.60474" lon="2.48252">
        <ele>515.4</ele>
        <time>2012-05-19T10:07:22Z</time>
      </trkpt>
      <trkpt lat="44.60484" lon="2.48241">
        <ele>519.25</ele>
        <time>2012-05-19T10:07:39Z</time>
      </trkpt>
      <trkpt lat="44.60487" lon="2.48234">
        <ele>521.17</ele>
        <time>2012-05-19T10:07:55Z</time>
      </trkpt>
      <trkpt lat="44.60489" lon="2.48232">
        <ele>521.65</ele>
        <time>2012-05-19T10:08:00Z</time>
      </trkpt>
      <trkpt lat="44.60496" lon="2.48225">
        <ele>522.61</ele>
        <time>2012-05-19T10:08:09Z</time>
      </trkpt>
      <trkpt lat="44.60506" lon="2.48206">
        <ele>525.98</ele>
        <time>2012-05-19T10:08:26Z</time>
      </trkpt>
      <trkpt lat="44.60512" lon="2.48189">
        <ele>527.42</ele>
        <time>2012-05-19T10:08:43Z</time>
      </trkpt>
      <trkpt lat="44.60516" lon="2.48179">
        <ele>527.9</ele>
        <time>2012-05-19T10:08:58Z</time>
      </trkpt>
      <trkpt lat="44.60519" lon="2.48162">
        <ele>530.3</ele>
        <time>2012-05-19T10:09:15Z</time>
      </trkpt>
      <trkpt lat="44.6052" lon="2.48143">
        <ele>531.75</ele>
        <time>2012-05-19T10:09:34Z</time>
      </trkpt>
      <trkpt lat="44.60527" lon="2.48134">
        <ele>533.67</ele>
        <time>2012-05-19T10:09:52Z</time>
      </trkpt>
      <trkpt lat="44.60536" lon="2.48117">
        <ele>537.51</ele>
        <time>2012-05-19T10:10:07Z</time>
      </trkpt>
      <trkpt lat="44.60543" lon="2.48102">
        <ele>539.44</ele>
        <time>2012-05-19T10:10:21Z</time>
      </trkpt>
      <trkpt lat="44.60548" lon="2.48085">
        <ele>541.84</ele>
        <time>2012-05-19T10:10:37Z</time>
      </trkpt>
      <trkpt lat="44.60554" lon="2.48067">
        <ele>543.28</ele>
        <time>2012-05-19T10:10:53Z</time>
      </trkpt>
      <trkpt lat="44.60557" lon="2.48058">
        <ele>544.24</ele>
        <time>2012-05-19T10:11:05Z</time>
      </trkpt>
      <trkpt lat="44.6056" lon="2.4804">
        <ele>546.17</ele>
        <time>2012-05-19T10:11:23Z</time>
      </trkpt>
      <trkpt lat="44.60556" lon="2.48027">
        <ele>549.05</ele>
        <time>2012-05-19T10:11:37Z</time>
      </trkpt>
      <trkpt lat="44.60549" lon="2.4803">
        <ele>548.57</ele>
        <time>2012-05-19T10:11:45Z</time>
      </trkpt>
      <trkpt lat="44.60543" lon="2.48047">
        <ele>549.05</ele>
        <time>2012-05-19T10:12:01Z</time>
      </trkpt>
      <trkpt lat="44.60533" lon="2.4805">
        <ele>550.01</ele>
        <time>2012-05-19T10:12:17Z</time>
      </trkpt>
      <trkpt lat="44.60516" lon="2.48053">
        <ele>550.97</ele>
        <time>2012-05-19T10:12:32Z</time>
      </trkpt>
      <trkpt lat="44.6051" lon="2.48056">
        <ele>551.45</ele>
        <time>2012-05-19T10:12:39Z</time>
      </trkpt>
      <trkpt lat="44.60494" lon="2.48059">
        <ele>551.93</ele>
        <time>2012-05-19T10:12:54Z</time>
      </trkpt>
      <trkpt lat="44.60477" lon="2.48063">
        <ele>549.53</ele>
        <time>2012-05-19T10:13:10Z</time>
      </trkpt>
      <trkpt lat="44.60461" lon="2.48066">
        <ele>550.01</ele>
        <time>2012-05-19T10:13:25Z</time>
      </trkpt>
      <trkpt lat="44.60444" lon="2.48067">
        <ele>550.01</ele>
        <time>2012-05-19T10:13:40Z</time>
      </trkpt>
      <trkpt lat="44.60443" lon="2.48068">
        <ele>550.01</ele>
        <time>2012-05-19T10:13:41Z</time>
      </trkpt>
      <trkpt lat="44.6044" lon="2.48073">
        <ele>550.01</ele>
        <time>2012-05-19T10:13:55Z</time>
      </trkpt>
      <trkpt lat="44.60434" lon="2.48077">
        <ele>548.09</ele>
        <time>2012-05-19T10:14:04Z</time>
      </trkpt>
      <trkpt lat="44.60429" lon="2.48082">
        <ele>546.65</ele>
        <time>2012-05-19T10:14:17Z</time>
      </trkpt>
      <trkpt lat="44.60429" lon="2.48082">
        <ele>546.65</ele>
        <time>2012-05-19T10:14:41Z</time>
      </trkpt>
      <trkpt lat="44.60437" lon="2.4808">
        <ele>547.61</ele>
        <time>2012-05-19T10:14:54Z</time>
      </trkpt>
      <trkpt lat="44.6044" lon="2.48079">
        <ele>548.57</ele>
        <time>2012-05-19T10:15:01Z</time>
      </trkpt>
      <trkpt lat="44.60446" lon="2.48078">
        <ele>549.05</ele>
        <time>2012-05-19T10:15:06Z</time>
      </trkpt>
      <trkpt lat="44.60455" lon="2.48074">
        <ele>550.49</ele>
        <time>2012-05-19T10:15:15Z</time>
      </trkpt>
      <trkpt lat="44.60463" lon="2.48072">
        <ele>550.01</ele>
        <time>2012-05-19T10:15:28Z</time>
      </trkpt>
      <trkpt lat="44.60469" lon="2.48072">
        <ele>550.97</ele>
        <time>2012-05-19T10:15:35Z</time>
      </trkpt>
      <trkpt lat="44.60481" lon="2.48068">
        <ele>551.45</ele>
        <time>2012-05-19T10:15:53Z</time>
      </trkpt>
      <trkpt lat="44.60481" lon="2.48068">
        <ele>551.45</ele>
        <time>2012-05-19T10:16:11Z</time>
      </trkpt>
      <trkpt lat="44.60482" lon="2.48068">
        <ele>551.93</ele>
        <time>2012-05-19T10:16:48Z</time>
      </trkpt>
      <trkpt lat="44.60481" lon="2.48068">
        <ele>552.41</ele>
        <time>2012-05-19T10:17:16Z</time>
      </trkpt>
      <trkpt lat="44.60481" lon="2.48068">
        <ele>552.41</ele>
        <time>2012-05-19T10:17:40Z</time>
      </trkpt>
      <trkpt lat="44.60481" lon="2.48068">
        <ele>552.9</ele>
        <time>2012-05-19T10:18:10Z</time>
      </trkpt>
      <trkpt lat="44.60482" lon="2.48068">
        <ele>553.38</ele>
        <time>2012-05-19T10:18:35Z</time>
      </trkpt>
      <trkpt lat="44.60481" lon="2.48068">
        <ele>553.86</ele>
        <time>2012-05-19T10:19:11Z</time>
      </trkpt>
      <trkpt lat="44.60481" lon="2.48068">
        <ele>553.86</ele>
        <time>2012-05-19T10:19:33Z</time>
      </trkpt>
      <trkpt lat="44.60481" lon="2.48067">
        <ele>553.86</ele>
        <time>2012-05-19T10:20:06Z</time>
      </trkpt>
      <trkpt lat="44.60481" lon="2.48067">
        <ele>554.34</ele>
        <time>2012-05-19T10:20:39Z</time>
      </trkpt>
      <trkpt lat="44.60481" lon="2.48067">
        <ele>553.86</ele>
        <time>2012-05-19T10:21:07Z</time>
      </trkpt>
      <trkpt lat="44.60481" lon="2.48067">
        <ele>553.86</ele>
        <time>2012-05-19T10:21:35Z</time>
      </trkpt>
      <trkpt lat="44.60482" lon="2.48067">
        <ele>553.86</ele>
        <time>2012-05-19T10:22:00Z</time>
      </trkpt>
      <trkpt lat="44.60481" lon="2.48067">
        <ele>553.86</ele>
        <time>2012-05-19T10:22:26Z</time>
      </trkpt>
      <trkpt lat="44.60481" lon="2.48067">
        <ele>553.86</ele>
        <time>2012-05-19T10:23:00Z</time>
      </trkpt>
      <trkpt lat="44.60481" lon="2.48066">
        <ele>554.34</ele>
        <time>2012-05-19T10:23:29Z</time>
      </trkpt>
      <trkpt lat="44.60481" lon="2.48067">
        <ele>554.82</ele>
        <time>2012-05-19T10:23:54Z</time>
      </trkpt>
      <trkpt lat="44.60481" lon="2.48067">
        <ele>554.82</ele>
        <time>2012-05-19T10:24:25Z</time>
      </trkpt>
      <trkpt lat="44.60481" lon="2.48067">
        <ele>554.82</ele>
        <time>2012-05-19T10:24:58Z</time>
      </trkpt>
      <trkpt lat="44.60482" lon="2.48067">
        <ele>554.82</ele>
        <time>2012-05-19T10:25:34Z</time>
      </trkpt>
      <trkpt lat="44.60482" lon="2.48067">
        <ele>555.3</ele>
        <time>2012-05-19T10:26:13Z</time>
      </trkpt>
      <trkpt lat="44.60482" lon="2.48067">
        <ele>554.82</ele>
        <time>2012-05-19T10:26:44Z</time>
      </trkpt>
      <trkpt lat="44.60481" lon="2.48067">
        <ele>555.3</ele>
        <time>2012-05-19T10:27:10Z</time>
      </trkpt>
      <trkpt lat="44.60481" lon="2.48067">
        <ele>555.3</ele>
        <time>2012-05-19T10:27:39Z</time>
      </trkpt>
      <trkpt lat="44.60481" lon="2.48069">
        <ele>555.78</ele>
        <time>2012-05-19T10:28:13Z</time>
      </trkpt>
      <trkpt lat="44.60481" lon="2.48069">
        <ele>556.26</ele>
        <time>2012-05-19T10:28:45Z</time>
      </trkpt>
      <trkpt lat="44.60482" lon="2.4807">
        <ele>557.22</ele>
        <time>2012-05-19T10:29:08Z</time>
      </trkpt>
      <trkpt lat="44.60482" lon="2.4807">
        <ele>557.22</ele>
        <time>2012-05-19T10:29:36Z</time>
      </trkpt>
      <trkpt lat="44.60482" lon="2.4807">
        <ele>557.22</ele>
        <time>2012-05-19T10:30:09Z</time>
      </trkpt>
      <trkpt lat="44.60482" lon="2.48069">
        <ele>557.22</ele>
        <time>2012-05-19T10:30:44Z</time>
      </trkpt>
      <trkpt lat="44.60482" lon="2.48069">
        <ele>557.22</ele>
        <time>2012-05-19T10:31:12Z</time>
      </trkpt>
      <trkpt lat="44.60481" lon="2.48069">
        <ele>557.7</ele>
        <time>2012-05-19T10:31:48Z</time>
      </trkpt>
      <trkpt lat="44.60481" lon="2.48069">
        <ele>557.7</ele>
        <time>2012-05-19T10:32:12Z</time>
      </trkpt>
      <trkpt lat="44.60481" lon="2.48069">
        <ele>557.7</ele>
        <time>2012-05-19T10:32:44Z</time>
      </trkpt>
      <trkpt lat="44.60481" lon="2.48069">
        <ele>557.22</ele>
        <time>2012-05-19T10:33:13Z</time>
      </trkpt>
      <trkpt lat="44.60481" lon="2.48069">
        <ele>557.22</ele>
        <time>2012-05-19T10:33:44Z</time>
      </trkpt>
      <trkpt lat="44.60482" lon="2.48067">
        <ele>557.7</ele>
        <time>2012-05-19T10:34:17Z</time>
      </trkpt>
      <trkpt lat="44.60482" lon="2.48067">
        <ele>557.7</ele>
        <time>2012-05-19T10:34:58Z</time>
      </trkpt>
      <trkpt lat="44.60482" lon="2.48067">
        <ele>557.7</ele>
        <time>2012-05-19T10:35:25Z</time>
      </trkpt>
      <trkpt lat="44.60482" lon="2.48068">
        <ele>557.22</ele>
        <time>2012-05-19T10:36:01Z</time>
      </trkpt>
      <trkpt lat="44.60482" lon="2.48069">
        <ele>557.22</ele>
        <time>2012-05-19T10:36:31Z</time>
      </trkpt>
      <trkpt lat="44.60482" lon="2.48069">
        <ele>557.22</ele>
        <time>2012-05-19T10:36:57Z</time>
      </trkpt>
      <trkpt lat="44.60482" lon="2.48069">
        <ele>557.22</ele>
        <time>2012-05-19T10:37:26Z</time>
      </trkpt>
      <trkpt lat="44.60482" lon="2.48069">
        <ele>557.22</ele>
        <time>2012-05-19T10:37:50Z</time>
      </trkpt>
      <trkpt lat="44.60482" lon="2.48069">
        <ele>557.22</ele>
        <time>2012-05-19T10:38:19Z</time>
      </trkpt>
      <trkpt lat="44.60482" lon="2.48068">
        <ele>557.22</ele>
        <time>2012-05-19T10:38:48Z</time>
      </trkpt>
      <trkpt lat="44.60483" lon="2.48068">
        <ele>557.22</ele>
        <time>2012-05-19T10:39:21Z</time>
      </trkpt>
      <trkpt lat="44.60483" lon="2.48068">
        <ele>557.22</ele>
        <time>2012-05-19T10:39:47Z</time>
      </trkpt>
      <trkpt lat="44.60483" lon="2.48068">
        <ele>557.22</ele>
        <time>2012-05-19T10:40:14Z</time>
      </trkpt>
      <trkpt lat="44.60482" lon="2.48068">
        <ele>556.74</ele>
        <time>2012-05-19T10:40:50Z</time>
      </trkpt>
      <trkpt lat="44.60482" lon="2.48068">
        <ele>556.74</ele>
        <time>2012-05-19T10:41:18Z</time>
      </trkpt>
      <trkpt lat="44.60482" lon="2.48068">
        <ele>556.74</ele>
        <time>2012-05-19T10:41:48Z</time>
      </trkpt>
      <trkpt lat="44.60482" lon="2.48068">
        <ele>556.74</ele>
        <time>2012-05-19T10:42:16Z</time>
      </trkpt>
      <trkpt lat="44.60482" lon="2.48067">
        <ele>556.26</ele>
        <time>2012-05-19T10:42:50Z</time>
      </trkpt>
      <trkpt lat="44.60482" lon="2.48067">
        <ele>556.26</ele>
        <time>2012-05-19T10:43:19Z</time>
      </trkpt>
      <trkpt lat="44.60482" lon="2.48067">
        <ele>556.26</ele>
        <time>2012-05-19T10:43:43Z</time>
      </trkpt>
      <trkpt lat="44.60482" lon="2.48068">
        <ele>555.78</ele>
        <time>2012-05-19T10:44:02Z</time>
      </trkpt>
      <trkpt lat="44.60481" lon="2.48067">
        <ele>555.78</ele>
        <time>2012-05-19T10:44:38Z</time>
      </trkpt>
      <trkpt lat="44.60481" lon="2.48067">
        <ele>555.78</ele>
        <time>2012-05-19T10:45:10Z</time>
      </trkpt>
      <trkpt lat="44.60481" lon="2.48069">
        <ele>555.78</ele>
        <time>2012-05-19T10:45:37Z</time>
      </trkpt>
      <trkpt lat="44.60481" lon="2.48069">
        <ele>555.3</ele>
        <time>2012-05-19T10:46:04Z</time>
      </trkpt>
      <trkpt lat="44.60481" lon="2.48069">
        <ele>555.3</ele>
        <time>2012-05-19T10:46:33Z</time>
      </trkpt>
      <trkpt lat="44.60481" lon="2.48068">
        <ele>555.78</ele>
        <time>2012-05-19T10:46:58Z</time>
      </trkpt>
      <trkpt lat="44.60481" lon="2.48068">
        <ele>555.3</ele>
        <time>2012-05-19T10:47:41Z</time>
      </trkpt>
      <trkpt lat="44.60482" lon="2.48067">
        <ele>554.34</ele>
        <time>2012-05-19T10:47:55Z</time>
      </trkpt>
      <trkpt lat="44.60484" lon="2.48068">
        <ele>553.38</ele>
        <time>2012-05-19T10:48:08Z</time>
      </trkpt>
      <trkpt lat="44.60483" lon="2.48067">
        <ele>552.9</ele>
        <time>2012-05-19T10:48:36Z</time>
      </trkpt>
      <trkpt lat="44.60483" lon="2.48068">
        <ele>552.9</ele>
        <time>2012-05-19T10:48:51Z</time>
      </trkpt>
      <trkpt lat="44.60483" lon="2.48068">
        <ele>552.9</ele>
        <time>2012-05-19T10:49:10Z</time>
      </trkpt>
      <trkpt lat="44.60483" lon="2.48068">
        <ele>553.38</ele>
        <time>2012-05-19T10:49:39Z</time>
      </trkpt>
      <trkpt lat="44.60483" lon="2.48068">
        <ele>553.38</ele>
        <time>2012-05-19T10:50:00Z</time>
      </trkpt>
      <trkpt lat="44.60484" lon="2.48067">
        <ele>552.9</ele>
        <time>2012-05-19T10:50:24Z</time>
      </trkpt>
      <trkpt lat="44.60488" lon="2.48066">
        <ele>551.45</ele>
        <time>2012-05-19T10:50:34Z</time>
      </trkpt>
      <trkpt lat="44.60504" lon="2.4806">
        <ele>552.41</ele>
        <time>2012-05-19T10:50:50Z</time>
      </trkpt>
      <trkpt lat="44.60518" lon="2.48054">
        <ele>551.45</ele>
        <time>2012-05-19T10:51:05Z</time>
      </trkpt>
      <trkpt lat="44.60534" lon="2.48051">
        <ele>552.41</ele>
        <time>2012-05-19T10:51:18Z</time>
      </trkpt>
      <trkpt lat="44.60543" lon="2.48049">
        <ele>551.45</ele>
        <time>2012-05-19T10:51:26Z</time>
      </trkpt>
      <trkpt lat="44.60551" lon="2.48027">
        <ele>547.13</ele>
        <time>2012-05-19T10:51:42Z</time>
      </trkpt>
      <trkpt lat="44.60558" lon="2.4801">
        <ele>547.61</ele>
        <time>2012-05-19T10:51:59Z</time>
      </trkpt>
      <trkpt lat="44.60551" lon="2.48001">
        <ele>550.01</ele>
        <time>2012-05-19T10:52:13Z</time>
      </trkpt>
      <trkpt lat="44.60547" lon="2.48002">
        <ele>550.97</ele>
        <time>2012-05-19T10:52:30Z</time>
      </trkpt>
      <trkpt lat="44.60546" lon="2.48004">
        <ele>550.49</ele>
        <time>2012-05-19T10:52:45Z</time>
      </trkpt>
      <trkpt lat="44.60546" lon="2.48002">
        <ele>550.49</ele>
        <time>2012-05-19T10:53:05Z</time>
      </trkpt>
      <trkpt lat="44.60546" lon="2.48002">
        <ele>550.49</ele>
        <time>2012-05-19T10:53:31Z</time>
      </trkpt>
      <trkpt lat="44.60546" lon="2.48002">
        <ele>550.49</ele>
        <time>2012-05-19T10:53:53Z</time>
      </trkpt>
      <trkpt lat="44.60546" lon="2.48002">
        <ele>550.49</ele>
        <time>2012-05-19T10:54:15Z</time>
      </trkpt>
      <trkpt lat="44.60556" lon="2.47993">
        <ele>552.41</ele>
        <time>2012-05-19T10:54:30Z</time>
      </trkpt>
      <trkpt lat="44.60556" lon="2.47989">
        <ele>552.41</ele>
        <time>2012-05-19T10:54:33Z</time>
      </trkpt>
      <trkpt lat="44.6056" lon="2.47972">
        <ele>554.34</ele>
        <time>2012-05-19T10:54:48Z</time>
      </trkpt>
      <trkpt lat="44.60563" lon="2.47956">
        <ele>555.3</ele>
        <time>2012-05-19T10:55:03Z</time>
      </trkpt>
      <trkpt lat="44.60575" lon="2.47942">
        <ele>561.55</ele>
        <time>2012-05-19T10:55:22Z</time>
      </trkpt>
      <trkpt lat="44.60585" lon="2.47937">
        <ele>565.87</ele>
        <time>2012-05-19T10:55:36Z</time>
      </trkpt>
      <trkpt lat="44.60593" lon="2.47931">
        <ele>569.72</ele>
        <time>2012-05-19T10:55:50Z</time>
      </trkpt>
      <trkpt lat="44.60597" lon="2.47921">
        <ele>570.68</ele>
        <time>2012-05-19T10:56:06Z</time>
      </trkpt>
      <trkpt lat="44.60606" lon="2.479">
        <ele>570.68</ele>
        <time>2012-05-19T10:56:22Z</time>
      </trkpt>
      <trkpt lat="44.60611" lon="2.47891">
        <ele>570.2</ele>
        <time>2012-05-19T10:56:37Z</time>
      </trkpt>
      <trkpt lat="44.60613" lon="2.47881">
        <ele>570.2</ele>
        <time>2012-05-19T10:56:51Z</time>
      </trkpt>
      <trkpt lat="44.60616" lon="2.47862">
        <ele>567.32</ele>
        <time>2012-05-19T10:57:07Z</time>
      </trkpt>
      <trkpt lat="44.60621" lon="2.4784">
        <ele>562.03</ele>
        <time>2012-05-19T10:57:25Z</time>
      </trkpt>
      <trkpt lat="44.60628" lon="2.47824">
        <ele>559.14</ele>
        <time>2012-05-19T10:57:41Z</time>
      </trkpt>
      <trkpt lat="44.60628" lon="2.47823">
        <ele>559.14</ele>
        <time>2012-05-19T10:57:42Z</time>
      </trkpt>
      <trkpt lat="44.6063" lon="2.47806">
        <ele>562.99</ele>
        <time>2012-05-19T10:57:57Z</time>
      </trkpt>
      <trkpt lat="44.60627" lon="2.47791">
        <ele>565.39</ele>
        <time>2012-05-19T10:58:11Z</time>
      </trkpt>
      <trkpt lat="44.60621" lon="2.47776">
        <ele>567.8</ele>
        <time>2012-05-19T10:58:25Z</time>
      </trkpt>
      <trkpt lat="44.6061" lon="2.47755">
        <ele>575.01</ele>
        <time>2012-05-19T10:58:43Z</time>
      </trkpt>
      <trkpt lat="44.60605" lon="2.47744">
        <ele>576.45</ele>
        <time>2012-05-19T10:58:53Z</time>
      </trkpt>
      <trkpt lat="44.60602" lon="2.47739">
        <ele>578.37</ele>
        <time>2012-05-19T10:58:58Z</time>
      </trkpt>
      <trkpt lat="44.60592" lon="2.47716">
        <ele>582.22</ele>
        <time>2012-05-19T10:59:16Z</time>
      </trkpt>
      <trkpt lat="44.60583" lon="2.477">
        <ele>584.14</ele>
        <time>2012-05-19T10:59:30Z</time>
      </trkpt>
      <trkpt lat="44.60571" lon="2.47681">
        <ele>585.58</ele>
        <time>2012-05-19T10:59:46Z</time>
      </trkpt>
      <trkpt lat="44.60562" lon="2.47666">
        <ele>586.54</ele>
        <time>2012-05-19T10:59:59Z</time>
      </trkpt>
      <trkpt lat="44.60558" lon="2.4764">
        <ele>587.5</ele>
        <time>2012-05-19T11:00:16Z</time>
      </trkpt>
      <trkpt lat="44.60555" lon="2.47618">
        <ele>587.5</ele>
        <time>2012-05-19T11:00:31Z</time>
      </trkpt>
      <trkpt lat="44.6055" lon="2.47592">
        <ele>585.58</ele>
        <time>2012-05-19T11:00:48Z</time>
      </trkpt>
      <trkpt lat="44.60547" lon="2.47579">
        <ele>585.1</ele>
        <time>2012-05-19T11:00:56Z</time>
      </trkpt>
      <trkpt lat="44.60544" lon="2.47562">
        <ele>585.1</ele>
        <time>2012-05-19T11:01:07Z</time>
      </trkpt>
      <trkpt lat="44.60543" lon="2.47535">
        <ele>587.02</ele>
        <time>2012-05-19T11:01:25Z</time>
      </trkpt>
      <trkpt lat="44.60542" lon="2.47513">
        <ele>588.95</ele>
        <time>2012-05-19T11:01:42Z</time>
      </trkpt>
      <trkpt lat="44.60536" lon="2.47492">
        <ele>588.95</ele>
        <time>2012-05-19T11:01:57Z</time>
      </trkpt>
      <trkpt lat="44.60532" lon="2.47474">
        <ele>590.39</ele>
        <time>2012-05-19T11:02:12Z</time>
      </trkpt>
      <trkpt lat="44.60533" lon="2.47459">
        <ele>593.75</ele>
        <time>2012-05-19T11:02:26Z</time>
      </trkpt>
      <trkpt lat="44.6054" lon="2.47434">
        <ele>595.67</ele>
        <time>2012-05-19T11:02:45Z</time>
      </trkpt>
      <trkpt lat="44.60544" lon="2.47416">
        <ele>597.6</ele>
        <time>2012-05-19T11:02:59Z</time>
      </trkpt>
      <trkpt lat="44.60546" lon="2.47406">
        <ele>599.04</ele>
        <time>2012-05-19T11:03:07Z</time>
      </trkpt>
      <trkpt lat="44.60547" lon="2.47388">
        <ele>600</ele>
        <time>2012-05-19T11:03:22Z</time>
      </trkpt>
      <trkpt lat="44.60546" lon="2.47366">
        <ele>601.44</ele>
        <time>2012-05-19T11:03:37Z</time>
      </trkpt>
      <trkpt lat="44.60544" lon="2.47341">
        <ele>602.4</ele>
        <time>2012-05-19T11:03:53Z</time>
      </trkpt>
      <trkpt lat="44.60543" lon="2.47322">
        <ele>605.29</ele>
        <time>2012-05-19T11:04:07Z</time>
      </trkpt>
      <trkpt lat="44.6054" lon="2.47298">
        <ele>604.81</ele>
        <time>2012-05-19T11:04:24Z</time>
      </trkpt>
      <trkpt lat="44.60536" lon="2.47279">
        <ele>604.33</ele>
        <time>2012-05-19T11:04:37Z</time>
      </trkpt>
      <trkpt lat="44.60534" lon="2.47254">
        <ele>606.25</ele>
        <time>2012-05-19T11:04:53Z</time>
      </trkpt>
      <trkpt lat="44.60528" lon="2.47234">
        <ele>608.17</ele>
        <time>2012-05-19T11:05:10Z</time>
      </trkpt>
      <trkpt lat="44.60519" lon="2.47209">
        <ele>608.65</ele>
        <time>2012-05-19T11:05:25Z</time>
      </trkpt>
      <trkpt lat="44.60517" lon="2.47187">
        <ele>607.69</ele>
        <time>2012-05-19T11:05:40Z</time>
      </trkpt>
      <trkpt lat="44.60519" lon="2.47162">
        <ele>607.21</ele>
        <time>2012-05-19T11:05:54Z</time>
      </trkpt>
      <trkpt lat="44.6052" lon="2.47133">
        <ele>607.21</ele>
        <time>2012-05-19T11:06:13Z</time>
      </trkpt>
      <trkpt lat="44.60521" lon="2.47128">
        <ele>607.69</ele>
        <time>2012-05-19T11:06:28Z</time>
      </trkpt>
      <trkpt lat="44.60523" lon="2.47107">
        <ele>604.33</ele>
        <time>2012-05-19T11:06:49Z</time>
      </trkpt>
      <trkpt lat="44.60526" lon="2.47086">
        <ele>601.44</ele>
        <time>2012-05-19T11:07:03Z</time>
      </trkpt>
      <trkpt lat="44.60532" lon="2.47059">
        <ele>602.4</ele>
        <time>2012-05-19T11:07:22Z</time>
      </trkpt>
      <trkpt lat="44.60535" lon="2.47043">
        <ele>602.4</ele>
        <time>2012-05-19T11:07:33Z</time>
      </trkpt>
      <trkpt lat="44.60536" lon="2.47036">
        <ele>601.92</ele>
        <time>2012-05-19T11:07:37Z</time>
      </trkpt>
      <trkpt lat="44.60546" lon="2.47013">
        <ele>601.92</ele>
        <time>2012-05-19T11:07:54Z</time>
      </trkpt>
      <trkpt lat="44.60549" lon="2.47005">
        <ele>602.4</ele>
        <time>2012-05-19T11:08:01Z</time>
      </trkpt>
      <trkpt lat="44.60556" lon="2.46982">
        <ele>601.92</ele>
        <time>2012-05-19T11:08:17Z</time>
      </trkpt>
      <trkpt lat="44.60562" lon="2.46957">
        <ele>601.44</ele>
        <time>2012-05-19T11:08:33Z</time>
      </trkpt>
      <trkpt lat="44.60564" lon="2.46948">
        <ele>600.96</ele>
        <time>2012-05-19T11:08:39Z</time>
      </trkpt>
      <trkpt lat="44.60574" lon="2.46925">
        <ele>599.04</ele>
        <time>2012-05-19T11:08:56Z</time>
      </trkpt>
      <trkpt lat="44.60578" lon="2.46912">
        <ele>598.56</ele>
        <time>2012-05-19T11:09:12Z</time>
      </trkpt>
      <trkpt lat="44.60586" lon="2.46891">
        <ele>599.52</ele>
        <time>2012-05-19T11:09:27Z</time>
      </trkpt>
      <trkpt lat="44.60592" lon="2.46869">
        <ele>598.56</ele>
        <time>2012-05-19T11:09:42Z</time>
      </trkpt>
      <trkpt lat="44.60591" lon="2.46842">
        <ele>600.48</ele>
        <time>2012-05-19T11:09:58Z</time>
      </trkpt>
      <trkpt lat="44.60593" lon="2.46819">
        <ele>601.44</ele>
        <time>2012-05-19T11:10:12Z</time>
      </trkpt>
      <trkpt lat="44.60594" lon="2.46793">
        <ele>601.92</ele>
        <time>2012-05-19T11:10:29Z</time>
      </trkpt>
      <trkpt lat="44.60594" lon="2.4679">
        <ele>601.92</ele>
        <time>2012-05-19T11:10:31Z</time>
      </trkpt>
      <trkpt lat="44.60595" lon="2.46778">
        <ele>601.92</ele>
        <time>2012-05-19T11:10:39Z</time>
      </trkpt>
      <trkpt lat="44.60596" lon="2.46765">
        <ele>602.4</ele>
        <time>2012-05-19T11:10:47Z</time>
      </trkpt>
      <trkpt lat="44.60603" lon="2.46742">
        <ele>604.33</ele>
        <time>2012-05-19T11:11:04Z</time>
      </trkpt>
      <trkpt lat="44.6061" lon="2.46721">
        <ele>604.33</ele>
        <time>2012-05-19T11:11:19Z</time>
      </trkpt>
      <trkpt lat="44.60617" lon="2.467">
        <ele>605.77</ele>
        <time>2012-05-19T11:11:34Z</time>
      </trkpt>
      <trkpt lat="44.60624" lon="2.46677">
        <ele>606.73</ele>
        <time>2012-05-19T11:11:49Z</time>
      </trkpt>
      <trkpt lat="44.60632" lon="2.46654">
        <ele>607.69</ele>
        <time>2012-05-19T11:12:05Z</time>
      </trkpt>
      <trkpt lat="44.60641" lon="2.46627">
        <ele>609.13</ele>
        <time>2012-05-19T11:12:24Z</time>
      </trkpt>
      <trkpt lat="44.60648" lon="2.46604">
        <ele>610.09</ele>
        <time>2012-05-19T11:12:40Z</time>
      </trkpt>
      <trkpt lat="44.60655" lon="2.4658">
        <ele>611.06</ele>
        <time>2012-05-19T11:12:56Z</time>
      </trkpt>
      <trkpt lat="44.60659" lon="2.46557">
        <ele>610.57</ele>
        <time>2012-05-19T11:13:11Z</time>
      </trkpt>
      <trkpt lat="44.60661" lon="2.46538">
        <ele>610.09</ele>
        <time>2012-05-19T11:13:24Z</time>
      </trkpt>
      <trkpt lat="44.60662" lon="2.46522">
        <ele>610.09</ele>
        <time>2012-05-19T11:13:36Z</time>
      </trkpt>
      <trkpt lat="44.60663" lon="2.46497">
        <ele>609.61</ele>
        <time>2012-05-19T11:13:52Z</time>
      </trkpt>
      <trkpt lat="44.60662" lon="2.46475">
        <ele>609.61</ele>
        <time>2012-05-19T11:14:07Z</time>
      </trkpt>
      <trkpt lat="44.60662" lon="2.46451">
        <ele>609.61</ele>
        <time>2012-05-19T11:14:23Z</time>
      </trkpt>
      <trkpt lat="44.60663" lon="2.46425">
        <ele>611.06</ele>
        <time>2012-05-19T11:14:40Z</time>
      </trkpt>
      <trkpt lat="44.60664" lon="2.464">
        <ele>612.02</ele>
        <time>2012-05-19T11:14:56Z</time>
      </trkpt>
      <trkpt lat="44.60668" lon="2.46377">
        <ele>612.5</ele>
        <time>2012-05-19T11:15:12Z</time>
      </trkpt>
      <trkpt lat="44.60672" lon="2.46357">
        <ele>612.98</ele>
        <time>2012-05-19T11:15:27Z</time>
      </trkpt>
      <trkpt lat="44.60677" lon="2.46335">
        <ele>615.38</ele>
        <time>2012-05-19T11:15:44Z</time>
      </trkpt>
      <trkpt lat="44.60681" lon="2.46315">
        <ele>617.78</ele>
        <time>2012-05-19T11:16:00Z</time>
      </trkpt>
      <trkpt lat="44.60685" lon="2.46293">
        <ele>619.23</ele>
        <time>2012-05-19T11:16:17Z</time>
      </trkpt>
      <trkpt lat="44.60689" lon="2.46268">
        <ele>620.19</ele>
        <time>2012-05-19T11:16:34Z</time>
      </trkpt>
      <trkpt lat="44.60692" lon="2.46249">
        <ele>621.63</ele>
        <time>2012-05-19T11:16:48Z</time>
      </trkpt>
      <trkpt lat="44.60696" lon="2.4623">
        <ele>622.59</ele>
        <time>2012-05-19T11:17:02Z</time>
      </trkpt>
      <trkpt lat="44.607" lon="2.46212">
        <ele>623.07</ele>
        <time>2012-05-19T11:17:15Z</time>
      </trkpt>
      <trkpt lat="44.607" lon="2.46188">
        <ele>623.55</ele>
        <time>2012-05-19T11:17:30Z</time>
      </trkpt>
      <trkpt lat="44.607" lon="2.46161">
        <ele>623.55</ele>
        <time>2012-05-19T11:17:46Z</time>
      </trkpt>
      <trkpt lat="44.60707" lon="2.46137">
        <ele>624.99</ele>
        <time>2012-05-19T11:18:02Z</time>
      </trkpt>
      <trkpt lat="44.60709" lon="2.46133">
        <ele>624.99</ele>
        <time>2012-05-19T11:18:06Z</time>
      </trkpt>
      <trkpt lat="44.60728" lon="2.46129">
        <ele>627.88</ele>
        <time>2012-05-19T11:18:23Z</time>
      </trkpt>
      <trkpt lat="44.60748" lon="2.46123">
        <ele>628.36</ele>
        <time>2012-05-19T11:18:41Z</time>
      </trkpt>
      <trkpt lat="44.60769" lon="2.46118">
        <ele>627.88</ele>
        <time>2012-05-19T11:19:00Z</time>
      </trkpt>
      <trkpt lat="44.60788" lon="2.46112">
        <ele>627.88</ele>
        <time>2012-05-19T11:19:18Z</time>
      </trkpt>
      <trkpt lat="44.60809" lon="2.46105">
        <ele>626.44</ele>
        <time>2012-05-19T11:19:37Z</time>
      </trkpt>
      <trkpt lat="44.60827" lon="2.46098">
        <ele>625.47</ele>
        <time>2012-05-19T11:19:54Z</time>
      </trkpt>
      <trkpt lat="44.60846" lon="2.4609">
        <ele>626.44</ele>
        <time>2012-05-19T11:20:11Z</time>
      </trkpt>
      <trkpt lat="44.60864" lon="2.46081">
        <ele>627.4</ele>
        <time>2012-05-19T11:20:27Z</time>
      </trkpt>
      <trkpt lat="44.60884" lon="2.4607">
        <ele>628.36</ele>
        <time>2012-05-19T11:20:45Z</time>
      </trkpt>
      <trkpt lat="44.60903" lon="2.46061">
        <ele>629.8</ele>
        <time>2012-05-19T11:21:03Z</time>
      </trkpt>
      <trkpt lat="44.60922" lon="2.46052">
        <ele>630.28</ele>
        <time>2012-05-19T11:21:20Z</time>
      </trkpt>
      <trkpt lat="44.60942" lon="2.46042">
        <ele>631.24</ele>
        <time>2012-05-19T11:21:38Z</time>
      </trkpt>
      <trkpt lat="44.60959" lon="2.46034">
        <ele>631.72</ele>
        <time>2012-05-19T11:21:53Z</time>
      </trkpt>
      <trkpt lat="44.60979" lon="2.46028">
        <ele>631.24</ele>
        <time>2012-05-19T11:22:11Z</time>
      </trkpt>
      <trkpt lat="44.60997" lon="2.46023">
        <ele>630.28</ele>
        <time>2012-05-19T11:22:26Z</time>
      </trkpt>
      <trkpt lat="44.61016" lon="2.46018">
        <ele>629.32</ele>
        <time>2012-05-19T11:22:42Z</time>
      </trkpt>
      <trkpt lat="44.61023" lon="2.46015">
        <ele>628.84</ele>
        <time>2012-05-19T11:22:47Z</time>
      </trkpt>
      <trkpt lat="44.61043" lon="2.46008">
        <ele>626.44</ele>
        <time>2012-05-19T11:23:03Z</time>
      </trkpt>
      <trkpt lat="44.6106" lon="2.46003">
        <ele>626.44</ele>
        <time>2012-05-19T11:23:19Z</time>
      </trkpt>
      <trkpt lat="44.61079" lon="2.45996">
        <ele>625.47</ele>
        <time>2012-05-19T11:23:37Z</time>
      </trkpt>
      <trkpt lat="44.61095" lon="2.45986">
        <ele>625.47</ele>
        <time>2012-05-19T11:23:54Z</time>
      </trkpt>
      <trkpt lat="44.61098" lon="2.45983">
        <ele>624.99</ele>
        <time>2012-05-19T11:23:58Z</time>
      </trkpt>
      <trkpt lat="44.61099" lon="2.45982">
        <ele>624.99</ele>
        <time>2012-05-19T11:23:59Z</time>
      </trkpt>
      <trkpt lat="44.61099" lon="2.45974">
        <ele>624.51</ele>
        <time>2012-05-19T11:24:05Z</time>
      </trkpt>
      <trkpt lat="44.61098" lon="2.45973">
        <ele>624.03</ele>
        <time>2012-05-19T11:24:06Z</time>
      </trkpt>
      <trkpt lat="44.61098" lon="2.45971">
        <ele>624.03</ele>
        <time>2012-05-19T11:24:07Z</time>
      </trkpt>
      <trkpt lat="44.61098" lon="2.45968">
        <ele>624.03</ele>
        <time>2012-05-19T11:24:09Z</time>
      </trkpt>
      <trkpt lat="44.611" lon="2.45955">
        <ele>623.55</ele>
        <time>2012-05-19T11:24:18Z</time>
      </trkpt>
      <trkpt lat="44.61109" lon="2.4593">
        <ele>624.03</ele>
        <time>2012-05-19T11:24:35Z</time>
      </trkpt>
      <trkpt lat="44.61117" lon="2.45906">
        <ele>624.51</ele>
        <time>2012-05-19T11:24:51Z</time>
      </trkpt>
      <trkpt lat="44.61124" lon="2.45886">
        <ele>624.51</ele>
        <time>2012-05-19T11:25:06Z</time>
      </trkpt>
      <trkpt lat="44.61132" lon="2.45866">
        <ele>625.47</ele>
        <time>2012-05-19T11:25:22Z</time>
      </trkpt>
      <trkpt lat="44.61136" lon="2.45853">
        <ele>625.96</ele>
        <time>2012-05-19T11:25:37Z</time>
      </trkpt>
      <trkpt lat="44.61143" lon="2.4583">
        <ele>625.96</ele>
        <time>2012-05-19T11:25:53Z</time>
      </trkpt>
      <trkpt lat="44.61149" lon="2.45809">
        <ele>625.96</ele>
        <time>2012-05-19T11:26:07Z</time>
      </trkpt>
      <trkpt lat="44.61154" lon="2.45784">
        <ele>624.51</ele>
        <time>2012-05-19T11:26:23Z</time>
      </trkpt>
      <trkpt lat="44.61159" lon="2.45763">
        <ele>624.03</ele>
        <time>2012-05-19T11:26:37Z</time>
      </trkpt>
      <trkpt lat="44.61167" lon="2.45738">
        <ele>622.59</ele>
        <time>2012-05-19T11:26:53Z</time>
      </trkpt>
      <trkpt lat="44.61181" lon="2.45716">
        <ele>621.15</ele>
        <time>2012-05-19T11:27:11Z</time>
      </trkpt>
      <trkpt lat="44.61191" lon="2.45703">
        <ele>620.19</ele>
        <time>2012-05-19T11:27:23Z</time>
      </trkpt>
      <trkpt lat="44.61202" lon="2.45689">
        <ele>619.71</ele>
        <time>2012-05-19T11:27:38Z</time>
      </trkpt>
      <trkpt lat="44.61214" lon="2.45677">
        <ele>617.78</ele>
        <time>2012-05-19T11:27:52Z</time>
      </trkpt>
      <trkpt lat="44.61218" lon="2.45672">
        <ele>617.3</ele>
        <time>2012-05-19T11:27:57Z</time>
      </trkpt>
      <trkpt lat="44.61232" lon="2.45655">
        <ele>614.9</ele>
        <time>2012-05-19T11:28:13Z</time>
      </trkpt>
      <trkpt lat="44.61233" lon="2.45654">
        <ele>614.9</ele>
        <time>2012-05-19T11:28:14Z</time>
      </trkpt>
      <trkpt lat="44.61234" lon="2.45652">
        <ele>614.9</ele>
        <time>2012-05-19T11:28:15Z</time>
      </trkpt>
      <trkpt lat="44.61234" lon="2.45651">
        <ele>614.42</ele>
        <time>2012-05-19T11:28:16Z</time>
      </trkpt>
      <trkpt lat="44.61235" lon="2.4565">
        <ele>614.42</ele>
        <time>2012-05-19T11:28:17Z</time>
      </trkpt>
      <trkpt lat="44.61251" lon="2.45636">
        <ele>611.54</ele>
        <time>2012-05-19T11:28:34Z</time>
      </trkpt>
      <trkpt lat="44.61266" lon="2.45619">
        <ele>609.61</ele>
        <time>2012-05-19T11:28:50Z</time>
      </trkpt>
      <trkpt lat="44.61278" lon="2.45596">
        <ele>607.69</ele>
        <time>2012-05-19T11:29:07Z</time>
      </trkpt>
      <trkpt lat="44.61279" lon="2.45595">
        <ele>607.69</ele>
        <time>2012-05-19T11:29:08Z</time>
      </trkpt>
      <trkpt lat="44.61283" lon="2.45591">
        <ele>607.21</ele>
        <time>2012-05-19T11:29:23Z</time>
      </trkpt>
      <trkpt lat="44.61283" lon="2.45591">
        <ele>607.21</ele>
        <time>2012-05-19T11:29:48Z</time>
      </trkpt>
      <trkpt lat="44.61284" lon="2.45586">
        <ele>608.17</ele>
        <time>2012-05-19T11:30:01Z</time>
      </trkpt>
      <trkpt lat="44.61286" lon="2.45583">
        <ele>608.17</ele>
        <time>2012-05-19T11:30:03Z</time>
      </trkpt>
      <trkpt lat="44.61291" lon="2.45566">
        <ele>610.09</ele>
        <time>2012-05-19T11:30:17Z</time>
      </trkpt>
      <trkpt lat="44.61297" lon="2.45548">
        <ele>611.54</ele>
        <time>2012-05-19T11:30:32Z</time>
      </trkpt>
      <trkpt lat="44.61298" lon="2.45543">
        <ele>611.54</ele>
        <time>2012-05-19T11:30:35Z</time>
      </trkpt>
      <trkpt lat="44.61299" lon="2.45519">
        <ele>612.5</ele>
        <time>2012-05-19T11:30:50Z</time>
      </trkpt>
      <trkpt lat="44.61298" lon="2.45513">
        <ele>612.98</ele>
        <time>2012-05-19T11:31:10Z</time>
      </trkpt>
      <trkpt lat="44.61298" lon="2.45513">
        <ele>612.98</ele>
        <time>2012-05-19T11:31:33Z</time>
      </trkpt>
      <trkpt lat="44.61288" lon="2.45489">
        <ele>611.54</ele>
        <time>2012-05-19T11:31:49Z</time>
      </trkpt>
      <trkpt lat="44.61278" lon="2.4547">
        <ele>612.02</ele>
        <time>2012-05-19T11:32:04Z</time>
      </trkpt>
      <trkpt lat="44.61269" lon="2.45451">
        <ele>612.02</ele>
        <time>2012-05-19T11:32:18Z</time>
      </trkpt>
      <trkpt lat="44.61266" lon="2.45445">
        <ele>612.02</ele>
        <time>2012-05-19T11:32:23Z</time>
      </trkpt>
      <trkpt lat="44.61255" lon="2.45414">
        <ele>612.5</ele>
        <time>2012-05-19T11:32:44Z</time>
      </trkpt>
      <trkpt lat="44.61244" lon="2.45388">
        <ele>613.94</ele>
        <time>2012-05-19T11:33:02Z</time>
      </trkpt>
      <trkpt lat="44.61236" lon="2.45366">
        <ele>613.94</ele>
        <time>2012-05-19T11:33:18Z</time>
      </trkpt>
      <trkpt lat="44.61225" lon="2.45347">
        <ele>612.98</ele>
        <time>2012-05-19T11:33:35Z</time>
      </trkpt>
      <trkpt lat="44.6121" lon="2.45327">
        <ele>614.9</ele>
        <time>2012-05-19T11:33:53Z</time>
      </trkpt>
      <trkpt lat="44.61207" lon="2.45323">
        <ele>615.38</ele>
        <time>2012-05-19T11:33:57Z</time>
      </trkpt>
      <trkpt lat="44.61199" lon="2.45313">
        <ele>615.86</ele>
        <time>2012-05-19T11:34:06Z</time>
      </trkpt>
      <trkpt lat="44.61184" lon="2.45291">
        <ele>617.78</ele>
        <time>2012-05-19T11:34:25Z</time>
      </trkpt>
      <trkpt lat="44.61169" lon="2.45273">
        <ele>618.26</ele>
        <time>2012-05-19T11:34:42Z</time>
      </trkpt>
      <trkpt lat="44.61155" lon="2.45256">
        <ele>618.26</ele>
        <time>2012-05-19T11:34:57Z</time>
      </trkpt>
      <trkpt lat="44.61143" lon="2.4524">
        <ele>617.3</ele>
        <time>2012-05-19T11:35:11Z</time>
      </trkpt>
      <trkpt lat="44.61128" lon="2.45221">
        <ele>618.26</ele>
        <time>2012-05-19T11:35:28Z</time>
      </trkpt>
      <trkpt lat="44.61117" lon="2.45209">
        <ele>617.78</ele>
        <time>2012-05-19T11:35:40Z</time>
      </trkpt>
      <trkpt lat="44.61111" lon="2.45202">
        <ele>617.78</ele>
        <time>2012-05-19T11:35:47Z</time>
      </trkpt>
      <trkpt lat="44.61099" lon="2.45185">
        <ele>618.75</ele>
        <time>2012-05-19T11:36:03Z</time>
      </trkpt>
      <trkpt lat="44.6109" lon="2.45164">
        <ele>617.3</ele>
        <time>2012-05-19T11:36:18Z</time>
      </trkpt>
      <trkpt lat="44.61081" lon="2.45141">
        <ele>617.3</ele>
        <time>2012-05-19T11:36:34Z</time>
      </trkpt>
      <trkpt lat="44.61072" lon="2.45119">
        <ele>617.78</ele>
        <time>2012-05-19T11:36:50Z</time>
      </trkpt>
      <trkpt lat="44.61065" lon="2.451">
        <ele>619.23</ele>
        <time>2012-05-19T11:37:05Z</time>
      </trkpt>
      <trkpt lat="44.61057" lon="2.45081">
        <ele>618.75</ele>
        <time>2012-05-19T11:37:21Z</time>
      </trkpt>
      <trkpt lat="44.6105" lon="2.45062">
        <ele>619.23</ele>
        <time>2012-05-19T11:37:35Z</time>
      </trkpt>
      <trkpt lat="44.61044" lon="2.45037">
        <ele>617.3</ele>
        <time>2012-05-19T11:37:51Z</time>
      </trkpt>
      <trkpt lat="44.61038" lon="2.45011">
        <ele>615.86</ele>
        <time>2012-05-19T11:38:09Z</time>
      </trkpt>
      <trkpt lat="44.61033" lon="2.44993">
        <ele>615.38</ele>
        <time>2012-05-19T11:38:21Z</time>
      </trkpt>
      <trkpt lat="44.61031" lon="2.44991">
        <ele>615.38</ele>
        <time>2012-05-19T11:38:23Z</time>
      </trkpt>
      <trkpt lat="44.61029" lon="2.44984">
        <ele>615.86</ele>
        <time>2012-05-19T11:38:28Z</time>
      </trkpt>
      <trkpt lat="44.61019" lon="2.44961">
        <ele>617.78</ele>
        <time>2012-05-19T11:38:45Z</time>
      </trkpt>
      <trkpt lat="44.61008" lon="2.44943">
        <ele>619.23</ele>
        <time>2012-05-19T11:38:59Z</time>
      </trkpt>
      <trkpt lat="44.60991" lon="2.44931">
        <ele>619.23</ele>
        <time>2012-05-19T11:39:16Z</time>
      </trkpt>
      <trkpt lat="44.60974" lon="2.44918">
        <ele>620.67</ele>
        <time>2012-05-19T11:39:33Z</time>
      </trkpt>
      <trkpt lat="44.60956" lon="2.44905">
        <ele>620.19</ele>
        <time>2012-05-19T11:39:51Z</time>
      </trkpt>
      <trkpt lat="44.60939" lon="2.44892">
        <ele>617.78</ele>
        <time>2012-05-19T11:40:08Z</time>
      </trkpt>
      <trkpt lat="44.60927" lon="2.44875">
        <ele>614.9</ele>
        <time>2012-05-19T11:40:23Z</time>
      </trkpt>
      <trkpt lat="44.60925" lon="2.44869">
        <ele>614.42</ele>
        <time>2012-05-19T11:40:28Z</time>
      </trkpt>
      <trkpt lat="44.60916" lon="2.44847">
        <ele>612.5</ele>
        <time>2012-05-19T11:40:44Z</time>
      </trkpt>
      <trkpt lat="44.60899" lon="2.44845">
        <ele>612.5</ele>
        <time>2012-05-19T11:40:59Z</time>
      </trkpt>
      <trkpt lat="44.60892" lon="2.44848">
        <ele>612.5</ele>
        <time>2012-05-19T11:41:05Z</time>
      </trkpt>
      <trkpt lat="44.60886" lon="2.44847">
        <ele>611.54</ele>
        <time>2012-05-19T11:41:22Z</time>
      </trkpt>
      <trkpt lat="44.60872" lon="2.44838">
        <ele>612.5</ele>
        <time>2012-05-19T11:41:36Z</time>
      </trkpt>
      <trkpt lat="44.60864" lon="2.44815">
        <ele>610.57</ele>
        <time>2012-05-19T11:41:51Z</time>
      </trkpt>
      <trkpt lat="44.60865" lon="2.44802">
        <ele>610.57</ele>
        <time>2012-05-19T11:42:00Z</time>
      </trkpt>
      <trkpt lat="44.60865" lon="2.44799">
        <ele>610.57</ele>
        <time>2012-05-19T11:42:02Z</time>
      </trkpt>
      <trkpt lat="44.60867" lon="2.44793">
        <ele>610.09</ele>
        <time>2012-05-19T11:42:06Z</time>
      </trkpt>
      <trkpt lat="44.60875" lon="2.4477">
        <ele>609.13</ele>
        <time>2012-05-19T11:42:24Z</time>
      </trkpt>
      <trkpt lat="44.6088" lon="2.44756">
        <ele>608.65</ele>
        <time>2012-05-19T11:42:35Z</time>
      </trkpt>
      <trkpt lat="44.60891" lon="2.4473">
        <ele>608.17</ele>
        <time>2012-05-19T11:42:53Z</time>
      </trkpt>
      <trkpt lat="44.60904" lon="2.44706">
        <ele>608.17</ele>
        <time>2012-05-19T11:43:11Z</time>
      </trkpt>
      <trkpt lat="44.60915" lon="2.44682">
        <ele>607.69</ele>
        <time>2012-05-19T11:43:27Z</time>
      </trkpt>
      <trkpt lat="44.60924" lon="2.44666">
        <ele>606.25</ele>
        <time>2012-05-19T11:43:44Z</time>
      </trkpt>
      <trkpt lat="44.60924" lon="2.44666">
        <ele>606.25</ele>
        <time>2012-05-19T11:44:14Z</time>
      </trkpt>
      <trkpt lat="44.60923" lon="2.44666">
        <ele>606.25</ele>
        <time>2012-05-19T11:44:29Z</time>
      </trkpt>
      <trkpt lat="44.60923" lon="2.44667">
        <ele>606.25</ele>
        <time>2012-05-19T11:44:45Z</time>
      </trkpt>
      <trkpt lat="44.60923" lon="2.44665">
        <ele>605.77</ele>
        <time>2012-05-19T11:44:58Z</time>
      </trkpt>
      <trkpt lat="44.60923" lon="2.44665">
        <ele>605.77</ele>
        <time>2012-05-19T11:45:25Z</time>
      </trkpt>
      <trkpt lat="44.60923" lon="2.44665">
        <ele>605.77</ele>
        <time>2012-05-19T11:45:43Z</time>
      </trkpt>
      <trkpt lat="44.60927" lon="2.44659">
        <ele>605.77</ele>
        <time>2012-05-19T11:46:02Z</time>
      </trkpt>
      <trkpt lat="44.60933" lon="2.44642">
        <ele>606.25</ele>
        <time>2012-05-19T11:46:15Z</time>
      </trkpt>
      <trkpt lat="44.60937" lon="2.44612">
        <ele>604.81</ele>
        <time>2012-05-19T11:46:33Z</time>
      </trkpt>
      <trkpt lat="44.60941" lon="2.44585">
        <ele>604.81</ele>
        <time>2012-05-19T11:46:49Z</time>
      </trkpt>
      <trkpt lat="44.6095" lon="2.44555">
        <ele>603.85</ele>
        <time>2012-05-19T11:47:07Z</time>
      </trkpt>
      <trkpt lat="44.60957" lon="2.44535">
        <ele>602.88</ele>
        <time>2012-05-19T11:47:21Z</time>
      </trkpt>
      <trkpt lat="44.60959" lon="2.44522">
        <ele>601.92</ele>
        <time>2012-05-19T11:47:35Z</time>
      </trkpt>
      <trkpt lat="44.60965" lon="2.44489">
        <ele>601.44</ele>
        <time>2012-05-19T11:47:54Z</time>
      </trkpt>
      <trkpt lat="44.60958" lon="2.44461">
        <ele>599.52</ele>
        <time>2012-05-19T11:48:11Z</time>
      </trkpt>
      <trkpt lat="44.60941" lon="2.44445">
        <ele>599.04</ele>
        <time>2012-05-19T11:48:27Z</time>
      </trkpt>
      <trkpt lat="44.60929" lon="2.44434">
        <ele>599.04</ele>
        <time>2012-05-19T11:48:38Z</time>
      </trkpt>
      <trkpt lat="44.60922" lon="2.44424">
        <ele>598.08</ele>
        <time>2012-05-19T11:48:47Z</time>
      </trkpt>
      <trkpt lat="44.60912" lon="2.44397">
        <ele>598.08</ele>
        <time>2012-05-19T11:49:05Z</time>
      </trkpt>
      <trkpt lat="44.60916" lon="2.44366">
        <ele>597.12</ele>
        <time>2012-05-19T11:49:23Z</time>
      </trkpt>
      <trkpt lat="44.60919" lon="2.44336">
        <ele>596.15</ele>
        <time>2012-05-19T11:49:41Z</time>
      </trkpt>
      <trkpt lat="44.60928" lon="2.44306">
        <ele>596.64</ele>
        <time>2012-05-19T11:49:59Z</time>
      </trkpt>
      <trkpt lat="44.60937" lon="2.44279">
        <ele>596.15</ele>
        <time>2012-05-19T11:50:15Z</time>
      </trkpt>
      <trkpt lat="44.60949" lon="2.44254">
        <ele>595.19</ele>
        <time>2012-05-19T11:50:32Z</time>
      </trkpt>
      <trkpt lat="44.60959" lon="2.44227">
        <ele>593.75</ele>
        <time>2012-05-19T11:50:49Z</time>
      </trkpt>
      <trkpt lat="44.60967" lon="2.44201">
        <ele>593.27</ele>
        <time>2012-05-19T11:51:05Z</time>
      </trkpt>
      <trkpt lat="44.60966" lon="2.44169">
        <ele>591.83</ele>
        <time>2012-05-19T11:51:25Z</time>
      </trkpt>
      <trkpt lat="44.60953" lon="2.4414">
        <ele>591.83</ele>
        <time>2012-05-19T11:51:45Z</time>
      </trkpt>
      <trkpt lat="44.60941" lon="2.44117">
        <ele>591.83</ele>
        <time>2012-05-19T11:52:01Z</time>
      </trkpt>
      <trkpt lat="44.60934" lon="2.4409">
        <ele>591.83</ele>
        <time>2012-05-19T11:52:18Z</time>
      </trkpt>
      <trkpt lat="44.60934" lon="2.44079">
        <ele>591.83</ele>
        <time>2012-05-19T11:52:31Z</time>
      </trkpt>
      <trkpt lat="44.60939" lon="2.44048">
        <ele>591.35</ele>
        <time>2012-05-19T11:52:49Z</time>
      </trkpt>
      <trkpt lat="44.60948" lon="2.44019">
        <ele>590.87</ele>
        <time>2012-05-19T11:53:07Z</time>
      </trkpt>
      <trkpt lat="44.6095" lon="2.44014">
        <ele>590.39</ele>
        <time>2012-05-19T11:53:10Z</time>
      </trkpt>
      <trkpt lat="44.60953" lon="2.44002">
        <ele>590.39</ele>
        <time>2012-05-19T11:53:17Z</time>
      </trkpt>
      <trkpt lat="44.6096" lon="2.43978">
        <ele>590.39</ele>
        <time>2012-05-19T11:53:34Z</time>
      </trkpt>
      <trkpt lat="44.60962" lon="2.43954">
        <ele>589.91</ele>
        <time>2012-05-19T11:53:48Z</time>
      </trkpt>
      <trkpt lat="44.60962" lon="2.43944">
        <ele>590.39</ele>
        <time>2012-05-19T11:53:54Z</time>
      </trkpt>
      <trkpt lat="44.60956" lon="2.43912">
        <ele>590.39</ele>
        <time>2012-05-19T11:54:14Z</time>
      </trkpt>
      <trkpt lat="44.6095" lon="2.43882">
        <ele>590.39</ele>
        <time>2012-05-19T11:54:32Z</time>
      </trkpt>
      <trkpt lat="44.60956" lon="2.43853">
        <ele>589.43</ele>
        <time>2012-05-19T11:54:49Z</time>
      </trkpt>
      <trkpt lat="44.60969" lon="2.43831">
        <ele>587.98</ele>
        <time>2012-05-19T11:55:06Z</time>
      </trkpt>
      <trkpt lat="44.60983" lon="2.43807">
        <ele>587.5</ele>
        <time>2012-05-19T11:55:24Z</time>
      </trkpt>
      <trkpt lat="44.60986" lon="2.43789">
        <ele>588.46</ele>
        <time>2012-05-19T11:55:35Z</time>
      </trkpt>
      <trkpt lat="44.60986" lon="2.43782">
        <ele>587.98</ele>
        <time>2012-05-19T11:55:39Z</time>
      </trkpt>
      <trkpt lat="44.60989" lon="2.4375">
        <ele>586.54</ele>
        <time>2012-05-19T11:55:56Z</time>
      </trkpt>
      <trkpt lat="44.60992" lon="2.43741">
        <ele>586.06</ele>
        <time>2012-05-19T11:56:02Z</time>
      </trkpt>
      <trkpt lat="44.60994" lon="2.43734">
        <ele>586.54</ele>
        <time>2012-05-19T11:56:06Z</time>
      </trkpt>
      <trkpt lat="44.61006" lon="2.43712">
        <ele>585.1</ele>
        <time>2012-05-19T11:56:23Z</time>
      </trkpt>
      <trkpt lat="44.61023" lon="2.43697">
        <ele>584.14</ele>
        <time>2012-05-19T11:56:40Z</time>
      </trkpt>
      <trkpt lat="44.61039" lon="2.43687">
        <ele>582.22</ele>
        <time>2012-05-19T11:56:55Z</time>
      </trkpt>
      <trkpt lat="44.61057" lon="2.43682">
        <ele>581.25</ele>
        <time>2012-05-19T11:57:11Z</time>
      </trkpt>
      <trkpt lat="44.61063" lon="2.43679">
        <ele>581.25</ele>
        <time>2012-05-19T11:57:16Z</time>
      </trkpt>
      <trkpt lat="44.6108" lon="2.43667">
        <ele>580.29</ele>
        <time>2012-05-19T11:57:30Z</time>
      </trkpt>
      <trkpt lat="44.6109" lon="2.43649">
        <ele>580.77</ele>
        <time>2012-05-19T11:57:45Z</time>
      </trkpt>
      <trkpt lat="44.61097" lon="2.43637">
        <ele>580.29</ele>
        <time>2012-05-19T11:58:01Z</time>
      </trkpt>
      <trkpt lat="44.61103" lon="2.4362">
        <ele>580.77</ele>
        <time>2012-05-19T11:58:16Z</time>
      </trkpt>
      <trkpt lat="44.6111" lon="2.43593">
        <ele>581.73</ele>
        <time>2012-05-19T11:58:33Z</time>
      </trkpt>
      <trkpt lat="44.6111" lon="2.43585">
        <ele>581.73</ele>
        <time>2012-05-19T11:58:38Z</time>
      </trkpt>
      <trkpt lat="44.61109" lon="2.43578">
        <ele>582.22</ele>
        <time>2012-05-19T11:58:42Z</time>
      </trkpt>
      <trkpt lat="44.61108" lon="2.43552">
        <ele>581.25</ele>
        <time>2012-05-19T11:58:57Z</time>
      </trkpt>
      <trkpt lat="44.61105" lon="2.43535">
        <ele>581.25</ele>
        <time>2012-05-19T11:59:07Z</time>
      </trkpt>
      <trkpt lat="44.61105" lon="2.43528">
        <ele>580.77</ele>
        <time>2012-05-19T11:59:11Z</time>
      </trkpt>
      <trkpt lat="44.61106" lon="2.43507">
        <ele>579.81</ele>
        <time>2012-05-19T11:59:23Z</time>
      </trkpt>
      <trkpt lat="44.61103" lon="2.43481">
        <ele>579.81</ele>
        <time>2012-05-19T11:59:38Z</time>
      </trkpt>
      <trkpt lat="44.61101" lon="2.43458">
        <ele>577.89</ele>
        <time>2012-05-19T11:59:53Z</time>
      </trkpt>
      <trkpt lat="44.61095" lon="2.43427">
        <ele>575.01</ele>
        <time>2012-05-19T12:00:12Z</time>
      </trkpt>
      <trkpt lat="44.61085" lon="2.43397">
        <ele>575.01</ele>
        <time>2012-05-19T12:00:32Z</time>
      </trkpt>
      <trkpt lat="44.61075" lon="2.43372">
        <ele>574.04</ele>
        <time>2012-05-19T12:00:49Z</time>
      </trkpt>
      <trkpt lat="44.61067" lon="2.4335">
        <ele>573.08</ele>
        <time>2012-05-19T12:01:03Z</time>
      </trkpt>
      <trkpt lat="44.61063" lon="2.43316">
        <ele>573.08</ele>
        <time>2012-05-19T12:01:23Z</time>
      </trkpt>
      <trkpt lat="44.61063" lon="2.43292">
        <ele>573.56</ele>
        <time>2012-05-19T12:01:38Z</time>
      </trkpt>
      <trkpt lat="44.61064" lon="2.43284">
        <ele>574.04</ele>
        <time>2012-05-19T12:01:43Z</time>
      </trkpt>
      <trkpt lat="44.61065" lon="2.43258">
        <ele>574.53</ele>
        <time>2012-05-19T12:01:59Z</time>
      </trkpt>
      <trkpt lat="44.61069" lon="2.43235">
        <ele>575.49</ele>
        <time>2012-05-19T12:02:13Z</time>
      </trkpt>
      <trkpt lat="44.61075" lon="2.43215">
        <ele>575.01</ele>
        <time>2012-05-19T12:02:29Z</time>
      </trkpt>
      <trkpt lat="44.61079" lon="2.43202">
        <ele>575.01</ele>
        <time>2012-05-19T12:02:46Z</time>
      </trkpt>
      <trkpt lat="44.61089" lon="2.43179">
        <ele>574.53</ele>
        <time>2012-05-19T12:03:01Z</time>
      </trkpt>
      <trkpt lat="44.61102" lon="2.43158">
        <ele>575.01</ele>
        <time>2012-05-19T12:03:18Z</time>
      </trkpt>
      <trkpt lat="44.61116" lon="2.4314">
        <ele>574.53</ele>
        <time>2012-05-19T12:03:34Z</time>
      </trkpt>
      <trkpt lat="44.61124" lon="2.43131">
        <ele>574.04</ele>
        <time>2012-05-19T12:03:49Z</time>
      </trkpt>
      <trkpt lat="44.61136" lon="2.43117">
        <ele>573.56</ele>
        <time>2012-05-19T12:04:03Z</time>
      </trkpt>
      <trkpt lat="44.61149" lon="2.43102">
        <ele>574.04</ele>
        <time>2012-05-19T12:04:18Z</time>
      </trkpt>
      <trkpt lat="44.61158" lon="2.43091">
        <ele>573.56</ele>
        <time>2012-05-19T12:04:33Z</time>
      </trkpt>
      <trkpt lat="44.61163" lon="2.43086">
        <ele>573.08</ele>
        <time>2012-05-19T12:04:56Z</time>
      </trkpt>
      <trkpt lat="44.61174" lon="2.43057">
        <ele>573.08</ele>
        <time>2012-05-19T12:05:15Z</time>
      </trkpt>
      <trkpt lat="44.61175" lon="2.43027">
        <ele>573.08</ele>
        <time>2012-05-19T12:05:32Z</time>
      </trkpt>
      <trkpt lat="44.61165" lon="2.43">
        <ele>573.08</ele>
        <time>2012-05-19T12:05:49Z</time>
      </trkpt>
      <trkpt lat="44.61149" lon="2.42981">
        <ele>573.56</ele>
        <time>2012-05-19T12:06:07Z</time>
      </trkpt>
      <trkpt lat="44.6113" lon="2.42968">
        <ele>573.08</ele>
        <time>2012-05-19T12:06:24Z</time>
      </trkpt>
      <trkpt lat="44.61108" lon="2.42958">
        <ele>571.64</ele>
        <time>2012-05-19T12:06:42Z</time>
      </trkpt>
      <trkpt lat="44.6109" lon="2.42947">
        <ele>572.6</ele>
        <time>2012-05-19T12:06:59Z</time>
      </trkpt>
      <trkpt lat="44.61067" lon="2.42938">
        <ele>573.08</ele>
        <time>2012-05-19T12:07:16Z</time>
      </trkpt>
      <trkpt lat="44.61047" lon="2.42929">
        <ele>573.08</ele>
        <time>2012-05-19T12:07:33Z</time>
      </trkpt>
      <trkpt lat="44.61029" lon="2.42919">
        <ele>571.16</ele>
        <time>2012-05-19T12:07:51Z</time>
      </trkpt>
      <trkpt lat="44.61008" lon="2.42903">
        <ele>568.28</ele>
        <time>2012-05-19T12:08:10Z</time>
      </trkpt>
      <trkpt lat="44.60992" lon="2.4289">
        <ele>568.76</ele>
        <time>2012-05-19T12:08:26Z</time>
      </trkpt>
      <trkpt lat="44.60984" lon="2.42858">
        <ele>571.16</ele>
        <time>2012-05-19T12:08:46Z</time>
      </trkpt>
      <trkpt lat="44.60976" lon="2.42827">
        <ele>573.08</ele>
        <time>2012-05-19T12:09:04Z</time>
      </trkpt>
      <trkpt lat="44.60976" lon="2.42825">
        <ele>573.08</ele>
        <time>2012-05-19T12:09:05Z</time>
      </trkpt>
      <trkpt lat="44.60962" lon="2.42797">
        <ele>575.97</ele>
        <time>2012-05-19T12:09:24Z</time>
      </trkpt>
      <trkpt lat="44.60958" lon="2.42778">
        <ele>576.93</ele>
        <time>2012-05-19T12:09:37Z</time>
      </trkpt>
      <trkpt lat="44.6095" lon="2.42744">
        <ele>576.45</ele>
        <time>2012-05-19T12:09:56Z</time>
      </trkpt>
      <trkpt lat="44.60946" lon="2.42708">
        <ele>570.68</ele>
        <time>2012-05-19T12:10:16Z</time>
      </trkpt>
      <trkpt lat="44.60944" lon="2.42679">
        <ele>566.35</ele>
        <time>2012-05-19T12:10:34Z</time>
      </trkpt>
      <trkpt lat="44.6094" lon="2.42648">
        <ele>563.95</ele>
        <time>2012-05-19T12:10:52Z</time>
      </trkpt>
      <trkpt lat="44.60941" lon="2.42644">
        <ele>563.95</ele>
        <time>2012-05-19T12:10:54Z</time>
      </trkpt>
      <trkpt lat="44.60941" lon="2.42613">
        <ele>563.95</ele>
        <time>2012-05-19T12:11:12Z</time>
      </trkpt>
      <trkpt lat="44.60941" lon="2.42583">
        <ele>563.95</ele>
        <time>2012-05-19T12:11:30Z</time>
      </trkpt>
      <trkpt lat="44.60943" lon="2.4255">
        <ele>564.91</ele>
        <time>2012-05-19T12:11:49Z</time>
      </trkpt>
      <trkpt lat="44.60943" lon="2.4252">
        <ele>565.39</ele>
        <time>2012-05-19T12:12:07Z</time>
      </trkpt>
      <trkpt lat="44.6094" lon="2.42489">
        <ele>565.39</ele>
        <time>2012-05-19T12:12:26Z</time>
      </trkpt>
      <trkpt lat="44.60931" lon="2.42458">
        <ele>564.91</ele>
        <time>2012-05-19T12:12:46Z</time>
      </trkpt>
      <trkpt lat="44.60922" lon="2.42435">
        <ele>565.39</ele>
        <time>2012-05-19T12:13:02Z</time>
      </trkpt>
      <trkpt lat="44.60915" lon="2.42428">
        <ele>565.87</ele>
        <time>2012-05-19T12:13:09Z</time>
      </trkpt>
      <trkpt lat="44.60901" lon="2.42407">
        <ele>565.39</ele>
        <time>2012-05-19T12:13:28Z</time>
      </trkpt>
      <trkpt lat="44.60885" lon="2.42389">
        <ele>565.87</ele>
        <time>2012-05-19T12:13:45Z</time>
      </trkpt>
      <trkpt lat="44.60872" lon="2.42373">
        <ele>565.87</ele>
        <time>2012-05-19T12:14:01Z</time>
      </trkpt>
      <trkpt lat="44.60863" lon="2.42358">
        <ele>566.35</ele>
        <time>2012-05-19T12:14:16Z</time>
      </trkpt>
      <trkpt lat="44.60862" lon="2.42357">
        <ele>566.83</ele>
        <time>2012-05-19T12:14:17Z</time>
      </trkpt>
      <trkpt lat="44.60858" lon="2.42354">
        <ele>567.32</ele>
        <time>2012-05-19T12:14:20Z</time>
      </trkpt>
      <trkpt lat="44.60842" lon="2.42332">
        <ele>570.2</ele>
        <time>2012-05-19T12:14:38Z</time>
      </trkpt>
      <trkpt lat="44.60828" lon="2.42313">
        <ele>571.16</ele>
        <time>2012-05-19T12:14:55Z</time>
      </trkpt>
      <trkpt lat="44.60813" lon="2.42296">
        <ele>570.68</ele>
        <time>2012-05-19T12:15:12Z</time>
      </trkpt>
      <trkpt lat="44.60798" lon="2.42276">
        <ele>570.68</ele>
        <time>2012-05-19T12:15:32Z</time>
      </trkpt>
      <trkpt lat="44.60783" lon="2.42258">
        <ele>572.6</ele>
        <time>2012-05-19T12:15:48Z</time>
      </trkpt>
      <trkpt lat="44.60771" lon="2.42242">
        <ele>574.04</ele>
        <time>2012-05-19T12:16:04Z</time>
      </trkpt>
      <trkpt lat="44.60759" lon="2.42223">
        <ele>575.49</ele>
        <time>2012-05-19T12:16:22Z</time>
      </trkpt>
      <trkpt lat="44.60754" lon="2.42214">
        <ele>576.93</ele>
        <time>2012-05-19T12:16:30Z</time>
      </trkpt>
      <trkpt lat="44.60747" lon="2.42193">
        <ele>577.41</ele>
        <time>2012-05-19T12:16:45Z</time>
      </trkpt>
      <trkpt lat="44.60746" lon="2.42165">
        <ele>575.97</ele>
        <time>2012-05-19T12:17:03Z</time>
      </trkpt>
      <trkpt lat="44.60749" lon="2.42144">
        <ele>576.45</ele>
        <time>2012-05-19T12:17:17Z</time>
      </trkpt>
      <trkpt lat="44.60751" lon="2.42125">
        <ele>575.49</ele>
        <time>2012-05-19T12:17:29Z</time>
      </trkpt>
      <trkpt lat="44.60743" lon="2.42101">
        <ele>574.04</ele>
        <time>2012-05-19T12:17:45Z</time>
      </trkpt>
      <trkpt lat="44.60725" lon="2.42091">
        <ele>574.04</ele>
        <time>2012-05-19T12:18:01Z</time>
      </trkpt>
      <trkpt lat="44.60704" lon="2.42089">
        <ele>572.6</ele>
        <time>2012-05-19T12:18:18Z</time>
      </trkpt>
      <trkpt lat="44.60685" lon="2.42082">
        <ele>573.08</ele>
        <time>2012-05-19T12:18:34Z</time>
      </trkpt>
      <trkpt lat="44.6067" lon="2.42073">
        <ele>573.56</ele>
        <time>2012-05-19T12:18:50Z</time>
      </trkpt>
      <trkpt lat="44.60659" lon="2.42058">
        <ele>573.56</ele>
        <time>2012-05-19T12:19:07Z</time>
      </trkpt>
      <trkpt lat="44.6065" lon="2.4204">
        <ele>575.01</ele>
        <time>2012-05-19T12:19:23Z</time>
      </trkpt>
      <trkpt lat="44.60648" lon="2.42036">
        <ele>575.01</ele>
        <time>2012-05-19T12:19:26Z</time>
      </trkpt>
      <trkpt lat="44.60635" lon="2.42018">
        <ele>575.01</ele>
        <time>2012-05-19T12:19:43Z</time>
      </trkpt>
      <trkpt lat="44.60624" lon="2.4201">
        <ele>575.01</ele>
        <time>2012-05-19T12:19:58Z</time>
      </trkpt>
      <trkpt lat="44.60624" lon="2.4201">
        <ele>575.01</ele>
        <time>2012-05-19T12:20:27Z</time>
      </trkpt>
      <trkpt lat="44.60624" lon="2.42009">
        <ele>575.01</ele>
        <time>2012-05-19T12:21:00Z</time>
      </trkpt>
      <trkpt lat="44.60624" lon="2.42009">
        <ele>574.53</ele>
        <time>2012-05-19T12:21:29Z</time>
      </trkpt>
      <trkpt lat="44.60624" lon="2.42009">
        <ele>574.53</ele>
        <time>2012-05-19T12:21:55Z</time>
      </trkpt>
      <trkpt lat="44.6063" lon="2.42004">
        <ele>575.01</ele>
        <time>2012-05-19T12:22:03Z</time>
      </trkpt>
      <trkpt lat="44.60632" lon="2.41997">
        <ele>575.01</ele>
        <time>2012-05-19T12:22:20Z</time>
      </trkpt>
      <trkpt lat="44.60625" lon="2.41975">
        <ele>572.12</ele>
        <time>2012-05-19T12:22:38Z</time>
      </trkpt>
      <trkpt lat="44.60612" lon="2.41957">
        <ele>570.2</ele>
        <time>2012-05-19T12:22:55Z</time>
      </trkpt>
      <trkpt lat="44.6061" lon="2.41953">
        <ele>570.2</ele>
        <time>2012-05-19T12:22:58Z</time>
      </trkpt>
      <trkpt lat="44.6061" lon="2.41933">
        <ele>571.16</ele>
        <time>2012-05-19T12:23:14Z</time>
      </trkpt>
      <trkpt lat="44.60609" lon="2.41922">
        <ele>570.68</ele>
        <time>2012-05-19T12:23:20Z</time>
      </trkpt>
      <trkpt lat="44.60609" lon="2.41913">
        <ele>570.68</ele>
        <time>2012-05-19T12:23:26Z</time>
      </trkpt>
      <trkpt lat="44.60603" lon="2.41887">
        <ele>568.28</ele>
        <time>2012-05-19T12:23:42Z</time>
      </trkpt>
      <trkpt lat="44.60595" lon="2.41868">
        <ele>566.83</ele>
        <time>2012-05-19T12:23:58Z</time>
      </trkpt>
      <trkpt lat="44.60587" lon="2.4185">
        <ele>565.39</ele>
        <time>2012-05-19T12:24:13Z</time>
      </trkpt>
      <trkpt lat="44.60586" lon="2.41844">
        <ele>565.87</ele>
        <time>2012-05-19T12:24:17Z</time>
      </trkpt>
      <trkpt lat="44.60569" lon="2.41834">
        <ele>565.87</ele>
        <time>2012-05-19T12:24:30Z</time>
      </trkpt>
      <trkpt lat="44.60561" lon="2.41832">
        <ele>565.39</ele>
        <time>2012-05-19T12:24:36Z</time>
      </trkpt>
      <trkpt lat="44.60542" lon="2.41827">
        <ele>563.95</ele>
        <time>2012-05-19T12:24:51Z</time>
      </trkpt>
      <trkpt lat="44.60542" lon="2.41826">
        <ele>563.47</ele>
        <time>2012-05-19T12:25:03Z</time>
      </trkpt>
      <trkpt lat="44.60538" lon="2.41825">
        <ele>563.47</ele>
        <time>2012-05-19T12:25:07Z</time>
      </trkpt>
      <trkpt lat="44.60519" lon="2.41822">
        <ele>562.03</ele>
        <time>2012-05-19T12:25:22Z</time>
      </trkpt>
      <trkpt lat="44.60505" lon="2.41814">
        <ele>561.07</ele>
        <time>2012-05-19T12:25:37Z</time>
      </trkpt>
      <trkpt lat="44.60507" lon="2.41815">
        <ele>561.07</ele>
        <time>2012-05-19T12:25:50Z</time>
      </trkpt>
      <trkpt lat="44.60503" lon="2.41811">
        <ele>561.55</ele>
        <time>2012-05-19T12:26:19Z</time>
      </trkpt>
      <trkpt lat="44.60493" lon="2.41792">
        <ele>562.03</ele>
        <time>2012-05-19T12:26:34Z</time>
      </trkpt>
      <trkpt lat="44.60485" lon="2.41768">
        <ele>562.51</ele>
        <time>2012-05-19T12:26:50Z</time>
      </trkpt>
      <trkpt lat="44.60484" lon="2.41751">
        <ele>563.47</ele>
        <time>2012-05-19T12:27:05Z</time>
      </trkpt>
      <trkpt lat="44.60483" lon="2.41748">
        <ele>563.95</ele>
        <time>2012-05-19T12:27:07Z</time>
      </trkpt>
      <trkpt lat="44.60474" lon="2.41728">
        <ele>564.91</ele>
        <time>2012-05-19T12:27:21Z</time>
      </trkpt>
      <trkpt lat="44.60463" lon="2.417">
        <ele>564.43</ele>
        <time>2012-05-19T12:27:40Z</time>
      </trkpt>
      <trkpt lat="44.6045" lon="2.41674">
        <ele>564.91</ele>
        <time>2012-05-19T12:27:59Z</time>
      </trkpt>
      <trkpt lat="44.60444" lon="2.41648">
        <ele>564.43</ele>
        <time>2012-05-19T12:28:15Z</time>
      </trkpt>
      <trkpt lat="44.60442" lon="2.41622">
        <ele>564.43</ele>
        <time>2012-05-19T12:28:31Z</time>
      </trkpt>
      <trkpt lat="44.60444" lon="2.41594">
        <ele>564.91</ele>
        <time>2012-05-19T12:28:48Z</time>
      </trkpt>
      <trkpt lat="44.60445" lon="2.41585">
        <ele>565.39</ele>
        <time>2012-05-19T12:28:53Z</time>
      </trkpt>
      <trkpt lat="44.60454" lon="2.41556">
        <ele>565.39</ele>
        <time>2012-05-19T12:29:12Z</time>
      </trkpt>
      <trkpt lat="44.60468" lon="2.4153">
        <ele>564.91</ele>
        <time>2012-05-19T12:29:31Z</time>
      </trkpt>
      <trkpt lat="44.60481" lon="2.41509">
        <ele>564.91</ele>
        <time>2012-05-19T12:29:48Z</time>
      </trkpt>
      <trkpt lat="44.60488" lon="2.41498">
        <ele>564.43</ele>
        <time>2012-05-19T12:29:57Z</time>
      </trkpt>
      <trkpt lat="44.60501" lon="2.41479">
        <ele>563.95</ele>
        <time>2012-05-19T12:30:14Z</time>
      </trkpt>
      <trkpt lat="44.60516" lon="2.41462">
        <ele>562.51</ele>
        <time>2012-05-19T12:30:31Z</time>
      </trkpt>
      <trkpt lat="44.60533" lon="2.41445">
        <ele>561.55</ele>
        <time>2012-05-19T12:30:49Z</time>
      </trkpt>
      <trkpt lat="44.6055" lon="2.41428">
        <ele>560.11</ele>
        <time>2012-05-19T12:31:06Z</time>
      </trkpt>
      <trkpt lat="44.60566" lon="2.4141">
        <ele>559.14</ele>
        <time>2012-05-19T12:31:24Z</time>
      </trkpt>
      <trkpt lat="44.60581" lon="2.41394">
        <ele>557.7</ele>
        <time>2012-05-19T12:31:40Z</time>
      </trkpt>
      <trkpt lat="44.60583" lon="2.41392">
        <ele>557.22</ele>
        <time>2012-05-19T12:31:42Z</time>
      </trkpt>
      <trkpt lat="44.60597" lon="2.41374">
        <ele>558.18</ele>
        <time>2012-05-19T12:31:58Z</time>
      </trkpt>
      <trkpt lat="44.60612" lon="2.41352">
        <ele>558.18</ele>
        <time>2012-05-19T12:32:15Z</time>
      </trkpt>
      <trkpt lat="44.60626" lon="2.41326">
        <ele>559.62</ele>
        <time>2012-05-19T12:32:35Z</time>
      </trkpt>
      <trkpt lat="44.60632" lon="2.41315">
        <ele>559.62</ele>
        <time>2012-05-19T12:32:52Z</time>
      </trkpt>
      <trkpt lat="44.60639" lon="2.41302">
        <ele>558.18</ele>
        <time>2012-05-19T12:33:11Z</time>
      </trkpt>
      <trkpt lat="44.60644" lon="2.41273">
        <ele>556.74</ele>
        <time>2012-05-19T12:33:30Z</time>
      </trkpt>
      <trkpt lat="44.60644" lon="2.41264">
        <ele>556.74</ele>
        <time>2012-05-19T12:33:36Z</time>
      </trkpt>
      <trkpt lat="44.60636" lon="2.41235">
        <ele>555.78</ele>
        <time>2012-05-19T12:33:55Z</time>
      </trkpt>
      <trkpt lat="44.60631" lon="2.41223">
        <ele>556.26</ele>
        <time>2012-05-19T12:34:11Z</time>
      </trkpt>
      <trkpt lat="44.60626" lon="2.41211">
        <ele>555.78</ele>
        <time>2012-05-19T12:34:36Z</time>
      </trkpt>
      <trkpt lat="44.60613" lon="2.41192">
        <ele>555.3</ele>
        <time>2012-05-19T12:34:53Z</time>
      </trkpt>
      <trkpt lat="44.60598" lon="2.41176">
        <ele>554.82</ele>
        <time>2012-05-19T12:35:11Z</time>
      </trkpt>
      <trkpt lat="44.60582" lon="2.41161">
        <ele>553.38</ele>
        <time>2012-05-19T12:35:27Z</time>
      </trkpt>
      <trkpt lat="44.60567" lon="2.4114">
        <ele>552.41</ele>
        <time>2012-05-19T12:35:45Z</time>
      </trkpt>
      <trkpt lat="44.60561" lon="2.4113">
        <ele>550.97</ele>
        <time>2012-05-19T12:35:53Z</time>
      </trkpt>
      <trkpt lat="44.60561" lon="2.41124">
        <ele>550.49</ele>
        <time>2012-05-19T12:35:57Z</time>
      </trkpt>
      <trkpt lat="44.60557" lon="2.41096">
        <ele>548.57</ele>
        <time>2012-05-19T12:36:14Z</time>
      </trkpt>
      <trkpt lat="44.60554" lon="2.41066">
        <ele>546.65</ele>
        <time>2012-05-19T12:36:32Z</time>
      </trkpt>
      <trkpt lat="44.60551" lon="2.41041">
        <ele>546.65</ele>
        <time>2012-05-19T12:36:47Z</time>
      </trkpt>
      <trkpt lat="44.60546" lon="2.41013">
        <ele>546.65</ele>
        <time>2012-05-19T12:37:04Z</time>
      </trkpt>
      <trkpt lat="44.6054" lon="2.40987">
        <ele>547.13</ele>
        <time>2012-05-19T12:37:20Z</time>
      </trkpt>
      <trkpt lat="44.60536" lon="2.40956">
        <ele>547.61</ele>
        <time>2012-05-19T12:37:39Z</time>
      </trkpt>
      <trkpt lat="44.60535" lon="2.40928">
        <ele>546.65</ele>
        <time>2012-05-19T12:37:55Z</time>
      </trkpt>
      <trkpt lat="44.60531" lon="2.40905">
        <ele>545.2</ele>
        <time>2012-05-19T12:38:10Z</time>
      </trkpt>
      <trkpt lat="44.60523" lon="2.40874">
        <ele>545.69</ele>
        <time>2012-05-19T12:38:29Z</time>
      </trkpt>
      <trkpt lat="44.60513" lon="2.40844">
        <ele>545.2</ele>
        <time>2012-05-19T12:38:49Z</time>
      </trkpt>
      <trkpt lat="44.60504" lon="2.40819">
        <ele>545.2</ele>
        <time>2012-05-19T12:39:06Z</time>
      </trkpt>
      <trkpt lat="44.60499" lon="2.40808">
        <ele>545.2</ele>
        <time>2012-05-19T12:39:14Z</time>
      </trkpt>
      <trkpt lat="44.60488" lon="2.40798">
        <ele>543.28</ele>
        <time>2012-05-19T12:39:30Z</time>
      </trkpt>
      <trkpt lat="44.60488" lon="2.40798">
        <ele>543.28</ele>
        <time>2012-05-19T12:40:01Z</time>
      </trkpt>
      <trkpt lat="44.60486" lon="2.40798">
        <ele>543.28</ele>
        <time>2012-05-19T12:40:20Z</time>
      </trkpt>
      <trkpt lat="44.60474" lon="2.40793">
        <ele>540.88</ele>
        <time>2012-05-19T12:40:37Z</time>
      </trkpt>
      <trkpt lat="44.60472" lon="2.4078">
        <ele>538.48</ele>
        <time>2012-05-19T12:40:49Z</time>
      </trkpt>
      <trkpt lat="44.60475" lon="2.40771">
        <ele>537.51</ele>
        <time>2012-05-19T12:40:56Z</time>
      </trkpt>
      <trkpt lat="44.60475" lon="2.40764">
        <ele>537.51</ele>
        <time>2012-05-19T12:41:01Z</time>
      </trkpt>
      <trkpt lat="44.60476" lon="2.40759">
        <ele>537.03</ele>
        <time>2012-05-19T12:41:04Z</time>
      </trkpt>
      <trkpt lat="44.60468" lon="2.40737">
        <ele>536.07</ele>
        <time>2012-05-19T12:41:21Z</time>
      </trkpt>
      <trkpt lat="44.60455" lon="2.40714">
        <ele>535.11</ele>
        <time>2012-05-19T12:41:40Z</time>
      </trkpt>
      <trkpt lat="44.6045" lon="2.40703">
        <ele>533.67</ele>
        <time>2012-05-19T12:41:56Z</time>
      </trkpt>
      <trkpt lat="44.6045" lon="2.40703">
        <ele>533.67</ele>
        <time>2012-05-19T12:42:16Z</time>
      </trkpt>
      <trkpt lat="44.60442" lon="2.40686">
        <ele>530.3</ele>
        <time>2012-05-19T12:42:32Z</time>
      </trkpt>
      <trkpt lat="44.60438" lon="2.4068">
        <ele>527.9</ele>
        <time>2012-05-19T12:42:38Z</time>
      </trkpt>
      <trkpt lat="44.60424" lon="2.40659">
        <ele>522.13</ele>
        <time>2012-05-19T12:42:58Z</time>
      </trkpt>
      <trkpt lat="44.60417" lon="2.40647">
        <ele>520.21</ele>
        <time>2012-05-19T12:43:09Z</time>
      </trkpt>
      <trkpt lat="44.60414" lon="2.40642">
        <ele>519.73</ele>
        <time>2012-05-19T12:43:27Z</time>
      </trkpt>
      <trkpt lat="44.60414" lon="2.40641">
        <ele>519.25</ele>
        <time>2012-05-19T12:43:58Z</time>
      </trkpt>
      <trkpt lat="44.60414" lon="2.40641">
        <ele>518.77</ele>
        <time>2012-05-19T12:44:18Z</time>
      </trkpt>
      <trkpt lat="44.60414" lon="2.40641">
        <ele>518.77</ele>
        <time>2012-05-19T12:44:49Z</time>
      </trkpt>
      <trkpt lat="44.60412" lon="2.40635">
        <ele>517.81</ele>
        <time>2012-05-19T12:45:08Z</time>
      </trkpt>
      <trkpt lat="44.60402" lon="2.40619">
        <ele>515.88</ele>
        <time>2012-05-19T12:45:23Z</time>
      </trkpt>
      <trkpt lat="44.60401" lon="2.40618">
        <ele>515.88</ele>
        <time>2012-05-19T12:45:24Z</time>
      </trkpt>
      <trkpt lat="44.6039" lon="2.40601">
        <ele>513.96</ele>
        <time>2012-05-19T12:45:40Z</time>
      </trkpt>
      <trkpt lat="44.60383" lon="2.40579">
        <ele>511.08</ele>
        <time>2012-05-19T12:45:56Z</time>
      </trkpt>
      <trkpt lat="44.60373" lon="2.40561">
        <ele>509.64</ele>
        <time>2012-05-19T12:46:13Z</time>
      </trkpt>
      <trkpt lat="44.60373" lon="2.40559">
        <ele>509.16</ele>
        <time>2012-05-19T12:46:16Z</time>
      </trkpt>
      <trkpt lat="44.60366" lon="2.40543">
        <ele>507.71</ele>
        <time>2012-05-19T12:46:34Z</time>
      </trkpt>
      <trkpt lat="44.60362" lon="2.40534">
        <ele>504.35</ele>
        <time>2012-05-19T12:46:50Z</time>
      </trkpt>
      <trkpt lat="44.60355" lon="2.4052">
        <ele>500.5</ele>
        <time>2012-05-19T12:47:06Z</time>
      </trkpt>
      <trkpt lat="44.60345" lon="2.40505">
        <ele>495.7</ele>
        <time>2012-05-19T12:47:26Z</time>
      </trkpt>
      <trkpt lat="44.60339" lon="2.40495">
        <ele>492.33</ele>
        <time>2012-05-19T12:47:44Z</time>
      </trkpt>
      <trkpt lat="44.60335" lon="2.40488">
        <ele>489.45</ele>
        <time>2012-05-19T12:48:05Z</time>
      </trkpt>
      <trkpt lat="44.60326" lon="2.40472">
        <ele>483.68</ele>
        <time>2012-05-19T12:48:22Z</time>
      </trkpt>
      <trkpt lat="44.60314" lon="2.40452">
        <ele>481.76</ele>
        <time>2012-05-19T12:48:41Z</time>
      </trkpt>
      <trkpt lat="44.60308" lon="2.4044">
        <ele>479.84</ele>
        <time>2012-05-19T12:48:58Z</time>
      </trkpt>
      <trkpt lat="44.60304" lon="2.40436">
        <ele>478.87</ele>
        <time>2012-05-19T12:49:02Z</time>
      </trkpt>
      <trkpt lat="44.6029" lon="2.40422">
        <ele>477.43</ele>
        <time>2012-05-19T12:49:19Z</time>
      </trkpt>
      <trkpt lat="44.60279" lon="2.40413">
        <ele>475.51</ele>
        <time>2012-05-19T12:49:35Z</time>
      </trkpt>
      <trkpt lat="44.60271" lon="2.404">
        <ele>473.11</ele>
        <time>2012-05-19T12:49:52Z</time>
      </trkpt>
      <trkpt lat="44.6026" lon="2.4039">
        <ele>470.22</ele>
        <time>2012-05-19T12:50:12Z</time>
      </trkpt>
      <trkpt lat="44.60253" lon="2.40378">
        <ele>470.22</ele>
        <time>2012-05-19T12:50:28Z</time>
      </trkpt>
      <trkpt lat="44.60244" lon="2.40368">
        <ele>467.82</ele>
        <time>2012-05-19T12:50:46Z</time>
      </trkpt>
      <trkpt lat="44.60236" lon="2.40359">
        <ele>466.38</ele>
        <time>2012-05-19T12:51:03Z</time>
      </trkpt>
      <trkpt lat="44.60231" lon="2.40352">
        <ele>464.45</ele>
        <time>2012-05-19T12:51:29Z</time>
      </trkpt>
      <trkpt lat="44.60219" lon="2.40344">
        <ele>461.57</ele>
        <time>2012-05-19T12:51:48Z</time>
      </trkpt>
      <trkpt lat="44.60206" lon="2.40335">
        <ele>459.17</ele>
        <time>2012-05-19T12:52:07Z</time>
      </trkpt>
      <trkpt lat="44.60196" lon="2.4032">
        <ele>456.76</ele>
        <time>2012-05-19T12:52:24Z</time>
      </trkpt>
      <trkpt lat="44.60195" lon="2.40316">
        <ele>454.84</ele>
        <time>2012-05-19T12:52:30Z</time>
      </trkpt>
      <trkpt lat="44.60189" lon="2.40299">
        <ele>451.96</ele>
        <time>2012-05-19T12:52:45Z</time>
      </trkpt>
      <trkpt lat="44.6019" lon="2.4029">
        <ele>451.96</ele>
        <time>2012-05-19T12:52:59Z</time>
      </trkpt>
      <trkpt lat="44.60193" lon="2.40279">
        <ele>450.03</ele>
        <time>2012-05-19T12:53:14Z</time>
      </trkpt>
      <trkpt lat="44.60188" lon="2.40268">
        <ele>449.55</ele>
        <time>2012-05-19T12:53:30Z</time>
      </trkpt>
      <trkpt lat="44.60189" lon="2.40257">
        <ele>448.59</ele>
        <time>2012-05-19T12:53:43Z</time>
      </trkpt>
      <trkpt lat="44.60183" lon="2.40256">
        <ele>448.11</ele>
        <time>2012-05-19T12:54:01Z</time>
      </trkpt>
      <trkpt lat="44.60175" lon="2.40261">
        <ele>443.79</ele>
        <time>2012-05-19T12:54:18Z</time>
      </trkpt>
      <trkpt lat="44.60172" lon="2.40267">
        <ele>441.86</ele>
        <time>2012-05-19T12:54:25Z</time>
      </trkpt>
      <trkpt lat="44.60164" lon="2.40281">
        <ele>437.54</ele>
        <time>2012-05-19T12:54:41Z</time>
      </trkpt>
      <trkpt lat="44.60157" lon="2.40299">
        <ele>437.54</ele>
        <time>2012-05-19T12:54:59Z</time>
      </trkpt>
      <trkpt lat="44.60151" lon="2.40315">
        <ele>437.54</ele>
        <time>2012-05-19T12:55:14Z</time>
      </trkpt>
      <trkpt lat="44.60145" lon="2.40332">
        <ele>434.17</ele>
        <time>2012-05-19T12:55:29Z</time>
      </trkpt>
      <trkpt lat="44.60142" lon="2.40337">
        <ele>432.73</ele>
        <time>2012-05-19T12:55:43Z</time>
      </trkpt>
      <trkpt lat="44.60141" lon="2.40347">
        <ele>431.77</ele>
        <time>2012-05-19T12:55:57Z</time>
      </trkpt>
      <trkpt lat="44.6014" lon="2.40363">
        <ele>430.81</ele>
        <time>2012-05-19T12:56:09Z</time>
      </trkpt>
      <trkpt lat="44.60142" lon="2.40379">
        <ele>428.89</ele>
        <time>2012-05-19T12:56:21Z</time>
      </trkpt>
      <trkpt lat="44.6015" lon="2.40396">
        <ele>425.52</ele>
        <time>2012-05-19T12:56:38Z</time>
      </trkpt>
      <trkpt lat="44.60155" lon="2.40403">
        <ele>422.64</ele>
        <time>2012-05-19T12:56:45Z</time>
      </trkpt>
      <trkpt lat="44.60161" lon="2.40413">
        <ele>418.79</ele>
        <time>2012-05-19T12:56:53Z</time>
      </trkpt>
      <trkpt lat="44.60167" lon="2.40434">
        <ele>415.43</ele>
        <time>2012-05-19T12:57:08Z</time>
      </trkpt>
      <trkpt lat="44.6017" lon="2.40454">
        <ele>413.98</ele>
        <time>2012-05-19T12:57:24Z</time>
      </trkpt>
      <trkpt lat="44.6017" lon="2.40476">
        <ele>414.95</ele>
        <time>2012-05-19T12:57:40Z</time>
      </trkpt>
      <trkpt lat="44.60177" lon="2.40496">
        <ele>414.47</ele>
        <time>2012-05-19T12:57:55Z</time>
      </trkpt>
      <trkpt lat="44.60176" lon="2.40515">
        <ele>420.23</ele>
        <time>2012-05-19T12:58:11Z</time>
      </trkpt>
      <trkpt lat="44.60175" lon="2.40532">
        <ele>419.75</ele>
        <time>2012-05-19T12:58:27Z</time>
      </trkpt>
      <trkpt lat="44.60174" lon="2.40534">
        <ele>419.27</ele>
        <time>2012-05-19T12:58:29Z</time>
      </trkpt>
      <trkpt lat="44.60167" lon="2.40548">
        <ele>414.95</ele>
        <time>2012-05-19T12:58:46Z</time>
      </trkpt>
      <trkpt lat="44.60162" lon="2.40554">
        <ele>413.5</ele>
        <time>2012-05-19T12:59:01Z</time>
      </trkpt>
      <trkpt lat="44.6015" lon="2.40564">
        <ele>411.58</ele>
        <time>2012-05-19T12:59:19Z</time>
      </trkpt>
      <trkpt lat="44.60146" lon="2.4057">
        <ele>412.54</ele>
        <time>2012-05-19T12:59:36Z</time>
      </trkpt>
      <trkpt lat="44.6014" lon="2.40583">
        <ele>411.58</ele>
        <time>2012-05-19T12:59:53Z</time>
      </trkpt>
      <trkpt lat="44.60135" lon="2.40593">
        <ele>408.7</ele>
        <time>2012-05-19T13:00:08Z</time>
      </trkpt>
      <trkpt lat="44.6013" lon="2.40605">
        <ele>405.33</ele>
        <time>2012-05-19T13:00:24Z</time>
      </trkpt>
      <trkpt lat="44.60121" lon="2.40605">
        <ele>400.05</ele>
        <time>2012-05-19T13:00:40Z</time>
      </trkpt>
      <trkpt lat="44.60117" lon="2.40604">
        <ele>397.64</ele>
        <time>2012-05-19T13:00:58Z</time>
      </trkpt>
      <trkpt lat="44.60104" lon="2.40602">
        <ele>393.8</ele>
        <time>2012-05-19T13:01:16Z</time>
      </trkpt>
      <trkpt lat="44.60091" lon="2.40599">
        <ele>392.36</ele>
        <time>2012-05-19T13:01:33Z</time>
      </trkpt>
      <trkpt lat="44.60085" lon="2.40598">
        <ele>390.43</ele>
        <time>2012-05-19T13:01:48Z</time>
      </trkpt>
      <trkpt lat="44.60078" lon="2.40592">
        <ele>388.03</ele>
        <time>2012-05-19T13:02:06Z</time>
      </trkpt>
      <trkpt lat="44.60073" lon="2.40591">
        <ele>386.59</ele>
        <time>2012-05-19T13:02:24Z</time>
      </trkpt>
      <trkpt lat="44.60071" lon="2.4059">
        <ele>386.11</ele>
        <time>2012-05-19T13:02:43Z</time>
      </trkpt>
      <trkpt lat="44.60058" lon="2.40584">
        <ele>383.7</ele>
        <time>2012-05-19T13:03:03Z</time>
      </trkpt>
      <trkpt lat="44.6005" lon="2.40574">
        <ele>380.34</ele>
        <time>2012-05-19T13:03:23Z</time>
      </trkpt>
      <trkpt lat="44.60045" lon="2.40561">
        <ele>376.97</ele>
        <time>2012-05-19T13:03:43Z</time>
      </trkpt>
      <trkpt lat="44.60034" lon="2.40547">
        <ele>371.69</ele>
        <time>2012-05-19T13:04:01Z</time>
      </trkpt>
      <trkpt lat="44.60031" lon="2.40539">
        <ele>370.24</ele>
        <time>2012-05-19T13:04:08Z</time>
      </trkpt>
      <trkpt lat="44.60026" lon="2.40527">
        <ele>367.84</ele>
        <time>2012-05-19T13:04:22Z</time>
      </trkpt>
      <trkpt lat="44.60023" lon="2.40518">
        <ele>366.88</ele>
        <time>2012-05-19T13:04:35Z</time>
      </trkpt>
      <trkpt lat="44.60019" lon="2.40511">
        <ele>365.44</ele>
        <time>2012-05-19T13:04:53Z</time>
      </trkpt>
      <trkpt lat="44.60015" lon="2.40498">
        <ele>362.07</ele>
        <time>2012-05-19T13:05:08Z</time>
      </trkpt>
      <trkpt lat="44.6001" lon="2.40483">
        <ele>357.27</ele>
        <time>2012-05-19T13:05:23Z</time>
      </trkpt>
      <trkpt lat="44.60005" lon="2.40467">
        <ele>353.42</ele>
        <time>2012-05-19T13:05:37Z</time>
      </trkpt>
      <trkpt lat="44.6" lon="2.40454">
        <ele>351.5</ele>
        <time>2012-05-19T13:05:49Z</time>
      </trkpt>
      <trkpt lat="44.59992" lon="2.4043">
        <ele>349.1</ele>
        <time>2012-05-19T13:06:07Z</time>
      </trkpt>
      <trkpt lat="44.59982" lon="2.40407">
        <ele>349.58</ele>
        <time>2012-05-19T13:06:27Z</time>
      </trkpt>
      <trkpt lat="44.59979" lon="2.404">
        <ele>349.58</ele>
        <time>2012-05-19T13:06:33Z</time>
      </trkpt>
      <trkpt lat="44.59974" lon="2.40372">
        <ele>346.69</ele>
        <time>2012-05-19T13:06:53Z</time>
      </trkpt>
      <trkpt lat="44.59973" lon="2.40351">
        <ele>344.77</ele>
        <time>2012-05-19T13:07:09Z</time>
      </trkpt>
      <trkpt lat="44.59971" lon="2.4033">
        <ele>341.41</ele>
        <time>2012-05-19T13:07:26Z</time>
      </trkpt>
      <trkpt lat="44.5997" lon="2.40307">
        <ele>338.52</ele>
        <time>2012-05-19T13:07:43Z</time>
      </trkpt>
      <trkpt lat="44.59966" lon="2.40288">
        <ele>334.68</ele>
        <time>2012-05-19T13:08:01Z</time>
      </trkpt>
      <trkpt lat="44.59966" lon="2.40288">
        <ele>334.68</ele>
        <time>2012-05-19T13:08:06Z</time>
      </trkpt>
      <trkpt lat="44.59962" lon="2.40283">
        <ele>334.68</ele>
        <time>2012-05-19T13:08:11Z</time>
      </trkpt>
      <trkpt lat="44.5996" lon="2.4028">
        <ele>334.2</ele>
        <time>2012-05-19T13:08:14Z</time>
      </trkpt>
      <trkpt lat="44.59963" lon="2.40257">
        <ele>334.68</ele>
        <time>2012-05-19T13:08:30Z</time>
      </trkpt>
      <trkpt lat="44.59965" lon="2.4023">
        <ele>335.64</ele>
        <time>2012-05-19T13:08:47Z</time>
      </trkpt>
      <trkpt lat="44.5996" lon="2.40204">
        <ele>334.2</ele>
        <time>2012-05-19T13:09:04Z</time>
      </trkpt>
      <trkpt lat="44.59958" lon="2.40179">
        <ele>332.75</ele>
        <time>2012-05-19T13:09:21Z</time>
      </trkpt>
      <trkpt lat="44.59959" lon="2.40154">
        <ele>329.87</ele>
        <time>2012-05-19T13:09:38Z</time>
      </trkpt>
      <trkpt lat="44.59956" lon="2.40135">
        <ele>329.39</ele>
        <time>2012-05-19T13:09:51Z</time>
      </trkpt>
      <trkpt lat="44.59955" lon="2.40112">
        <ele>329.87</ele>
        <time>2012-05-19T13:10:07Z</time>
      </trkpt>
      <trkpt lat="44.59955" lon="2.40103">
        <ele>329.39</ele>
        <time>2012-05-19T13:10:21Z</time>
      </trkpt>
      <trkpt lat="44.59952" lon="2.40079">
        <ele>329.39</ele>
        <time>2012-05-19T13:10:37Z</time>
      </trkpt>
      <trkpt lat="44.59951" lon="2.40067">
        <ele>328.43</ele>
        <time>2012-05-19T13:10:51Z</time>
      </trkpt>
      <trkpt lat="44.59951" lon="2.40067">
        <ele>328.43</ele>
        <time>2012-05-19T13:11:13Z</time>
      </trkpt>
      <trkpt lat="44.59951" lon="2.40062">
        <ele>328.43</ele>
        <time>2012-05-19T13:11:33Z</time>
      </trkpt>
      <trkpt lat="44.59951" lon="2.40061">
        <ele>327.95</ele>
        <time>2012-05-19T13:11:49Z</time>
      </trkpt>
      <trkpt lat="44.59951" lon="2.40065">
        <ele>328.43</ele>
        <time>2012-05-19T13:12:06Z</time>
      </trkpt>
      <trkpt lat="44.59951" lon="2.40066">
        <ele>328.91</ele>
        <time>2012-05-19T13:12:31Z</time>
      </trkpt>
      <trkpt lat="44.59951" lon="2.40066">
        <ele>328.91</ele>
        <time>2012-05-19T13:12:57Z</time>
      </trkpt>
      <trkpt lat="44.59952" lon="2.4006">
        <ele>328.43</ele>
        <time>2012-05-19T13:13:17Z</time>
      </trkpt>
      <trkpt lat="44.59949" lon="2.40043">
        <ele>325.54</ele>
        <time>2012-05-19T13:13:31Z</time>
      </trkpt>
      <trkpt lat="44.59949" lon="2.4002">
        <ele>323.14</ele>
        <time>2012-05-19T13:13:48Z</time>
      </trkpt>
      <trkpt lat="44.59947" lon="2.40006">
        <ele>321.22</ele>
        <time>2012-05-19T13:14:00Z</time>
      </trkpt>
      <trkpt lat="44.59939" lon="2.39989">
        <ele>317.85</ele>
        <time>2012-05-19T13:14:15Z</time>
      </trkpt>
      <trkpt lat="44.59937" lon="2.3998">
        <ele>316.41</ele>
        <time>2012-05-19T13:14:30Z</time>
      </trkpt>
      <trkpt lat="44.59937" lon="2.39978">
        <ele>316.41</ele>
        <time>2012-05-19T13:14:49Z</time>
      </trkpt>
      <trkpt lat="44.59937" lon="2.39978">
        <ele>316.41</ele>
        <time>2012-05-19T13:15:13Z</time>
      </trkpt>
      <trkpt lat="44.59934" lon="2.39969">
        <ele>316.89</ele>
        <time>2012-05-19T13:15:26Z</time>
      </trkpt>
      <trkpt lat="44.59929" lon="2.39965">
        <ele>318.81</ele>
        <time>2012-05-19T13:15:42Z</time>
      </trkpt>
      <trkpt lat="44.59927" lon="2.39962">
        <ele>319.78</ele>
        <time>2012-05-19T13:15:57Z</time>
      </trkpt>
      <trkpt lat="44.59927" lon="2.39964">
        <ele>320.26</ele>
        <time>2012-05-19T13:16:14Z</time>
      </trkpt>
      <trkpt lat="44.59927" lon="2.39964">
        <ele>320.26</ele>
        <time>2012-05-19T13:16:37Z</time>
      </trkpt>
      <trkpt lat="44.5993" lon="2.39959">
        <ele>320.74</ele>
        <time>2012-05-19T13:16:55Z</time>
      </trkpt>
      <trkpt lat="44.59932" lon="2.39946">
        <ele>320.26</ele>
        <time>2012-05-19T13:17:09Z</time>
      </trkpt>
      <trkpt lat="44.59937" lon="2.39938">
        <ele>319.78</ele>
        <time>2012-05-19T13:17:25Z</time>
      </trkpt>
      <trkpt lat="44.5994" lon="2.3993">
        <ele>318.33</ele>
        <time>2012-05-19T13:17:40Z</time>
      </trkpt>
      <trkpt lat="44.59939" lon="2.39929">
        <ele>319.3</ele>
        <time>2012-05-19T13:17:57Z</time>
      </trkpt>
      <trkpt lat="44.5994" lon="2.39925">
        <ele>321.22</ele>
        <time>2012-05-19T13:18:12Z</time>
      </trkpt>
      <trkpt lat="44.59944" lon="2.39921">
        <ele>321.22</ele>
        <time>2012-05-19T13:18:22Z</time>
      </trkpt>
      <trkpt lat="44.59948" lon="2.39914">
        <ele>321.22</ele>
        <time>2012-05-19T13:18:38Z</time>
      </trkpt>
      <trkpt lat="44.59948" lon="2.39914">
        <ele>320.74</ele>
        <time>2012-05-19T13:18:54Z</time>
      </trkpt>
      <trkpt lat="44.59948" lon="2.39914">
        <ele>320.74</ele>
        <time>2012-05-19T13:19:12Z</time>
      </trkpt>
      <trkpt lat="44.59942" lon="2.39924">
        <ele>319.3</ele>
        <time>2012-05-19T13:19:27Z</time>
      </trkpt>
      <trkpt lat="44.59938" lon="2.39928">
        <ele>319.78</ele>
        <time>2012-05-19T13:19:41Z</time>
      </trkpt>
      <trkpt lat="44.59942" lon="2.39922">
        <ele>318.33</ele>
        <time>2012-05-19T13:19:59Z</time>
      </trkpt>
      <trkpt lat="44.59943" lon="2.39922">
        <ele>317.85</ele>
        <time>2012-05-19T13:20:21Z</time>
      </trkpt>
      <trkpt lat="44.59943" lon="2.39921">
        <ele>318.33</ele>
        <time>2012-05-19T13:20:42Z</time>
      </trkpt>
      <trkpt lat="44.59942" lon="2.39918">
        <ele>317.85</ele>
        <time>2012-05-19T13:20:57Z</time>
      </trkpt>
      <trkpt lat="44.59943" lon="2.39913">
        <ele>316.41</ele>
        <time>2012-05-19T13:21:16Z</time>
      </trkpt>
      <trkpt lat="44.59942" lon="2.39913">
        <ele>316.41</ele>
        <time>2012-05-19T13:21:36Z</time>
      </trkpt>
      <trkpt lat="44.59942" lon="2.39913">
        <ele>316.41</ele>
        <time>2012-05-19T13:21:55Z</time>
      </trkpt>
      <trkpt lat="44.59945" lon="2.39904">
        <ele>314.01</ele>
        <time>2012-05-19T13:22:17Z</time>
      </trkpt>
      <trkpt lat="44.59948" lon="2.3989">
        <ele>309.68</ele>
        <time>2012-05-19T13:22:32Z</time>
      </trkpt>
      <trkpt lat="44.59949" lon="2.3988">
        <ele>307.28</ele>
        <time>2012-05-19T13:22:49Z</time>
      </trkpt>
      <trkpt lat="44.59949" lon="2.39878">
        <ele>306.32</ele>
        <time>2012-05-19T13:23:07Z</time>
      </trkpt>
      <trkpt lat="44.5995" lon="2.39869">
        <ele>304.88</ele>
        <time>2012-05-19T13:23:24Z</time>
      </trkpt>
      <trkpt lat="44.5995" lon="2.39867">
        <ele>304.39</ele>
        <time>2012-05-19T13:23:40Z</time>
      </trkpt>
      <trkpt lat="44.59952" lon="2.39858">
        <ele>302.47</ele>
        <time>2012-05-19T13:23:53Z</time>
      </trkpt>
      <trkpt lat="44.59955" lon="2.39844">
        <ele>301.03</ele>
        <time>2012-05-19T13:24:07Z</time>
      </trkpt>
      <trkpt lat="44.59958" lon="2.39842">
        <ele>300.07</ele>
        <time>2012-05-19T13:24:21Z</time>
      </trkpt>
      <trkpt lat="44.59959" lon="2.39843">
        <ele>299.59</ele>
        <time>2012-05-19T13:24:28Z</time>
      </trkpt>
      <trkpt lat="44.59953" lon="2.39854">
        <ele>299.59</ele>
        <time>2012-05-19T13:24:39Z</time>
      </trkpt>
      <trkpt lat="44.59946" lon="2.39858">
        <ele>299.59</ele>
        <time>2012-05-19T13:24:53Z</time>
      </trkpt>
      <trkpt lat="44.59948" lon="2.39842">
        <ele>297.67</ele>
        <time>2012-05-19T13:25:08Z</time>
      </trkpt>
      <trkpt lat="44.59945" lon="2.39841">
        <ele>298.15</ele>
        <time>2012-05-19T13:25:20Z</time>
      </trkpt>
      <trkpt lat="44.59945" lon="2.39841">
        <ele>298.15</ele>
        <time>2012-05-19T13:25:38Z</time>
      </trkpt>
      <trkpt lat="44.59945" lon="2.39842">
        <ele>297.67</ele>
        <time>2012-05-19T13:26:04Z</time>
      </trkpt>
      <trkpt lat="44.59946" lon="2.39827">
        <ele>296.7</ele>
        <time>2012-05-19T13:26:19Z</time>
      </trkpt>
      <trkpt lat="44.59947" lon="2.39823">
        <ele>296.22</ele>
        <time>2012-05-19T13:26:22Z</time>
      </trkpt>
      <trkpt lat="44.59947" lon="2.39809">
        <ele>294.78</ele>
        <time>2012-05-19T13:26:33Z</time>
      </trkpt>
      <trkpt lat="44.59948" lon="2.39804">
        <ele>294.3</ele>
        <time>2012-05-19T13:26:37Z</time>
      </trkpt>
      <trkpt lat="44.59948" lon="2.39784">
        <ele>293.82</ele>
        <time>2012-05-19T13:26:54Z</time>
      </trkpt>
      <trkpt lat="44.59947" lon="2.39778">
        <ele>294.78</ele>
        <time>2012-05-19T13:27:09Z</time>
      </trkpt>
      <trkpt lat="44.59947" lon="2.39772">
        <ele>294.3</ele>
        <time>2012-05-19T13:27:25Z</time>
      </trkpt>
      <trkpt lat="44.59949" lon="2.39757">
        <ele>293.82</ele>
        <time>2012-05-19T13:27:42Z</time>
      </trkpt>
      <trkpt lat="44.59942" lon="2.39745">
        <ele>292.38</ele>
        <time>2012-05-19T13:28:01Z</time>
      </trkpt>
      <trkpt lat="44.59946" lon="2.39739">
        <ele>293.82</ele>
        <time>2012-05-19T13:28:14Z</time>
      </trkpt>
      <trkpt lat="44.59947" lon="2.3973">
        <ele>296.22</ele>
        <time>2012-05-19T13:28:26Z</time>
      </trkpt>
      <trkpt lat="44.59935" lon="2.39737">
        <ele>299.11</ele>
        <time>2012-05-19T13:28:43Z</time>
      </trkpt>
      <trkpt lat="44.59932" lon="2.39735">
        <ele>298.15</ele>
        <time>2012-05-19T13:28:46Z</time>
      </trkpt>
      <trkpt lat="44.59922" lon="2.39726">
        <ele>292.86</ele>
        <time>2012-05-19T13:29:01Z</time>
      </trkpt>
      <trkpt lat="44.5992" lon="2.39719">
        <ele>289.97</ele>
        <time>2012-05-19T13:29:17Z</time>
      </trkpt>
      <trkpt lat="44.5992" lon="2.39719">
        <ele>289.97</ele>
        <time>2012-05-19T13:29:46Z</time>
      </trkpt>
      <trkpt lat="44.5992" lon="2.3972">
        <ele>289.97</ele>
        <time>2012-05-19T13:30:20Z</time>
      </trkpt>
      <trkpt lat="44.59919" lon="2.3972">
        <ele>289.97</ele>
        <time>2012-05-19T13:30:53Z</time>
      </trkpt>
    </trkseg>
  </trk>
</gpx>